<?xml version='1.0' encoding='UTF-8'?><gpx version="1.1" creator="JPX - https://github.com/jenetics/jpx" xmlns="http://www.topografix.com/GPX/1/1"><trk><trkseg><trkpt lat="41.9122089" lon="2.2569882"><ele>505.0</ele><time>2026-05-03T05:51:38.217Z</time></trkpt><trkpt lat="41.9121441" lon="2.2570103"><ele>505.0</ele><time>2026-05-03T05:51:58.218Z</time></trkpt><trkpt lat="41.9122708" lon="2.2569525"><ele>505.0</ele><time>2026-05-03T05:53:59.217Z</time></trkpt><trkpt lat="41.9122712" lon="2.2568656"><ele>505.0</ele><time>2026-05-03T05:54:06.217Z</time></trkpt><trkpt lat="41.9122653" lon="2.2567434"><ele>505.0</ele><time>2026-05-03T05:54:08.218Z</time></trkpt><trkpt lat="41.9122777" lon="2.2566083"><ele>505.00000000000006</ele><time>2026-05-03T05:54:10.218Z</time></trkpt><trkpt lat="41.9123231" lon="2.2565242"><ele>505.0</ele><time>2026-05-03T05:54:12.217Z</time></trkpt><trkpt lat="41.9124007" lon="2.2565239"><ele>505.0</ele><time>2026-05-03T05:54:14.218Z</time></trkpt><trkpt lat="41.9125099" lon="2.2565606"><ele>505.0</ele><time>2026-05-03T05:54:16.217Z</time></trkpt><trkpt lat="41.9125722" lon="2.2565847"><ele>505.00000000000006</ele><time>2026-05-03T05:54:17.218Z</time></trkpt><trkpt lat="41.9126408" lon="2.2566041"><ele>505.0</ele><time>2026-05-03T05:54:18.217Z</time></trkpt><trkpt lat="41.9127167" lon="2.256627"><ele>504.6666666666667</ele><time>2026-05-03T05:54:19.218Z</time></trkpt><trkpt lat="41.9127996" lon="2.2566488"><ele>504.33333333333337</ele><time>2026-05-03T05:54:20.217Z</time></trkpt><trkpt lat="41.9128858" lon="2.256672"><ele>504.0</ele><time>2026-05-03T05:54:21.217Z</time></trkpt><trkpt lat="41.9129729" lon="2.2566908"><ele>503.66666666666663</ele><time>2026-05-03T05:54:22.218Z</time></trkpt><trkpt lat="41.9130583" lon="2.256712"><ele>503.3333333333333</ele><time>2026-05-03T05:54:23.218Z</time></trkpt><trkpt lat="41.9131423" lon="2.2567391"><ele>503.0</ele><time>2026-05-03T05:54:24.218Z</time></trkpt><trkpt lat="41.9132322" lon="2.2567645"><ele>503.0</ele><time>2026-05-03T05:54:25.217Z</time></trkpt><trkpt lat="41.9133209" lon="2.2567911"><ele>502.99999999999994</ele><time>2026-05-03T05:54:26.218Z</time></trkpt><trkpt lat="41.9134134" lon="2.2568163"><ele>502.99999999999994</ele><time>2026-05-03T05:54:27.218Z</time></trkpt><trkpt lat="41.9135084" lon="2.2568421"><ele>503.0</ele><time>2026-05-03T05:54:28.217Z</time></trkpt><trkpt lat="41.9136106" lon="2.2568653"><ele>503.0</ele><time>2026-05-03T05:54:29.218Z</time></trkpt><trkpt lat="41.9137168" lon="2.2568823"><ele>502.0</ele><time>2026-05-03T05:54:30.218Z</time></trkpt><trkpt lat="41.913828" lon="2.2568937"><ele>501.0</ele><time>2026-05-03T05:54:31.219Z</time></trkpt><trkpt lat="41.9139455" lon="2.2568933"><ele>500.0</ele><time>2026-05-03T05:54:32.219Z</time></trkpt><trkpt lat="41.9140661" lon="2.2568859"><ele>499.0</ele><time>2026-05-03T05:54:33.218Z</time></trkpt><trkpt lat="41.9141859" lon="2.2568701"><ele>498.0</ele><time>2026-05-03T05:54:34.218Z</time></trkpt><trkpt lat="41.9143043" lon="2.2568517"><ele>497.0</ele><time>2026-05-03T05:54:35.218Z</time></trkpt><trkpt lat="41.9144177" lon="2.2568368"><ele>496.0</ele><time>2026-05-03T05:54:36.219Z</time></trkpt><trkpt lat="41.9145237" lon="2.2568195"><ele>495.0</ele><time>2026-05-03T05:54:37.219Z</time></trkpt><trkpt lat="41.9146212" lon="2.2568063"><ele>494.0</ele><time>2026-05-03T05:54:38.219Z</time></trkpt><trkpt lat="41.9147108" lon="2.2567954"><ele>494.0</ele><time>2026-05-03T05:54:39.218Z</time></trkpt><trkpt lat="41.9148" lon="2.2567836"><ele>494.0</ele><time>2026-05-03T05:54:40.217Z</time></trkpt><trkpt lat="41.9148984" lon="2.2567737"><ele>494.0</ele><time>2026-05-03T05:54:41.217Z</time></trkpt><trkpt lat="41.9150031" lon="2.2567606"><ele>494.0</ele><time>2026-05-03T05:54:42.218Z</time></trkpt><trkpt lat="41.9151134" lon="2.2567451"><ele>494.0</ele><time>2026-05-03T05:54:43.218Z</time></trkpt><trkpt lat="41.9152308" lon="2.2567378"><ele>493.25</ele><time>2026-05-03T05:54:44.218Z</time></trkpt><trkpt lat="41.9153511" lon="2.2567331"><ele>492.5</ele><time>2026-05-03T05:54:45.217Z</time></trkpt><trkpt lat="41.9154744" lon="2.2567318"><ele>491.75</ele><time>2026-05-03T05:54:46.219Z</time></trkpt><trkpt lat="41.9155984" lon="2.256733"><ele>491.0</ele><time>2026-05-03T05:54:47.218Z</time></trkpt><trkpt lat="41.9157227" lon="2.2567348"><ele>491.0</ele><time>2026-05-03T05:54:48.218Z</time></trkpt><trkpt lat="41.9158466" lon="2.2567366"><ele>491.0</ele><time>2026-05-03T05:54:49.217Z</time></trkpt><trkpt lat="41.915972" lon="2.2567359"><ele>491.0</ele><time>2026-05-03T05:54:50.218Z</time></trkpt><trkpt lat="41.916099" lon="2.2567278"><ele>491.0</ele><time>2026-05-03T05:54:51.218Z</time></trkpt><trkpt lat="41.9162215" lon="2.2567124"><ele>490.25</ele><time>2026-05-03T05:54:52.219Z</time></trkpt><trkpt lat="41.9163432" lon="2.2566829"><ele>489.5</ele><time>2026-05-03T05:54:53.218Z</time></trkpt><trkpt lat="41.916464" lon="2.2566402"><ele>488.75</ele><time>2026-05-03T05:54:54.218Z</time></trkpt><trkpt lat="41.9165835" lon="2.2565932"><ele>488.0</ele><time>2026-05-03T05:54:55.217Z</time></trkpt><trkpt lat="41.9167016" lon="2.256545"><ele>488.5</ele><time>2026-05-03T05:54:56.217Z</time></trkpt><trkpt lat="41.9168202" lon="2.2564935"><ele>489.0</ele><time>2026-05-03T05:54:57.218Z</time></trkpt><trkpt lat="41.9169393" lon="2.256438"><ele>489.5</ele><time>2026-05-03T05:54:58.217Z</time></trkpt><trkpt lat="41.9170578" lon="2.2563781"><ele>490.0</ele><time>2026-05-03T05:54:59.218Z</time></trkpt><trkpt lat="41.9171745" lon="2.2563151"><ele>490.0</ele><time>2026-05-03T05:55:00.217Z</time></trkpt><trkpt lat="41.9172899" lon="2.2562524"><ele>490.0</ele><time>2026-05-03T05:55:01.218Z</time></trkpt><trkpt lat="41.9173952" lon="2.256195"><ele>490.0</ele><time>2026-05-03T05:55:02.218Z</time></trkpt><trkpt lat="41.9174941" lon="2.2561426"><ele>490.0</ele><time>2026-05-03T05:55:03.218Z</time></trkpt><trkpt lat="41.917594" lon="2.2560907"><ele>489.25</ele><time>2026-05-03T05:55:04.217Z</time></trkpt><trkpt lat="41.9176979" lon="2.2560382"><ele>488.5</ele><time>2026-05-03T05:55:05.218Z</time></trkpt><trkpt lat="41.9178058" lon="2.2559823"><ele>487.75</ele><time>2026-05-03T05:55:06.219Z</time></trkpt><trkpt lat="41.917917" lon="2.2559249"><ele>487.0</ele><time>2026-05-03T05:55:07.218Z</time></trkpt><trkpt lat="41.9180289" lon="2.2558656"><ele>487.0</ele><time>2026-05-03T05:55:08.219Z</time></trkpt><trkpt lat="41.9181425" lon="2.2558057"><ele>487.00000000000006</ele><time>2026-05-03T05:55:09.217Z</time></trkpt><trkpt lat="41.9182497" lon="2.2557479"><ele>487.00000000000006</ele><time>2026-05-03T05:55:10.217Z</time></trkpt><trkpt lat="41.9183434" lon="2.2556856"><ele>487.0</ele><time>2026-05-03T05:55:11.218Z</time></trkpt><trkpt lat="41.9184261" lon="2.2556077"><ele>487.0</ele><time>2026-05-03T05:55:12.218Z</time></trkpt><trkpt lat="41.918502" lon="2.255508"><ele>487.1666666666667</ele><time>2026-05-03T05:55:13.219Z</time></trkpt><trkpt lat="41.9185782" lon="2.2554078"><ele>487.33333333333337</ele><time>2026-05-03T05:55:14.218Z</time></trkpt><trkpt lat="41.9186604" lon="2.2553264"><ele>487.5</ele><time>2026-05-03T05:55:15.217Z</time></trkpt><trkpt lat="41.9187368" lon="2.2552641"><ele>487.66666666666663</ele><time>2026-05-03T05:55:16.219Z</time></trkpt><trkpt lat="41.9187944" lon="2.2551958"><ele>487.8333333333333</ele><time>2026-05-03T05:55:17.219Z</time></trkpt><trkpt lat="41.9188292" lon="2.2551117"><ele>488.0</ele><time>2026-05-03T05:55:18.218Z</time></trkpt><trkpt lat="41.9188386" lon="2.2550179"><ele>487.99999999999994</ele><time>2026-05-03T05:55:19.218Z</time></trkpt><trkpt lat="41.9188135" lon="2.2549286"><ele>488.0</ele><time>2026-05-03T05:55:20.218Z</time></trkpt><trkpt lat="41.9187624" lon="2.2548571"><ele>488.0</ele><time>2026-05-03T05:55:21.217Z</time></trkpt><trkpt lat="41.9186908" lon="2.2548037"><ele>488.0</ele><time>2026-05-03T05:55:22.218Z</time></trkpt><trkpt lat="41.9186234" lon="2.2547454"><ele>487.99999999999994</ele><time>2026-05-03T05:55:23.217Z</time></trkpt><trkpt lat="41.918569" lon="2.2546587"><ele>488.0</ele><time>2026-05-03T05:55:24.218Z</time></trkpt><trkpt lat="41.9185272" lon="2.2545527"><ele>488.0</ele><time>2026-05-03T05:55:25.218Z</time></trkpt><trkpt lat="41.9184899" lon="2.2544319"><ele>487.99999999999994</ele><time>2026-05-03T05:55:26.218Z</time></trkpt><trkpt lat="41.9184513" lon="2.2543018"><ele>487.99999999999994</ele><time>2026-05-03T05:55:27.219Z</time></trkpt><trkpt lat="41.9184122" lon="2.2541646"><ele>488.0</ele><time>2026-05-03T05:55:28.218Z</time></trkpt><trkpt lat="41.918373" lon="2.2540226"><ele>488.0</ele><time>2026-05-03T05:55:29.217Z</time></trkpt><trkpt lat="41.9183368" lon="2.2538746"><ele>488.25</ele><time>2026-05-03T05:55:30.218Z</time></trkpt><trkpt lat="41.9183046" lon="2.2537197"><ele>488.5</ele><time>2026-05-03T05:55:31.219Z</time></trkpt><trkpt lat="41.9182761" lon="2.25356"><ele>488.75</ele><time>2026-05-03T05:55:32.218Z</time></trkpt><trkpt lat="41.9182519" lon="2.2533964"><ele>489.0</ele><time>2026-05-03T05:55:33.218Z</time></trkpt><trkpt lat="41.9182346" lon="2.2532259"><ele>489.0</ele><time>2026-05-03T05:55:34.219Z</time></trkpt><trkpt lat="41.9182239" lon="2.2530527"><ele>489.0</ele><time>2026-05-03T05:55:35.218Z</time></trkpt><trkpt lat="41.9182193" lon="2.2528779"><ele>489.0</ele><time>2026-05-03T05:55:36.218Z</time></trkpt><trkpt lat="41.9182222" lon="2.2527043"><ele>489.0</ele><time>2026-05-03T05:55:37.218Z</time></trkpt><trkpt lat="41.9182304" lon="2.2525325"><ele>489.0</ele><time>2026-05-03T05:55:38.218Z</time></trkpt><trkpt lat="41.9182424" lon="2.2523791"><ele>489.0</ele><time>2026-05-03T05:55:39.218Z</time></trkpt><trkpt lat="41.9182621" lon="2.2522519"><ele>489.0</ele><time>2026-05-03T05:55:40.218Z</time></trkpt><trkpt lat="41.9182973" lon="2.2521485"><ele>489.0</ele><time>2026-05-03T05:55:41.218Z</time></trkpt><trkpt lat="41.9183476" lon="2.2520613"><ele>489.0</ele><time>2026-05-03T05:55:42.218Z</time></trkpt><trkpt lat="41.9183996" lon="2.2519806"><ele>489.1666666666667</ele><time>2026-05-03T05:55:43.218Z</time></trkpt><trkpt lat="41.9184284" lon="2.2518966"><ele>489.33333333333337</ele><time>2026-05-03T05:55:44.218Z</time></trkpt><trkpt lat="41.9184271" lon="2.2518115"><ele>489.5</ele><time>2026-05-03T05:55:45.218Z</time></trkpt><trkpt lat="41.9183438" lon="2.2516988"><ele>489.6666666666667</ele><time>2026-05-03T05:55:47.218Z</time></trkpt><trkpt lat="41.9182742" lon="2.251692"><ele>489.83333333333337</ele><time>2026-05-03T05:55:48.218Z</time></trkpt><trkpt lat="41.9182063" lon="2.2517172"><ele>490.0</ele><time>2026-05-03T05:55:49.217Z</time></trkpt><trkpt lat="41.9181323" lon="2.2517527"><ele>490.0</ele><time>2026-05-03T05:55:50.217Z</time></trkpt><trkpt lat="41.9180448" lon="2.2517589"><ele>490.0</ele><time>2026-05-03T05:55:51.218Z</time></trkpt><trkpt lat="41.9179506" lon="2.2517457"><ele>490.0</ele><time>2026-05-03T05:55:52.218Z</time></trkpt><trkpt lat="41.917846" lon="2.2517243"><ele>490.0</ele><time>2026-05-03T05:55:53.218Z</time></trkpt><trkpt lat="41.9177321" lon="2.2516947"><ele>490.0</ele><time>2026-05-03T05:55:54.217Z</time></trkpt><trkpt lat="41.917613" lon="2.2516599"><ele>490.25</ele><time>2026-05-03T05:55:55.218Z</time></trkpt><trkpt lat="41.9174842" lon="2.2516238"><ele>490.5</ele><time>2026-05-03T05:55:56.217Z</time></trkpt><trkpt lat="41.9173413" lon="2.2515843"><ele>490.75</ele><time>2026-05-03T05:55:57.218Z</time></trkpt><trkpt lat="41.9171883" lon="2.2515423"><ele>491.0</ele><time>2026-05-03T05:55:58.218Z</time></trkpt><trkpt lat="41.9170301" lon="2.251499"><ele>490.3333333333333</ele><time>2026-05-03T05:55:59.218Z</time></trkpt><trkpt lat="41.9168617" lon="2.2514522"><ele>489.66666666666663</ele><time>2026-05-03T05:56:00.218Z</time></trkpt><trkpt lat="41.9166869" lon="2.2514031"><ele>489.0</ele><time>2026-05-03T05:56:01.218Z</time></trkpt><trkpt lat="41.9165029" lon="2.2513527"><ele>489.0</ele><time>2026-05-03T05:56:02.218Z</time></trkpt><trkpt lat="41.9163113" lon="2.2513021"><ele>489.0</ele><time>2026-05-03T05:56:03.217Z</time></trkpt><trkpt lat="41.9161213" lon="2.2512489"><ele>489.0</ele><time>2026-05-03T05:56:04.218Z</time></trkpt><trkpt lat="41.9159425" lon="2.2512023"><ele>489.0</ele><time>2026-05-03T05:56:05.217Z</time></trkpt><trkpt lat="41.9157719" lon="2.2511533"><ele>489.0</ele><time>2026-05-03T05:56:06.218Z</time></trkpt><trkpt lat="41.9156052" lon="2.2511061"><ele>489.0</ele><time>2026-05-03T05:56:07.218Z</time></trkpt><trkpt lat="41.9154391" lon="2.2510615"><ele>489.0</ele><time>2026-05-03T05:56:08.218Z</time></trkpt><trkpt lat="41.9152736" lon="2.2510164"><ele>489.0</ele><time>2026-05-03T05:56:09.218Z</time></trkpt><trkpt lat="41.915108" lon="2.25097"><ele>489.0</ele><time>2026-05-03T05:56:10.217Z</time></trkpt><trkpt lat="41.9149415" lon="2.2509238"><ele>489.0</ele><time>2026-05-03T05:56:11.218Z</time></trkpt><trkpt lat="41.9147754" lon="2.2508772"><ele>489.0</ele><time>2026-05-03T05:56:12.217Z</time></trkpt><trkpt lat="41.9146096" lon="2.2508323"><ele>489.0</ele><time>2026-05-03T05:56:13.219Z</time></trkpt><trkpt lat="41.9144551" lon="2.2507902"><ele>489.0</ele><time>2026-05-03T05:56:14.218Z</time></trkpt><trkpt lat="41.9143104" lon="2.2507495"><ele>489.0</ele><time>2026-05-03T05:56:15.218Z</time></trkpt><trkpt lat="41.9141792" lon="2.2506981"><ele>489.0</ele><time>2026-05-03T05:56:16.219Z</time></trkpt><trkpt lat="41.9140714" lon="2.2506145"><ele>489.0</ele><time>2026-05-03T05:56:17.218Z</time></trkpt><trkpt lat="41.9139806" lon="2.2504966"><ele>489.25</ele><time>2026-05-03T05:56:18.218Z</time></trkpt><trkpt lat="41.9139066" lon="2.2503462"><ele>489.5</ele><time>2026-05-03T05:56:19.218Z</time></trkpt><trkpt lat="41.9138423" lon="2.2501769"><ele>489.75</ele><time>2026-05-03T05:56:20.218Z</time></trkpt><trkpt lat="41.9137817" lon="2.2499904"><ele>490.0</ele><time>2026-05-03T05:56:21.218Z</time></trkpt><trkpt lat="41.9137211" lon="2.2497929"><ele>490.6666666666667</ele><time>2026-05-03T05:56:22.217Z</time></trkpt><trkpt lat="41.9136585" lon="2.2495926"><ele>491.33333333333337</ele><time>2026-05-03T05:56:23.219Z</time></trkpt><trkpt lat="41.9135876" lon="2.2493952"><ele>492.0</ele><time>2026-05-03T05:56:24.218Z</time></trkpt><trkpt lat="41.9135031" lon="2.2492188"><ele>492.33333333333337</ele><time>2026-05-03T05:56:25.218Z</time></trkpt><trkpt lat="41.9134011" lon="2.2490612"><ele>492.6666666666667</ele><time>2026-05-03T05:56:26.217Z</time></trkpt><trkpt lat="41.9132801" lon="2.2489394"><ele>493.0</ele><time>2026-05-03T05:56:27.218Z</time></trkpt><trkpt lat="41.9131416" lon="2.2488525"><ele>493.0</ele><time>2026-05-03T05:56:28.218Z</time></trkpt><trkpt lat="41.9129888" lon="2.2488069"><ele>493.0</ele><time>2026-05-03T05:56:29.217Z</time></trkpt><trkpt lat="41.9128327" lon="2.2488086"><ele>493.0</ele><time>2026-05-03T05:56:30.219Z</time></trkpt><trkpt lat="41.9126804" lon="2.2488562"><ele>492.6666666666667</ele><time>2026-05-03T05:56:31.218Z</time></trkpt><trkpt lat="41.9125334" lon="2.2489539"><ele>492.33333333333337</ele><time>2026-05-03T05:56:32.218Z</time></trkpt><trkpt lat="41.9123956" lon="2.2490904"><ele>492.0</ele><time>2026-05-03T05:56:33.217Z</time></trkpt><trkpt lat="41.9122628" lon="2.2492544"><ele>492.0</ele><time>2026-05-03T05:56:34.219Z</time></trkpt><trkpt lat="41.9121328" lon="2.2494308"><ele>492.0</ele><time>2026-05-03T05:56:35.217Z</time></trkpt><trkpt lat="41.9119885" lon="2.2495698"><ele>492.0</ele><time>2026-05-03T05:56:36.218Z</time></trkpt><trkpt lat="41.9118371" lon="2.2496771"><ele>492.33333333333337</ele><time>2026-05-03T05:56:37.218Z</time></trkpt><trkpt lat="41.9116762" lon="2.2497587"><ele>492.6666666666667</ele><time>2026-05-03T05:56:38.218Z</time></trkpt><trkpt lat="41.9115066" lon="2.2498166"><ele>493.0</ele><time>2026-05-03T05:56:39.218Z</time></trkpt><trkpt lat="41.9113325" lon="2.2498521"><ele>492.6666666666667</ele><time>2026-05-03T05:56:40.218Z</time></trkpt><trkpt lat="41.9111595" lon="2.249869"><ele>492.33333333333337</ele><time>2026-05-03T05:56:41.219Z</time></trkpt><trkpt lat="41.9109931" lon="2.2498588"><ele>492.0</ele><time>2026-05-03T05:56:42.218Z</time></trkpt><trkpt lat="41.9108397" lon="2.2498364"><ele>492.0</ele><time>2026-05-03T05:56:43.217Z</time></trkpt><trkpt lat="41.9107074" lon="2.2498031"><ele>492.00000000000006</ele><time>2026-05-03T05:56:44.218Z</time></trkpt><trkpt lat="41.9105929" lon="2.2497628"><ele>492.00000000000006</ele><time>2026-05-03T05:56:45.219Z</time></trkpt><trkpt lat="41.9105076" lon="2.249704"><ele>492.0</ele><time>2026-05-03T05:56:46.218Z</time></trkpt><trkpt lat="41.9104502" lon="2.2496242"><ele>492.0</ele><time>2026-05-03T05:56:47.218Z</time></trkpt><trkpt lat="41.9104168" lon="2.2495262"><ele>492.40000000000003</ele><time>2026-05-03T05:56:48.218Z</time></trkpt><trkpt lat="41.9104038" lon="2.2494059"><ele>492.80000000000007</ele><time>2026-05-03T05:56:49.218Z</time></trkpt><trkpt lat="41.9103904" lon="2.249262"><ele>493.2</ele><time>2026-05-03T05:56:50.217Z</time></trkpt><trkpt lat="41.9103526" lon="2.2491069"><ele>493.6</ele><time>2026-05-03T05:56:51.217Z</time></trkpt><trkpt lat="41.9103117" lon="2.248953"><ele>494.0</ele><time>2026-05-03T05:56:52.217Z</time></trkpt><trkpt lat="41.9102307" lon="2.2488011"><ele>494.25</ele><time>2026-05-03T05:56:53.218Z</time></trkpt><trkpt lat="41.9100715" lon="2.2487542"><ele>494.5</ele><time>2026-05-03T05:56:54.218Z</time></trkpt><trkpt lat="41.9099614" lon="2.248686"><ele>494.75</ele><time>2026-05-03T05:56:55.218Z</time></trkpt><trkpt lat="41.9098313" lon="2.2486666"><ele>495.0</ele><time>2026-05-03T05:56:56.217Z</time></trkpt><trkpt lat="41.9097001" lon="2.2486904"><ele>495.0</ele><time>2026-05-03T05:56:57.218Z</time></trkpt><trkpt lat="41.9095724" lon="2.2487523"><ele>495.0</ele><time>2026-05-03T05:56:58.217Z</time></trkpt><trkpt lat="41.9094495" lon="2.2488425"><ele>495.0</ele><time>2026-05-03T05:56:59.218Z</time></trkpt><trkpt lat="41.90932" lon="2.248929"><ele>495.0</ele><time>2026-05-03T05:57:00.218Z</time></trkpt><trkpt lat="41.9091786" lon="2.2489776"><ele>494.66666666666663</ele><time>2026-05-03T05:57:01.218Z</time></trkpt><trkpt lat="41.9090244" lon="2.2489919"><ele>494.3333333333333</ele><time>2026-05-03T05:57:02.218Z</time></trkpt><trkpt lat="41.9088574" lon="2.2489875"><ele>494.0</ele><time>2026-05-03T05:57:03.219Z</time></trkpt><trkpt lat="41.9086809" lon="2.2489729"><ele>494.0</ele><time>2026-05-03T05:57:04.217Z</time></trkpt><trkpt lat="41.9084921" lon="2.2489487"><ele>494.0</ele><time>2026-05-03T05:57:05.218Z</time></trkpt><trkpt lat="41.9082937" lon="2.2489208"><ele>494.0</ele><time>2026-05-03T05:57:06.218Z</time></trkpt><trkpt lat="41.9080892" lon="2.2488861"><ele>494.0</ele><time>2026-05-03T05:57:07.218Z</time></trkpt><trkpt lat="41.9078756" lon="2.2488457"><ele>494.0</ele><time>2026-05-03T05:57:08.218Z</time></trkpt><trkpt lat="41.9076555" lon="2.2488091"><ele>494.0</ele><time>2026-05-03T05:57:09.218Z</time></trkpt><trkpt lat="41.907429" lon="2.2487757"><ele>494.0</ele><time>2026-05-03T05:57:10.217Z</time></trkpt><trkpt lat="41.9071939" lon="2.2487407"><ele>494.0</ele><time>2026-05-03T05:57:11.218Z</time></trkpt><trkpt lat="41.9069527" lon="2.2486911"><ele>495.0</ele><time>2026-05-03T05:57:12.218Z</time></trkpt><trkpt lat="41.9067067" lon="2.2486273"><ele>496.0</ele><time>2026-05-03T05:57:13.218Z</time></trkpt><trkpt lat="41.9064567" lon="2.2485678"><ele>496.0</ele><time>2026-05-03T05:57:14.219Z</time></trkpt><trkpt lat="41.9062001" lon="2.2485094"><ele>496.0</ele><time>2026-05-03T05:57:15.218Z</time></trkpt><trkpt lat="41.9059357" lon="2.2484499"><ele>496.5</ele><time>2026-05-03T05:57:16.217Z</time></trkpt><trkpt lat="41.9056642" lon="2.2483841"><ele>497.0</ele><time>2026-05-03T05:57:17.217Z</time></trkpt><trkpt lat="41.9053868" lon="2.2483111"><ele>497.0</ele><time>2026-05-03T05:57:18.217Z</time></trkpt><trkpt lat="41.9051055" lon="2.2482332"><ele>497.0</ele><time>2026-05-03T05:57:19.218Z</time></trkpt><trkpt lat="41.9048187" lon="2.2481545"><ele>498.5</ele><time>2026-05-03T05:57:20.218Z</time></trkpt><trkpt lat="41.904531" lon="2.2480755"><ele>500.0</ele><time>2026-05-03T05:57:21.218Z</time></trkpt><trkpt lat="41.9042417" lon="2.2479949"><ele>500.0</ele><time>2026-05-03T05:57:22.218Z</time></trkpt><trkpt lat="41.9039502" lon="2.2479164"><ele>500.0</ele><time>2026-05-03T05:57:23.217Z</time></trkpt><trkpt lat="41.9036578" lon="2.2478349"><ele>499.0</ele><time>2026-05-03T05:57:24.218Z</time></trkpt><trkpt lat="41.9033661" lon="2.2477573"><ele>498.0</ele><time>2026-05-03T05:57:25.217Z</time></trkpt><trkpt lat="41.9030723" lon="2.2476764"><ele>498.0</ele><time>2026-05-03T05:57:26.218Z</time></trkpt><trkpt lat="41.9027788" lon="2.2475967"><ele>498.0</ele><time>2026-05-03T05:57:27.218Z</time></trkpt><trkpt lat="41.9024859" lon="2.2475181"><ele>499.0</ele><time>2026-05-03T05:57:28.218Z</time></trkpt><trkpt lat="41.902197" lon="2.2474366"><ele>500.0</ele><time>2026-05-03T05:57:29.218Z</time></trkpt><trkpt lat="41.9019045" lon="2.2473581"><ele>500.0</ele><time>2026-05-03T05:57:30.218Z</time></trkpt><trkpt lat="41.9016126" lon="2.2472779"><ele>500.0</ele><time>2026-05-03T05:57:31.217Z</time></trkpt><trkpt lat="41.90132" lon="2.2471976"><ele>500.0</ele><time>2026-05-03T05:57:32.218Z</time></trkpt><trkpt lat="41.9010291" lon="2.2471175"><ele>500.0</ele><time>2026-05-03T05:57:33.218Z</time></trkpt><trkpt lat="41.9007367" lon="2.2470398"><ele>499.5</ele><time>2026-05-03T05:57:34.217Z</time></trkpt><trkpt lat="41.9004457" lon="2.2469609"><ele>499.0</ele><time>2026-05-03T05:57:35.218Z</time></trkpt><trkpt lat="41.9001552" lon="2.2468813"><ele>499.5</ele><time>2026-05-03T05:57:36.217Z</time></trkpt><trkpt lat="41.8998635" lon="2.2467993"><ele>500.0</ele><time>2026-05-03T05:57:37.218Z</time></trkpt><trkpt lat="41.8995706" lon="2.2467154"><ele>500.0</ele><time>2026-05-03T05:57:38.219Z</time></trkpt><trkpt lat="41.8992784" lon="2.2466327"><ele>500.0</ele><time>2026-05-03T05:57:39.217Z</time></trkpt><trkpt lat="41.898984" lon="2.2465525"><ele>501.0</ele><time>2026-05-03T05:57:40.219Z</time></trkpt><trkpt lat="41.8986882" lon="2.2464746"><ele>502.0</ele><time>2026-05-03T05:57:41.219Z</time></trkpt><trkpt lat="41.8983915" lon="2.2463964"><ele>503.5</ele><time>2026-05-03T05:57:42.218Z</time></trkpt><trkpt lat="41.8980933" lon="2.2463157"><ele>505.0</ele><time>2026-05-03T05:57:43.218Z</time></trkpt><trkpt lat="41.8977954" lon="2.2462365"><ele>505.5</ele><time>2026-05-03T05:57:44.218Z</time></trkpt><trkpt lat="41.897497" lon="2.2461579"><ele>506.0</ele><time>2026-05-03T05:57:45.218Z</time></trkpt><trkpt lat="41.8971988" lon="2.2460827"><ele>506.0</ele><time>2026-05-03T05:57:46.219Z</time></trkpt><trkpt lat="41.896902" lon="2.2460088"><ele>506.0</ele><time>2026-05-03T05:57:47.217Z</time></trkpt><trkpt lat="41.8966062" lon="2.2459316"><ele>506.5</ele><time>2026-05-03T05:57:48.218Z</time></trkpt><trkpt lat="41.8963113" lon="2.2458492"><ele>507.0</ele><time>2026-05-03T05:57:49.219Z</time></trkpt><trkpt lat="41.8960151" lon="2.2457684"><ele>507.5</ele><time>2026-05-03T05:57:50.217Z</time></trkpt><trkpt lat="41.8957205" lon="2.2456895"><ele>508.0</ele><time>2026-05-03T05:57:51.218Z</time></trkpt><trkpt lat="41.8954258" lon="2.2456106"><ele>509.0</ele><time>2026-05-03T05:57:52.217Z</time></trkpt><trkpt lat="41.8951305" lon="2.245532"><ele>510.0</ele><time>2026-05-03T05:57:53.217Z</time></trkpt><trkpt lat="41.8948358" lon="2.2454513"><ele>511.0</ele><time>2026-05-03T05:57:54.218Z</time></trkpt><trkpt lat="41.894542" lon="2.245367"><ele>512.0</ele><time>2026-05-03T05:57:55.218Z</time></trkpt><trkpt lat="41.8942471" lon="2.245285"><ele>512.0</ele><time>2026-05-03T05:57:56.218Z</time></trkpt><trkpt lat="41.8939522" lon="2.2452035"><ele>512.0</ele><time>2026-05-03T05:57:57.218Z</time></trkpt><trkpt lat="41.8936613" lon="2.2451205"><ele>512.0</ele><time>2026-05-03T05:57:58.218Z</time></trkpt><trkpt lat="41.8933831" lon="2.2450399"><ele>512.0</ele><time>2026-05-03T05:57:59.218Z</time></trkpt><trkpt lat="41.8931107" lon="2.2449655"><ele>512.0</ele><time>2026-05-03T05:58:00.218Z</time></trkpt><trkpt lat="41.8928446" lon="2.244897"><ele>512.0</ele><time>2026-05-03T05:58:01.218Z</time></trkpt><trkpt lat="41.8925857" lon="2.2448283"><ele>513.0</ele><time>2026-05-03T05:58:02.217Z</time></trkpt><trkpt lat="41.8923284" lon="2.2447605"><ele>514.0</ele><time>2026-05-03T05:58:03.218Z</time></trkpt><trkpt lat="41.8920701" lon="2.2446888"><ele>514.0</ele><time>2026-05-03T05:58:04.218Z</time></trkpt><trkpt lat="41.8918136" lon="2.244615"><ele>514.0</ele><time>2026-05-03T05:58:05.217Z</time></trkpt><trkpt lat="41.8915553" lon="2.2445413"><ele>515.0</ele><time>2026-05-03T05:58:06.217Z</time></trkpt><trkpt lat="41.8912938" lon="2.2444719"><ele>516.0</ele><time>2026-05-03T05:58:07.219Z</time></trkpt><trkpt lat="41.8910288" lon="2.2444026"><ele>515.5</ele><time>2026-05-03T05:58:08.217Z</time></trkpt><trkpt lat="41.8907598" lon="2.2443286"><ele>515.0</ele><time>2026-05-03T05:58:09.218Z</time></trkpt><trkpt lat="41.8904895" lon="2.2442523"><ele>515.0</ele><time>2026-05-03T05:58:10.217Z</time></trkpt><trkpt lat="41.8902135" lon="2.2441726"><ele>515.0</ele><time>2026-05-03T05:58:11.219Z</time></trkpt><trkpt lat="41.8899341" lon="2.2440939"><ele>515.0</ele><time>2026-05-03T05:58:12.218Z</time></trkpt><trkpt lat="41.8896527" lon="2.2440152"><ele>515.0</ele><time>2026-05-03T05:58:13.218Z</time></trkpt><trkpt lat="41.8893676" lon="2.2439362"><ele>516.0</ele><time>2026-05-03T05:58:14.217Z</time></trkpt><trkpt lat="41.8890789" lon="2.2438569"><ele>517.0</ele><time>2026-05-03T05:58:15.218Z</time></trkpt><trkpt lat="41.8887918" lon="2.2437762"><ele>517.0</ele><time>2026-05-03T05:58:16.218Z</time></trkpt><trkpt lat="41.8885033" lon="2.2436951"><ele>517.0</ele><time>2026-05-03T05:58:17.218Z</time></trkpt><trkpt lat="41.8882165" lon="2.2436149"><ele>517.0</ele><time>2026-05-03T05:58:18.218Z</time></trkpt><trkpt lat="41.8879266" lon="2.2435373"><ele>517.0</ele><time>2026-05-03T05:58:19.218Z</time></trkpt><trkpt lat="41.8876376" lon="2.243459"><ele>518.0</ele><time>2026-05-03T05:58:20.219Z</time></trkpt><trkpt lat="41.8873485" lon="2.2433745"><ele>519.0</ele><time>2026-05-03T05:58:21.219Z</time></trkpt><trkpt lat="41.8870606" lon="2.243283"><ele>519.0</ele><time>2026-05-03T05:58:22.218Z</time></trkpt><trkpt lat="41.8867742" lon="2.243191"><ele>519.0</ele><time>2026-05-03T05:58:23.217Z</time></trkpt><trkpt lat="41.8864883" lon="2.2431005"><ele>519.0</ele><time>2026-05-03T05:58:24.218Z</time></trkpt><trkpt lat="41.8862025" lon="2.2430147"><ele>519.0</ele><time>2026-05-03T05:58:25.218Z</time></trkpt><trkpt lat="41.8859194" lon="2.2429299"><ele>521.0</ele><time>2026-05-03T05:58:26.218Z</time></trkpt><trkpt lat="41.8856392" lon="2.242839"><ele>523.0</ele><time>2026-05-03T05:58:27.218Z</time></trkpt><trkpt lat="41.8853623" lon="2.242739"><ele>528.0</ele><time>2026-05-03T05:58:28.219Z</time></trkpt><trkpt lat="41.8850885" lon="2.2426277"><ele>533.0</ele><time>2026-05-03T05:58:29.217Z</time></trkpt><trkpt lat="41.8848199" lon="2.2425032"><ele>533.0</ele><time>2026-05-03T05:58:30.218Z</time></trkpt><trkpt lat="41.884556" lon="2.2423671"><ele>533.0</ele><time>2026-05-03T05:58:31.219Z</time></trkpt><trkpt lat="41.8842935" lon="2.2422211"><ele>534.0</ele><time>2026-05-03T05:58:32.219Z</time></trkpt><trkpt lat="41.8840324" lon="2.2420676"><ele>535.0</ele><time>2026-05-03T05:58:33.217Z</time></trkpt><trkpt lat="41.8837743" lon="2.2419068"><ele>535.0</ele><time>2026-05-03T05:58:34.217Z</time></trkpt><trkpt lat="41.8835209" lon="2.2417417"><ele>535.0</ele><time>2026-05-03T05:58:35.218Z</time></trkpt><trkpt lat="41.8832721" lon="2.2415836"><ele>535.0</ele><time>2026-05-03T05:58:36.217Z</time></trkpt><trkpt lat="41.8830387" lon="2.2414389"><ele>535.0</ele><time>2026-05-03T05:58:37.218Z</time></trkpt><trkpt lat="41.8828245" lon="2.2413037"><ele>535.0</ele><time>2026-05-03T05:58:38.218Z</time></trkpt><trkpt lat="41.882629" lon="2.2411745"><ele>535.0</ele><time>2026-05-03T05:58:39.217Z</time></trkpt><trkpt lat="41.8824549" lon="2.2410408"><ele>535.0</ele><time>2026-05-03T05:58:40.217Z</time></trkpt><trkpt lat="41.882298" lon="2.2408953"><ele>535.0</ele><time>2026-05-03T05:58:41.217Z</time></trkpt><trkpt lat="41.8821536" lon="2.2407342"><ele>535.0</ele><time>2026-05-03T05:58:42.217Z</time></trkpt><trkpt lat="41.8820261" lon="2.2405543"><ele>535.0</ele><time>2026-05-03T05:58:43.218Z</time></trkpt><trkpt lat="41.8819246" lon="2.2403709"><ele>535.75</ele><time>2026-05-03T05:58:44.218Z</time></trkpt><trkpt lat="41.8818497" lon="2.2401927"><ele>536.5</ele><time>2026-05-03T05:58:45.218Z</time></trkpt><trkpt lat="41.8818026" lon="2.2400219"><ele>537.25</ele><time>2026-05-03T05:58:46.218Z</time></trkpt><trkpt lat="41.8817761" lon="2.2398636"><ele>538.0</ele><time>2026-05-03T05:58:47.217Z</time></trkpt><trkpt lat="41.881766" lon="2.2397173"><ele>538.0</ele><time>2026-05-03T05:58:48.218Z</time></trkpt><trkpt lat="41.8817506" lon="2.2395632"><ele>538.0</ele><time>2026-05-03T05:58:49.218Z</time></trkpt><trkpt lat="41.8817147" lon="2.2393973"><ele>538.0</ele><time>2026-05-03T05:58:50.218Z</time></trkpt><trkpt lat="41.8816606" lon="2.2392169"><ele>538.0</ele><time>2026-05-03T05:58:51.218Z</time></trkpt><trkpt lat="41.8815916" lon="2.2390108"><ele>539.0</ele><time>2026-05-03T05:58:52.217Z</time></trkpt><trkpt lat="41.8815157" lon="2.238778"><ele>540.0</ele><time>2026-05-03T05:58:53.218Z</time></trkpt><trkpt lat="41.8814379" lon="2.23852"><ele>541.0</ele><time>2026-05-03T05:58:54.218Z</time></trkpt><trkpt lat="41.8813567" lon="2.2382264"><ele>541.5</ele><time>2026-05-03T05:58:55.218Z</time></trkpt><trkpt lat="41.8812704" lon="2.2379058"><ele>542.0</ele><time>2026-05-03T05:58:56.219Z</time></trkpt><trkpt lat="41.8811732" lon="2.2375421"><ele>542.0</ele><time>2026-05-03T05:58:57.218Z</time></trkpt><trkpt lat="41.8810698" lon="2.2371514"><ele>542.0</ele><time>2026-05-03T05:58:58.218Z</time></trkpt><trkpt lat="41.8809609" lon="2.2367367"><ele>542.5</ele><time>2026-05-03T05:58:59.218Z</time></trkpt><trkpt lat="41.8808472" lon="2.2363107"><ele>543.0</ele><time>2026-05-03T05:59:00.218Z</time></trkpt><trkpt lat="41.8807311" lon="2.2358687"><ele>543.0</ele><time>2026-05-03T05:59:01.218Z</time></trkpt><trkpt lat="41.8806124" lon="2.2354175"><ele>543.0</ele><time>2026-05-03T05:59:02.219Z</time></trkpt><trkpt lat="41.8804905" lon="2.2349578"><ele>544.0</ele><time>2026-05-03T05:59:03.219Z</time></trkpt><trkpt lat="41.8803659" lon="2.2344914"><ele>545.0</ele><time>2026-05-03T05:59:04.219Z</time></trkpt><trkpt lat="41.8802415" lon="2.2340104"><ele>546.0</ele><time>2026-05-03T05:59:05.217Z</time></trkpt><trkpt lat="41.8801169" lon="2.2335234"><ele>547.0</ele><time>2026-05-03T05:59:06.217Z</time></trkpt><trkpt lat="41.8799869" lon="2.2330303"><ele>547.5</ele><time>2026-05-03T05:59:07.219Z</time></trkpt><trkpt lat="41.879859" lon="2.2325313"><ele>548.0</ele><time>2026-05-03T05:59:08.218Z</time></trkpt><trkpt lat="41.8797309" lon="2.2320359"><ele>549.5</ele><time>2026-05-03T05:59:09.218Z</time></trkpt><trkpt lat="41.8796133" lon="2.2315741"><ele>551.0</ele><time>2026-05-03T05:59:10.218Z</time></trkpt><trkpt lat="41.8795052" lon="2.2311509"><ele>552.0</ele><time>2026-05-03T05:59:11.218Z</time></trkpt><trkpt lat="41.8794039" lon="2.2307635"><ele>553.0</ele><time>2026-05-03T05:59:12.217Z</time></trkpt><trkpt lat="41.8792971" lon="2.2304239"><ele>556.0</ele><time>2026-05-03T05:59:13.218Z</time></trkpt><trkpt lat="41.8791636" lon="2.2300982"><ele>559.0</ele><time>2026-05-03T05:59:14.218Z</time></trkpt><trkpt lat="41.8789934" lon="2.2297808"><ele>559.0</ele><time>2026-05-03T05:59:15.219Z</time></trkpt><trkpt lat="41.8787877" lon="2.2294695"><ele>559.0</ele><time>2026-05-03T05:59:16.219Z</time></trkpt><trkpt lat="41.8785594" lon="2.229156"><ele>561.5</ele><time>2026-05-03T05:59:17.217Z</time></trkpt><trkpt lat="41.8783173" lon="2.2288276"><ele>564.0</ele><time>2026-05-03T05:59:18.217Z</time></trkpt><trkpt lat="41.8780885" lon="2.2285056"><ele>564.0</ele><time>2026-05-03T05:59:19.217Z</time></trkpt><trkpt lat="41.8778721" lon="2.2282203"><ele>564.0</ele><time>2026-05-03T05:59:20.218Z</time></trkpt><trkpt lat="41.8776468" lon="2.2279623"><ele>567.0</ele><time>2026-05-03T05:59:21.219Z</time></trkpt><trkpt lat="41.8773963" lon="2.2277155"><ele>570.0</ele><time>2026-05-03T05:59:22.218Z</time></trkpt><trkpt lat="41.8771204" lon="2.2274735"><ele>569.0</ele><time>2026-05-03T05:59:23.218Z</time></trkpt><trkpt lat="41.8768442" lon="2.2272405"><ele>568.0</ele><time>2026-05-03T05:59:24.218Z</time></trkpt><trkpt lat="41.8765967" lon="2.2270273"><ele>568.0</ele><time>2026-05-03T05:59:25.218Z</time></trkpt><trkpt lat="41.8763734" lon="2.2268332"><ele>568.0</ele><time>2026-05-03T05:59:26.217Z</time></trkpt><trkpt lat="41.8761765" lon="2.2266375"><ele>568.0</ele><time>2026-05-03T05:59:27.217Z</time></trkpt><trkpt lat="41.8760114" lon="2.2264041"><ele>568.0</ele><time>2026-05-03T05:59:28.218Z</time></trkpt><trkpt lat="41.8758861" lon="2.2261249"><ele>574.0</ele><time>2026-05-03T05:59:29.217Z</time></trkpt><trkpt lat="41.8757877" lon="2.225816"><ele>580.0</ele><time>2026-05-03T05:59:30.217Z</time></trkpt><trkpt lat="41.8757274" lon="2.2254982"><ele>580.0</ele><time>2026-05-03T05:59:31.217Z</time></trkpt><trkpt lat="41.8757186" lon="2.2251871"><ele>580.0</ele><time>2026-05-03T05:59:32.217Z</time></trkpt><trkpt lat="41.8757541" lon="2.2248658"><ele>583.0</ele><time>2026-05-03T05:59:33.217Z</time></trkpt><trkpt lat="41.8758238" lon="2.2245203"><ele>586.0</ele><time>2026-05-03T05:59:34.218Z</time></trkpt><trkpt lat="41.8759071" lon="2.2241668"><ele>583.0</ele><time>2026-05-03T05:59:35.218Z</time></trkpt><trkpt lat="41.8759715" lon="2.223873"><ele>580.0</ele><time>2026-05-03T05:59:36.219Z</time></trkpt><trkpt lat="41.8760265" lon="2.2236282"><ele>577.0</ele><time>2026-05-03T05:59:37.217Z</time></trkpt><trkpt lat="41.8760586" lon="2.223427"><ele>577.0</ele><time>2026-05-03T05:59:38.219Z</time></trkpt><trkpt lat="41.8760468" lon="2.2232475"><ele>577.0</ele><time>2026-05-03T05:59:39.217Z</time></trkpt><trkpt lat="41.8759922" lon="2.223077"><ele>577.0</ele><time>2026-05-03T05:59:40.217Z</time></trkpt><trkpt lat="41.8758856" lon="2.222945"><ele>577.0</ele><time>2026-05-03T05:59:41.217Z</time></trkpt><trkpt lat="41.8757353" lon="2.222821"><ele>580.3333333333334</ele><time>2026-05-03T05:59:42.218Z</time></trkpt><trkpt lat="41.8755839" lon="2.2226445"><ele>583.6666666666666</ele><time>2026-05-03T05:59:43.219Z</time></trkpt><trkpt lat="41.8754649" lon="2.2224087"><ele>587.0</ele><time>2026-05-03T05:59:44.217Z</time></trkpt><trkpt lat="41.875369" lon="2.2221344"><ele>587.0</ele><time>2026-05-03T05:59:45.218Z</time></trkpt><trkpt lat="41.8752666" lon="2.2218448"><ele>587.0</ele><time>2026-05-03T05:59:46.218Z</time></trkpt><trkpt lat="41.875119" lon="2.2215592"><ele>591.0</ele><time>2026-05-03T05:59:47.217Z</time></trkpt><trkpt lat="41.8749451" lon="2.221265"><ele>595.0</ele><time>2026-05-03T05:59:48.218Z</time></trkpt><trkpt lat="41.8747559" lon="2.2209589"><ele>591.5</ele><time>2026-05-03T05:59:49.218Z</time></trkpt><trkpt lat="41.8745725" lon="2.2206231"><ele>588.0</ele><time>2026-05-03T05:59:50.218Z</time></trkpt><trkpt lat="41.8744036" lon="2.2202591"><ele>594.0</ele><time>2026-05-03T05:59:51.217Z</time></trkpt><trkpt lat="41.8742576" lon="2.2198822"><ele>600.0</ele><time>2026-05-03T05:59:52.217Z</time></trkpt><trkpt lat="41.8741251" lon="2.2195393"><ele>600.0</ele><time>2026-05-03T05:59:53.219Z</time></trkpt><trkpt lat="41.8739886" lon="2.219234"><ele>600.0</ele><time>2026-05-03T05:59:54.219Z</time></trkpt><trkpt lat="41.8738527" lon="2.2189633"><ele>602.0</ele><time>2026-05-03T05:59:55.217Z</time></trkpt><trkpt lat="41.8737016" lon="2.2187451"><ele>604.0</ele><time>2026-05-03T05:59:56.218Z</time></trkpt><trkpt lat="41.8735297" lon="2.218573"><ele>606.0</ele><time>2026-05-03T05:59:57.218Z</time></trkpt><trkpt lat="41.873327" lon="2.218435"><ele>606.0</ele><time>2026-05-03T05:59:58.218Z</time></trkpt><trkpt lat="41.8730919" lon="2.2183242"><ele>606.0</ele><time>2026-05-03T05:59:59.217Z</time></trkpt><trkpt lat="41.8728347" lon="2.2182237"><ele>608.5</ele><time>2026-05-03T06:00:00.218Z</time></trkpt><trkpt lat="41.872553" lon="2.2181173"><ele>611.0</ele><time>2026-05-03T06:00:01.217Z</time></trkpt><trkpt lat="41.8722621" lon="2.218003"><ele>611.0</ele><time>2026-05-03T06:00:02.217Z</time></trkpt><trkpt lat="41.8719644" lon="2.2178832"><ele>611.0</ele><time>2026-05-03T06:00:03.217Z</time></trkpt><trkpt lat="41.8716558" lon="2.217762"><ele>612.0</ele><time>2026-05-03T06:00:04.218Z</time></trkpt><trkpt lat="41.8713407" lon="2.2176392"><ele>613.0</ele><time>2026-05-03T06:00:05.218Z</time></trkpt><trkpt lat="41.8710229" lon="2.2175153"><ele>615.5</ele><time>2026-05-03T06:00:06.219Z</time></trkpt><trkpt lat="41.8707016" lon="2.2173884"><ele>618.0</ele><time>2026-05-03T06:00:07.218Z</time></trkpt><trkpt lat="41.8703891" lon="2.2172646"><ele>620.5</ele><time>2026-05-03T06:00:08.217Z</time></trkpt><trkpt lat="41.8701044" lon="2.2171521"><ele>623.0</ele><time>2026-05-03T06:00:09.218Z</time></trkpt><trkpt lat="41.8698411" lon="2.2170458"><ele>623.0</ele><time>2026-05-03T06:00:10.219Z</time></trkpt><trkpt lat="41.8695986" lon="2.2169391"><ele>623.0</ele><time>2026-05-03T06:00:11.218Z</time></trkpt><trkpt lat="41.8693857" lon="2.2168275"><ele>623.3333333333333</ele><time>2026-05-03T06:00:12.217Z</time></trkpt><trkpt lat="41.8692" lon="2.2167166"><ele>623.6666666666666</ele><time>2026-05-03T06:00:13.218Z</time></trkpt><trkpt lat="41.8690548" lon="2.2166217"><ele>624.0</ele><time>2026-05-03T06:00:14.217Z</time></trkpt><trkpt lat="41.8689474" lon="2.2165482"><ele>625.0</ele><time>2026-05-03T06:00:15.218Z</time></trkpt><trkpt lat="41.8688586" lon="2.2164844"><ele>626.0</ele><time>2026-05-03T06:00:16.217Z</time></trkpt><trkpt lat="41.8687599" lon="2.2164199"><ele>627.0</ele><time>2026-05-03T06:00:17.217Z</time></trkpt><trkpt lat="41.8686435" lon="2.2163381"><ele>628.0</ele><time>2026-05-03T06:00:18.218Z</time></trkpt><trkpt lat="41.8685111" lon="2.2162302"><ele>627.0</ele><time>2026-05-03T06:00:19.218Z</time></trkpt><trkpt lat="41.8683544" lon="2.2161016"><ele>626.0</ele><time>2026-05-03T06:00:20.218Z</time></trkpt><trkpt lat="41.8681684" lon="2.2159643"><ele>625.0</ele><time>2026-05-03T06:00:21.218Z</time></trkpt><trkpt lat="41.8679559" lon="2.2158097"><ele>625.5</ele><time>2026-05-03T06:00:22.218Z</time></trkpt><trkpt lat="41.8677237" lon="2.2156393"><ele>626.0</ele><time>2026-05-03T06:00:23.219Z</time></trkpt><trkpt lat="41.8674758" lon="2.2154515"><ele>626.0</ele><time>2026-05-03T06:00:24.219Z</time></trkpt><trkpt lat="41.8672145" lon="2.2152524"><ele>626.0</ele><time>2026-05-03T06:00:25.22Z</time></trkpt><trkpt lat="41.8669407" lon="2.2150466"><ele>625.0</ele><time>2026-05-03T06:00:26.22Z</time></trkpt><trkpt lat="41.8666563" lon="2.2148337"><ele>624.0</ele><time>2026-05-03T06:00:27.22Z</time></trkpt><trkpt lat="41.8663657" lon="2.2146135"><ele>625.5</ele><time>2026-05-03T06:00:28.22Z</time></trkpt><trkpt lat="41.8660741" lon="2.2143789"><ele>627.0</ele><time>2026-05-03T06:00:29.218Z</time></trkpt><trkpt lat="41.8658033" lon="2.2141325"><ele>630.0</ele><time>2026-05-03T06:00:30.218Z</time></trkpt><trkpt lat="41.8655608" lon="2.2138827"><ele>633.0</ele><time>2026-05-03T06:00:31.219Z</time></trkpt><trkpt lat="41.8653426" lon="2.2136141"><ele>633.0</ele><time>2026-05-03T06:00:32.218Z</time></trkpt><trkpt lat="41.8651397" lon="2.2133151"><ele>633.0</ele><time>2026-05-03T06:00:33.219Z</time></trkpt><trkpt lat="41.8649492" lon="2.2129855"><ele>634.5</ele><time>2026-05-03T06:00:34.218Z</time></trkpt><trkpt lat="41.8647723" lon="2.2126281"><ele>636.0</ele><time>2026-05-03T06:00:35.219Z</time></trkpt><trkpt lat="41.8646116" lon="2.2122466"><ele>638.0</ele><time>2026-05-03T06:00:36.218Z</time></trkpt><trkpt lat="41.864457" lon="2.2118407"><ele>640.0</ele><time>2026-05-03T06:00:37.219Z</time></trkpt><trkpt lat="41.864295" lon="2.2114294"><ele>640.0</ele><time>2026-05-03T06:00:38.218Z</time></trkpt><trkpt lat="41.8641254" lon="2.2110088"><ele>640.0</ele><time>2026-05-03T06:00:39.219Z</time></trkpt><trkpt lat="41.8639497" lon="2.2105809"><ele>642.0</ele><time>2026-05-03T06:00:40.218Z</time></trkpt><trkpt lat="41.8637759" lon="2.2101413"><ele>644.0</ele><time>2026-05-03T06:00:41.219Z</time></trkpt><trkpt lat="41.8635993" lon="2.2096926"><ele>644.0</ele><time>2026-05-03T06:00:42.22Z</time></trkpt><trkpt lat="41.8634185" lon="2.2092373"><ele>644.0</ele><time>2026-05-03T06:00:43.219Z</time></trkpt><trkpt lat="41.8632422" lon="2.2087982"><ele>644.0</ele><time>2026-05-03T06:00:44.219Z</time></trkpt><trkpt lat="41.8630825" lon="2.2083962"><ele>644.0</ele><time>2026-05-03T06:00:45.22Z</time></trkpt><trkpt lat="41.8629333" lon="2.2080211"><ele>645.0</ele><time>2026-05-03T06:00:46.219Z</time></trkpt><trkpt lat="41.8627898" lon="2.2076564"><ele>646.0</ele><time>2026-05-03T06:00:47.22Z</time></trkpt><trkpt lat="41.8626538" lon="2.207305"><ele>643.5</ele><time>2026-05-03T06:00:48.219Z</time></trkpt><trkpt lat="41.8625247" lon="2.2069779"><ele>641.0</ele><time>2026-05-03T06:00:49.218Z</time></trkpt><trkpt lat="41.8623824" lon="2.2066632"><ele>641.5</ele><time>2026-05-03T06:00:50.219Z</time></trkpt><trkpt lat="41.8622114" lon="2.2063625"><ele>642.0</ele><time>2026-05-03T06:00:51.218Z</time></trkpt><trkpt lat="41.8620073" lon="2.2060725"><ele>643.0</ele><time>2026-05-03T06:00:52.219Z</time></trkpt><trkpt lat="41.8617754" lon="2.2057847"><ele>644.0</ele><time>2026-05-03T06:00:53.218Z</time></trkpt><trkpt lat="41.8615311" lon="2.2054869"><ele>644.0</ele><time>2026-05-03T06:00:54.219Z</time></trkpt><trkpt lat="41.8612842" lon="2.2051808"><ele>644.0</ele><time>2026-05-03T06:00:55.22Z</time></trkpt><trkpt lat="41.8610348" lon="2.2048701"><ele>647.0</ele><time>2026-05-03T06:00:56.218Z</time></trkpt><trkpt lat="41.8608038" lon="2.2045709"><ele>650.0</ele><time>2026-05-03T06:00:57.219Z</time></trkpt><trkpt lat="41.8605967" lon="2.2042866"><ele>655.5</ele><time>2026-05-03T06:00:58.218Z</time></trkpt><trkpt lat="41.8603951" lon="2.2039892"><ele>661.0</ele><time>2026-05-03T06:00:59.219Z</time></trkpt><trkpt lat="41.8601977" lon="2.2036734"><ele>661.0</ele><time>2026-05-03T06:01:00.219Z</time></trkpt><trkpt lat="41.8600075" lon="2.2033332"><ele>661.0</ele><time>2026-05-03T06:01:01.218Z</time></trkpt><trkpt lat="41.8598227" lon="2.2029709"><ele>661.0</ele><time>2026-05-03T06:01:02.218Z</time></trkpt><trkpt lat="41.8596419" lon="2.2025925"><ele>661.0</ele><time>2026-05-03T06:01:03.219Z</time></trkpt><trkpt lat="41.8594772" lon="2.2022382"><ele>660.5</ele><time>2026-05-03T06:01:04.218Z</time></trkpt><trkpt lat="41.8593258" lon="2.2019234"><ele>660.0</ele><time>2026-05-03T06:01:05.219Z</time></trkpt><trkpt lat="41.8591876" lon="2.2016524"><ele>662.0</ele><time>2026-05-03T06:01:06.219Z</time></trkpt><trkpt lat="41.8590353" lon="2.2014379"><ele>664.0</ele><time>2026-05-03T06:01:07.218Z</time></trkpt><trkpt lat="41.8588615" lon="2.2012706"><ele>666.0</ele><time>2026-05-03T06:01:08.219Z</time></trkpt><trkpt lat="41.8586599" lon="2.2011469"><ele>664.5</ele><time>2026-05-03T06:01:09.218Z</time></trkpt><trkpt lat="41.858432" lon="2.2010748"><ele>663.0</ele><time>2026-05-03T06:01:10.219Z</time></trkpt><trkpt lat="41.8581755" lon="2.2010432"><ele>663.0</ele><time>2026-05-03T06:01:11.219Z</time></trkpt><trkpt lat="41.8578884" lon="2.2010386"><ele>663.0</ele><time>2026-05-03T06:01:12.219Z</time></trkpt><trkpt lat="41.8575855" lon="2.201051"><ele>663.0</ele><time>2026-05-03T06:01:13.218Z</time></trkpt><trkpt lat="41.8572742" lon="2.2010922"><ele>663.0</ele><time>2026-05-03T06:01:14.219Z</time></trkpt><trkpt lat="41.8569968" lon="2.2011408"><ele>664.5</ele><time>2026-05-03T06:01:15.219Z</time></trkpt><trkpt lat="41.8567472" lon="2.2012086"><ele>666.0</ele><time>2026-05-03T06:01:16.22Z</time></trkpt><trkpt lat="41.8565237" lon="2.2013143"><ele>666.0</ele><time>2026-05-03T06:01:17.22Z</time></trkpt><trkpt lat="41.8563106" lon="2.2014798"><ele>666.0</ele><time>2026-05-03T06:01:18.219Z</time></trkpt><trkpt lat="41.8561214" lon="2.2016655"><ele>668.0</ele><time>2026-05-03T06:01:19.22Z</time></trkpt><trkpt lat="41.8559683" lon="2.2018312"><ele>670.0</ele><time>2026-05-03T06:01:20.218Z</time></trkpt><trkpt lat="41.855812" lon="2.2019472"><ele>672.0</ele><time>2026-05-03T06:01:21.219Z</time></trkpt><trkpt lat="41.8556427" lon="2.201995"><ele>672.0</ele><time>2026-05-03T06:01:22.219Z</time></trkpt><trkpt lat="41.8554818" lon="2.2019655"><ele>672.0</ele><time>2026-05-03T06:01:23.218Z</time></trkpt><trkpt lat="41.8553261" lon="2.2018573"><ele>672.0</ele><time>2026-05-03T06:01:24.218Z</time></trkpt><trkpt lat="41.8551768" lon="2.2016795"><ele>674.3333333333334</ele><time>2026-05-03T06:01:25.219Z</time></trkpt><trkpt lat="41.8550288" lon="2.2014492"><ele>676.6666666666667</ele><time>2026-05-03T06:01:26.219Z</time></trkpt><trkpt lat="41.8549034" lon="2.2012563"><ele>679.0</ele><time>2026-05-03T06:01:27.22Z</time></trkpt><trkpt lat="41.8548198" lon="2.201078"><ele>679.0</ele><time>2026-05-03T06:01:28.218Z</time></trkpt><trkpt lat="41.8547929" lon="2.2008995"><ele>679.0</ele><time>2026-05-03T06:01:29.218Z</time></trkpt><trkpt lat="41.8548237" lon="2.2007406"><ele>679.0</ele><time>2026-05-03T06:01:30.218Z</time></trkpt><trkpt lat="41.8549105" lon="2.2005952"><ele>679.0</ele><time>2026-05-03T06:01:31.218Z</time></trkpt><trkpt lat="41.8550291" lon="2.2004462"><ele>679.5</ele><time>2026-05-03T06:01:32.219Z</time></trkpt><trkpt lat="41.8551059" lon="2.2002806"><ele>680.0</ele><time>2026-05-03T06:01:33.22Z</time></trkpt><trkpt lat="41.8551352" lon="2.2001003"><ele>680.5</ele><time>2026-05-03T06:01:34.218Z</time></trkpt><trkpt lat="41.855114" lon="2.1999247"><ele>681.0</ele><time>2026-05-03T06:01:35.219Z</time></trkpt><trkpt lat="41.8550402" lon="2.199783"><ele>682.5</ele><time>2026-05-03T06:01:36.219Z</time></trkpt><trkpt lat="41.8549329" lon="2.1996993"><ele>684.0</ele><time>2026-05-03T06:01:37.219Z</time></trkpt><trkpt lat="41.8548015" lon="2.1996714"><ele>685.5</ele><time>2026-05-03T06:01:38.22Z</time></trkpt><trkpt lat="41.8546468" lon="2.1996936"><ele>687.0</ele><time>2026-05-03T06:01:39.219Z</time></trkpt><trkpt lat="41.8544502" lon="2.1997799"><ele>687.0</ele><time>2026-05-03T06:01:40.218Z</time></trkpt><trkpt lat="41.8542415" lon="2.1998798"><ele>687.0</ele><time>2026-05-03T06:01:41.219Z</time></trkpt><trkpt lat="41.8540447" lon="2.2000428"><ele>687.0</ele><time>2026-05-03T06:01:42.219Z</time></trkpt><trkpt lat="41.8538763" lon="2.2002718"><ele>687.0</ele><time>2026-05-03T06:01:43.22Z</time></trkpt><trkpt lat="41.8537307" lon="2.2005464"><ele>681.5</ele><time>2026-05-03T06:01:44.219Z</time></trkpt><trkpt lat="41.8535786" lon="2.2008531"><ele>676.0</ele><time>2026-05-03T06:01:45.219Z</time></trkpt><trkpt lat="41.8534264" lon="2.2011578"><ele>684.0</ele><time>2026-05-03T06:01:46.219Z</time></trkpt><trkpt lat="41.8532849" lon="2.2014148"><ele>692.0</ele><time>2026-05-03T06:01:47.218Z</time></trkpt><trkpt lat="41.8531195" lon="2.201634"><ele>692.0</ele><time>2026-05-03T06:01:48.22Z</time></trkpt><trkpt lat="41.8529187" lon="2.2018433"><ele>692.0</ele><time>2026-05-03T06:01:49.219Z</time></trkpt><trkpt lat="41.8527152" lon="2.2020141"><ele>701.5</ele><time>2026-05-03T06:01:50.218Z</time></trkpt><trkpt lat="41.852512" lon="2.2021422"><ele>711.0</ele><time>2026-05-03T06:01:51.218Z</time></trkpt><trkpt lat="41.852291" lon="2.2022077"><ele>711.0</ele><time>2026-05-03T06:01:52.218Z</time></trkpt><trkpt lat="41.8520483" lon="2.2022086"><ele>711.0</ele><time>2026-05-03T06:01:53.219Z</time></trkpt><trkpt lat="41.8518196" lon="2.2021734"><ele>713.0</ele><time>2026-05-03T06:01:54.219Z</time></trkpt><trkpt lat="41.8516103" lon="2.2020877"><ele>715.0</ele><time>2026-05-03T06:01:55.219Z</time></trkpt><trkpt lat="41.8514073" lon="2.2019425"><ele>717.0</ele><time>2026-05-03T06:01:56.22Z</time></trkpt><trkpt lat="41.8512082" lon="2.2017825"><ele>717.0</ele><time>2026-05-03T06:01:57.219Z</time></trkpt><trkpt lat="41.8509906" lon="2.2016994"><ele>717.0</ele><time>2026-05-03T06:01:58.219Z</time></trkpt><trkpt lat="41.850748" lon="2.2016678"><ele>712.5</ele><time>2026-05-03T06:01:59.219Z</time></trkpt><trkpt lat="41.850484" lon="2.201673"><ele>708.0</ele><time>2026-05-03T06:02:00.219Z</time></trkpt><trkpt lat="41.8502287" lon="2.2016643"><ele>708.5</ele><time>2026-05-03T06:02:01.219Z</time></trkpt><trkpt lat="41.8499954" lon="2.2015969"><ele>709.0</ele><time>2026-05-03T06:02:02.219Z</time></trkpt><trkpt lat="41.8497685" lon="2.2014634"><ele>717.5</ele><time>2026-05-03T06:02:03.218Z</time></trkpt><trkpt lat="41.8495693" lon="2.2012974"><ele>726.0</ele><time>2026-05-03T06:02:04.219Z</time></trkpt><trkpt lat="41.8493642" lon="2.2011673"><ele>724.5</ele><time>2026-05-03T06:02:05.22Z</time></trkpt><trkpt lat="41.849129" lon="2.2010993"><ele>723.0</ele><time>2026-05-03T06:02:06.219Z</time></trkpt><trkpt lat="41.8488632" lon="2.2010657"><ele>723.0</ele><time>2026-05-03T06:02:07.219Z</time></trkpt><trkpt lat="41.8485697" lon="2.2010647"><ele>723.0</ele><time>2026-05-03T06:02:08.22Z</time></trkpt><trkpt lat="41.8482566" lon="2.2010672"><ele>723.0</ele><time>2026-05-03T06:02:09.219Z</time></trkpt><trkpt lat="41.8479275" lon="2.2010709"><ele>723.0</ele><time>2026-05-03T06:02:10.219Z</time></trkpt><trkpt lat="41.847591" lon="2.2010967"><ele>727.0</ele><time>2026-05-03T06:02:11.219Z</time></trkpt><trkpt lat="41.8472733" lon="2.2011416"><ele>731.0</ele><time>2026-05-03T06:02:12.219Z</time></trkpt><trkpt lat="41.846994" lon="2.2011868"><ele>738.5</ele><time>2026-05-03T06:02:13.218Z</time></trkpt><trkpt lat="41.8467577" lon="2.2012418"><ele>746.0</ele><time>2026-05-03T06:02:14.218Z</time></trkpt><trkpt lat="41.8465565" lon="2.2013479"><ele>737.0</ele><time>2026-05-03T06:02:15.219Z</time></trkpt><trkpt lat="41.8463577" lon="2.2015158"><ele>728.0</ele><time>2026-05-03T06:02:16.219Z</time></trkpt><trkpt lat="41.8461662" lon="2.2017215"><ele>728.0</ele><time>2026-05-03T06:02:17.22Z</time></trkpt><trkpt lat="41.845968" lon="2.2018952"><ele>728.0</ele><time>2026-05-03T06:02:18.22Z</time></trkpt><trkpt lat="41.8457703" lon="2.2020141"><ele>730.3333333333333</ele><time>2026-05-03T06:02:19.218Z</time></trkpt><trkpt lat="41.845572" lon="2.2020677"><ele>732.6666666666666</ele><time>2026-05-03T06:02:20.22Z</time></trkpt><trkpt lat="41.8453704" lon="2.2020529"><ele>735.0</ele><time>2026-05-03T06:02:21.218Z</time></trkpt><trkpt lat="41.8451394" lon="2.2019655"><ele>734.5</ele><time>2026-05-03T06:02:22.219Z</time></trkpt><trkpt lat="41.84488" lon="2.2018381"><ele>734.0</ele><time>2026-05-03T06:02:23.219Z</time></trkpt><trkpt lat="41.8445951" lon="2.2016938"><ele>734.0</ele><time>2026-05-03T06:02:24.219Z</time></trkpt><trkpt lat="41.8442825" lon="2.2015399"><ele>734.0</ele><time>2026-05-03T06:02:25.218Z</time></trkpt><trkpt lat="41.8439551" lon="2.201377"><ele>738.5</ele><time>2026-05-03T06:02:26.219Z</time></trkpt><trkpt lat="41.8436127" lon="2.2012037"><ele>743.0</ele><time>2026-05-03T06:02:27.219Z</time></trkpt><trkpt lat="41.8432924" lon="2.201043"><ele>743.0</ele><time>2026-05-03T06:02:28.219Z</time></trkpt><trkpt lat="41.842996" lon="2.2008933"><ele>743.0</ele><time>2026-05-03T06:02:29.219Z</time></trkpt><trkpt lat="41.8427277" lon="2.2007583"><ele>746.0</ele><time>2026-05-03T06:02:30.218Z</time></trkpt><trkpt lat="41.8424722" lon="2.2006285"><ele>749.0</ele><time>2026-05-03T06:02:31.219Z</time></trkpt><trkpt lat="41.8422233" lon="2.2005055"><ele>749.0</ele><time>2026-05-03T06:02:32.218Z</time></trkpt><trkpt lat="41.8420004" lon="2.2003919"><ele>749.0</ele><time>2026-05-03T06:02:33.218Z</time></trkpt><trkpt lat="41.8418124" lon="2.2002858"><ele>749.0</ele><time>2026-05-03T06:02:34.219Z</time></trkpt><trkpt lat="41.8416607" lon="2.2001642"><ele>747.6666666666666</ele><time>2026-05-03T06:02:35.219Z</time></trkpt><trkpt lat="41.8415403" lon="2.2000177"><ele>746.3333333333334</ele><time>2026-05-03T06:02:36.219Z</time></trkpt><trkpt lat="41.8414551" lon="2.199838"><ele>745.0</ele><time>2026-05-03T06:02:37.219Z</time></trkpt><trkpt lat="41.8414041" lon="2.1996087"><ele>745.0</ele><time>2026-05-03T06:02:38.218Z</time></trkpt><trkpt lat="41.8413806" lon="2.1993241"><ele>745.0</ele><time>2026-05-03T06:02:39.219Z</time></trkpt><trkpt lat="41.841363" lon="2.1989755"><ele>744.5</ele><time>2026-05-03T06:02:40.219Z</time></trkpt><trkpt lat="41.8413437" lon="2.1985939"><ele>744.0</ele><time>2026-05-03T06:02:41.218Z</time></trkpt><trkpt lat="41.8413201" lon="2.1981801"><ele>743.5</ele><time>2026-05-03T06:02:42.218Z</time></trkpt><trkpt lat="41.8412961" lon="2.1977335"><ele>743.0</ele><time>2026-05-03T06:02:43.218Z</time></trkpt><trkpt lat="41.8412716" lon="2.1972646"><ele>744.5</ele><time>2026-05-03T06:02:44.219Z</time></trkpt><trkpt lat="41.8412466" lon="2.1967947"><ele>746.0</ele><time>2026-05-03T06:02:45.219Z</time></trkpt><trkpt lat="41.8412272" lon="2.1963818"><ele>748.5</ele><time>2026-05-03T06:02:46.219Z</time></trkpt><trkpt lat="41.8412102" lon="2.1960138"><ele>751.0</ele><time>2026-05-03T06:02:47.219Z</time></trkpt><trkpt lat="41.8412009" lon="2.1956901"><ele>753.0</ele><time>2026-05-03T06:02:48.218Z</time></trkpt><trkpt lat="41.8411935" lon="2.1954234"><ele>755.0</ele><time>2026-05-03T06:02:49.219Z</time></trkpt><trkpt lat="41.8411807" lon="2.1952131"><ele>757.0</ele><time>2026-05-03T06:02:50.219Z</time></trkpt><trkpt lat="41.8411425" lon="2.1950458"><ele>757.0</ele><time>2026-05-03T06:02:51.218Z</time></trkpt><trkpt lat="41.841057" lon="2.1949268"><ele>757.0</ele><time>2026-05-03T06:02:52.219Z</time></trkpt><trkpt lat="41.8409398" lon="2.1948512"><ele>757.0</ele><time>2026-05-03T06:02:53.218Z</time></trkpt><trkpt lat="41.8408279" lon="2.1948316"><ele>757.0</ele><time>2026-05-03T06:02:54.218Z</time></trkpt><trkpt lat="41.8407257" lon="2.1948845"><ele>754.3333333333334</ele><time>2026-05-03T06:02:55.219Z</time></trkpt><trkpt lat="41.8406285" lon="2.1950011"><ele>751.6666666666666</ele><time>2026-05-03T06:02:56.218Z</time></trkpt><trkpt lat="41.8405354" lon="2.1951894"><ele>749.0</ele><time>2026-05-03T06:02:57.22Z</time></trkpt><trkpt lat="41.8404465" lon="2.195431"><ele>746.3333333333333</ele><time>2026-05-03T06:02:58.22Z</time></trkpt><trkpt lat="41.8403535" lon="2.1956952"><ele>743.6666666666666</ele><time>2026-05-03T06:02:59.219Z</time></trkpt><trkpt lat="41.840237" lon="2.1958861"><ele>741.0</ele><time>2026-05-03T06:03:00.219Z</time></trkpt><trkpt lat="41.8400797" lon="2.1960309"><ele>749.5</ele><time>2026-05-03T06:03:01.219Z</time></trkpt><trkpt lat="41.8398676" lon="2.196142"><ele>758.0</ele><time>2026-05-03T06:03:02.219Z</time></trkpt><trkpt lat="41.8396225" lon="2.1961936"><ele>758.0</ele><time>2026-05-03T06:03:03.218Z</time></trkpt><trkpt lat="41.8393492" lon="2.1962078"><ele>758.0</ele><time>2026-05-03T06:03:04.22Z</time></trkpt><trkpt lat="41.8390651" lon="2.1961901"><ele>764.0</ele><time>2026-05-03T06:03:05.219Z</time></trkpt><trkpt lat="41.838779" lon="2.1961181"><ele>770.0</ele><time>2026-05-03T06:03:06.219Z</time></trkpt><trkpt lat="41.8384827" lon="2.196"><ele>769.5</ele><time>2026-05-03T06:03:07.22Z</time></trkpt><trkpt lat="41.8381753" lon="2.1958621"><ele>769.0</ele><time>2026-05-03T06:03:08.219Z</time></trkpt><trkpt lat="41.8379022" lon="2.1957365"><ele>773.5</ele><time>2026-05-03T06:03:09.219Z</time></trkpt><trkpt lat="41.837673" lon="2.1956283"><ele>778.0</ele><time>2026-05-03T06:03:10.218Z</time></trkpt><trkpt lat="41.837479" lon="2.19551"><ele>778.0</ele><time>2026-05-03T06:03:11.219Z</time></trkpt><trkpt lat="41.8373202" lon="2.195346"><ele>778.0</ele><time>2026-05-03T06:03:12.219Z</time></trkpt><trkpt lat="41.837179" lon="2.1951119"><ele>778.0</ele><time>2026-05-03T06:03:13.218Z</time></trkpt><trkpt lat="41.837038" lon="2.1948221"><ele>777.0</ele><time>2026-05-03T06:03:14.22Z</time></trkpt><trkpt lat="41.8368889" lon="2.1945102"><ele>776.0</ele><time>2026-05-03T06:03:15.219Z</time></trkpt><trkpt lat="41.8367474" lon="2.1942324"><ele>781.6666666666667</ele><time>2026-05-03T06:03:16.218Z</time></trkpt><trkpt lat="41.8366051" lon="2.1940012"><ele>787.3333333333333</ele><time>2026-05-03T06:03:17.219Z</time></trkpt><trkpt lat="41.8364598" lon="2.1938151"><ele>793.0</ele><time>2026-05-03T06:03:18.219Z</time></trkpt><trkpt lat="41.8363332" lon="2.1936666"><ele>793.0</ele><time>2026-05-03T06:03:19.219Z</time></trkpt><trkpt lat="41.8362326" lon="2.1935547"><ele>793.0</ele><time>2026-05-03T06:03:20.219Z</time></trkpt><trkpt lat="41.8361689" lon="2.1934597"><ele>793.0</ele><time>2026-05-03T06:03:21.219Z</time></trkpt><trkpt lat="41.8361542" lon="2.1933612"><ele>793.0</ele><time>2026-05-03T06:03:22.22Z</time></trkpt><trkpt lat="41.8362454" lon="2.1932799"><ele>793.0</ele><time>2026-05-03T06:03:24.219Z</time></trkpt><trkpt lat="41.8363326" lon="2.1933305"><ele>793.0</ele><time>2026-05-03T06:03:25.22Z</time></trkpt><trkpt lat="41.8364556" lon="2.193436"><ele>793.0</ele><time>2026-05-03T06:03:26.219Z</time></trkpt><trkpt lat="41.8366039" lon="2.193583"><ele>793.0</ele><time>2026-05-03T06:03:27.218Z</time></trkpt><trkpt lat="41.836776" lon="2.1937802"><ele>794.5</ele><time>2026-05-03T06:03:28.219Z</time></trkpt><trkpt lat="41.8369633" lon="2.1940125"><ele>796.0</ele><time>2026-05-03T06:03:29.22Z</time></trkpt><trkpt lat="41.8371652" lon="2.1942543"><ele>796.0</ele><time>2026-05-03T06:03:30.219Z</time></trkpt><trkpt lat="41.8373744" lon="2.1944807"><ele>796.0</ele><time>2026-05-03T06:03:31.218Z</time></trkpt><trkpt lat="41.8375951" lon="2.1946636"><ele>793.5</ele><time>2026-05-03T06:03:32.218Z</time></trkpt><trkpt lat="41.8378474" lon="2.1948173"><ele>791.0</ele><time>2026-05-03T06:03:33.219Z</time></trkpt><trkpt lat="41.8381161" lon="2.1949579"><ele>791.0</ele><time>2026-05-03T06:03:34.219Z</time></trkpt><trkpt lat="41.8383617" lon="2.1950799"><ele>791.0</ele><time>2026-05-03T06:03:35.219Z</time></trkpt><trkpt lat="41.8385918" lon="2.1951659"><ele>792.3333333333334</ele><time>2026-05-03T06:03:36.219Z</time></trkpt><trkpt lat="41.8388219" lon="2.1951804"><ele>793.6666666666667</ele><time>2026-05-03T06:03:37.218Z</time></trkpt><trkpt lat="41.8390304" lon="2.1951642"><ele>795.0</ele><time>2026-05-03T06:03:38.219Z</time></trkpt><trkpt lat="41.8391853" lon="2.1951555"><ele>795.0</ele><time>2026-05-03T06:03:39.22Z</time></trkpt><trkpt lat="41.8392831" lon="2.195125"><ele>795.0</ele><time>2026-05-03T06:03:40.219Z</time></trkpt><trkpt lat="41.8393507" lon="2.19505"><ele>795.0</ele><time>2026-05-03T06:03:41.22Z</time></trkpt><trkpt lat="41.8393627" lon="2.1949599"><ele>795.0</ele><time>2026-05-03T06:03:42.219Z</time></trkpt><trkpt lat="41.8393259" lon="2.1948808"><ele>795.0</ele><time>2026-05-03T06:03:43.219Z</time></trkpt><trkpt lat="41.8392464" lon="2.1948406"><ele>795.0</ele><time>2026-05-03T06:03:44.219Z</time></trkpt><trkpt lat="41.8391235" lon="2.1948488"><ele>795.0</ele><time>2026-05-03T06:03:45.22Z</time></trkpt><trkpt lat="41.8389624" lon="2.1948777"><ele>795.0</ele><time>2026-05-03T06:03:46.219Z</time></trkpt><trkpt lat="41.8387674" lon="2.194875"><ele>795.0</ele><time>2026-05-03T06:03:47.219Z</time></trkpt><trkpt lat="41.8385578" lon="2.1948099"><ele>809.0</ele><time>2026-05-03T06:03:48.22Z</time></trkpt><trkpt lat="41.8383287" lon="2.1947021"><ele>823.0</ele><time>2026-05-03T06:03:49.219Z</time></trkpt><trkpt lat="41.8381083" lon="2.194573"><ele>823.0</ele><time>2026-05-03T06:03:50.218Z</time></trkpt><trkpt lat="41.8379345" lon="2.1944177"><ele>823.0</ele><time>2026-05-03T06:03:51.22Z</time></trkpt><trkpt lat="41.8377839" lon="2.1942153"><ele>823.0</ele><time>2026-05-03T06:03:52.219Z</time></trkpt><trkpt lat="41.837633" lon="2.1939518"><ele>821.5</ele><time>2026-05-03T06:03:53.218Z</time></trkpt><trkpt lat="41.8374877" lon="2.1936502"><ele>820.0</ele><time>2026-05-03T06:03:54.219Z</time></trkpt><trkpt lat="41.8373382" lon="2.1933279"><ele>831.0</ele><time>2026-05-03T06:03:55.219Z</time></trkpt><trkpt lat="41.8371598" lon="2.1930129"><ele>842.0</ele><time>2026-05-03T06:03:56.22Z</time></trkpt><trkpt lat="41.8369529" lon="2.1927047"><ele>837.5</ele><time>2026-05-03T06:03:57.218Z</time></trkpt><trkpt lat="41.8367566" lon="2.1924449"><ele>833.0</ele><time>2026-05-03T06:03:58.219Z</time></trkpt><trkpt lat="41.8365791" lon="2.192238"><ele>833.0</ele><time>2026-05-03T06:03:59.218Z</time></trkpt><trkpt lat="41.8364302" lon="2.1920462"><ele>833.0</ele><time>2026-05-03T06:04:00.218Z</time></trkpt><trkpt lat="41.8363257" lon="2.1918141"><ele>833.0</ele><time>2026-05-03T06:04:01.219Z</time></trkpt><trkpt lat="41.8362348" lon="2.1915208"><ele>843.0</ele><time>2026-05-03T06:04:02.219Z</time></trkpt><trkpt lat="41.8361603" lon="2.1911985"><ele>853.0</ele><time>2026-05-03T06:04:03.218Z</time></trkpt><trkpt lat="41.8361222" lon="2.1908735"><ele>858.6666666666666</ele><time>2026-05-03T06:04:04.219Z</time></trkpt><trkpt lat="41.836106" lon="2.1906121"><ele>864.3333333333333</ele><time>2026-05-03T06:04:05.219Z</time></trkpt><trkpt lat="41.8360776" lon="2.1904043"><ele>870.0</ele><time>2026-05-03T06:04:06.219Z</time></trkpt><trkpt lat="41.8360136" lon="2.1902472"><ele>862.0</ele><time>2026-05-03T06:04:07.22Z</time></trkpt><trkpt lat="41.8359288" lon="2.1901385"><ele>854.0</ele><time>2026-05-03T06:04:08.219Z</time></trkpt><trkpt lat="41.8358205" lon="2.1900936"><ele>846.0</ele><time>2026-05-03T06:04:09.219Z</time></trkpt><trkpt lat="41.8356992" lon="2.1901094"><ele>838.0</ele><time>2026-05-03T06:04:10.219Z</time></trkpt><trkpt lat="41.8355819" lon="2.1901944"><ele>838.0</ele><time>2026-05-03T06:04:11.218Z</time></trkpt><trkpt lat="41.8354768" lon="2.1903346"><ele>838.0</ele><time>2026-05-03T06:04:12.219Z</time></trkpt><trkpt lat="41.8353562" lon="2.1904746"><ele>838.0</ele><time>2026-05-03T06:04:13.218Z</time></trkpt><trkpt lat="41.8352149" lon="2.1905557"><ele>843.3333333333333</ele><time>2026-05-03T06:04:14.22Z</time></trkpt><trkpt lat="41.8350625" lon="2.1905868"><ele>848.6666666666667</ele><time>2026-05-03T06:04:15.219Z</time></trkpt><trkpt lat="41.8348961" lon="2.1905662"><ele>854.0</ele><time>2026-05-03T06:04:16.219Z</time></trkpt><trkpt lat="41.8347546" lon="2.1905139"><ele>854.0</ele><time>2026-05-03T06:04:17.219Z</time></trkpt><trkpt lat="41.8346344" lon="2.1904916"><ele>854.0</ele><time>2026-05-03T06:04:18.218Z</time></trkpt><trkpt lat="41.8345237" lon="2.1905262"><ele>854.0</ele><time>2026-05-03T06:04:19.218Z</time></trkpt><trkpt lat="41.8344328" lon="2.1906231"><ele>854.0</ele><time>2026-05-03T06:04:20.218Z</time></trkpt><trkpt lat="41.8343724" lon="2.1907763"><ele>845.6666666666667</ele><time>2026-05-03T06:04:21.218Z</time></trkpt><trkpt lat="41.8343263" lon="2.1909675"><ele>837.3333333333333</ele><time>2026-05-03T06:04:22.219Z</time></trkpt><trkpt lat="41.8343324" lon="2.1912041"><ele>829.0</ele><time>2026-05-03T06:04:23.218Z</time></trkpt><trkpt lat="41.8343082" lon="2.1914206"><ele>834.0</ele><time>2026-05-03T06:04:24.22Z</time></trkpt><trkpt lat="41.8342513" lon="2.1916264"><ele>839.0</ele><time>2026-05-03T06:04:25.219Z</time></trkpt><trkpt lat="41.8341462" lon="2.1918102"><ele>844.0</ele><time>2026-05-03T06:04:26.219Z</time></trkpt><trkpt lat="41.8339973" lon="2.1919833"><ele>844.0</ele><time>2026-05-03T06:04:27.219Z</time></trkpt><trkpt lat="41.8338443" lon="2.1921324"><ele>844.0</ele><time>2026-05-03T06:04:28.219Z</time></trkpt><trkpt lat="41.8337305" lon="2.192286"><ele>844.0</ele><time>2026-05-03T06:04:29.22Z</time></trkpt><trkpt lat="41.8336559" lon="2.1924948"><ele>838.6666666666666</ele><time>2026-05-03T06:04:30.218Z</time></trkpt><trkpt lat="41.8336165" lon="2.192751"><ele>833.3333333333333</ele><time>2026-05-03T06:04:31.219Z</time></trkpt><trkpt lat="41.8336213" lon="2.1930443"><ele>828.0</ele><time>2026-05-03T06:04:32.22Z</time></trkpt><trkpt lat="41.8336574" lon="2.1933581"><ele>826.0</ele><time>2026-05-03T06:04:33.219Z</time></trkpt><trkpt lat="41.8337049" lon="2.1936796"><ele>824.0</ele><time>2026-05-03T06:04:34.219Z</time></trkpt><trkpt lat="41.8337217" lon="2.1939713"><ele>824.0</ele><time>2026-05-03T06:04:35.218Z</time></trkpt><trkpt lat="41.8337028" lon="2.1942572"><ele>824.0</ele><time>2026-05-03T06:04:36.22Z</time></trkpt><trkpt lat="41.833645" lon="2.1945222"><ele>824.0</ele><time>2026-05-03T06:04:37.22Z</time></trkpt><trkpt lat="41.833531" lon="2.1947775"><ele>841.5</ele><time>2026-05-03T06:04:38.219Z</time></trkpt><trkpt lat="41.8333808" lon="2.1950335"><ele>859.0</ele><time>2026-05-03T06:04:39.219Z</time></trkpt><trkpt lat="41.8332434" lon="2.1953265"><ele>859.0</ele><time>2026-05-03T06:04:40.219Z</time></trkpt><trkpt lat="41.833134" lon="2.1956461"><ele>859.0</ele><time>2026-05-03T06:04:41.219Z</time></trkpt><trkpt lat="41.8330318" lon="2.1959216"><ele>858.6666666666666</ele><time>2026-05-03T06:04:42.219Z</time></trkpt><trkpt lat="41.8328988" lon="2.1961424"><ele>858.3333333333333</ele><time>2026-05-03T06:04:43.219Z</time></trkpt><trkpt lat="41.8327251" lon="2.196342"><ele>858.0</ele><time>2026-05-03T06:04:44.219Z</time></trkpt><trkpt lat="41.8325479" lon="2.1965648"><ele>858.0</ele><time>2026-05-03T06:04:45.22Z</time></trkpt><trkpt lat="41.8323804" lon="2.1968039"><ele>858.0</ele><time>2026-05-03T06:04:46.219Z</time></trkpt><trkpt lat="41.8322208" lon="2.196983"><ele>858.0</ele><time>2026-05-03T06:04:47.219Z</time></trkpt><trkpt lat="41.8320368" lon="2.1971082"><ele>858.0</ele><time>2026-05-03T06:04:48.218Z</time></trkpt><trkpt lat="41.8318115" lon="2.1972"><ele>858.0</ele><time>2026-05-03T06:04:49.218Z</time></trkpt><trkpt lat="41.8315692" lon="2.1972702"><ele>867.0</ele><time>2026-05-03T06:04:50.219Z</time></trkpt><trkpt lat="41.8313421" lon="2.1973271"><ele>876.0</ele><time>2026-05-03T06:04:51.22Z</time></trkpt><trkpt lat="41.8311316" lon="2.1973247"><ele>885.0</ele><time>2026-05-03T06:04:52.219Z</time></trkpt><trkpt lat="41.8309088" lon="2.1972533"><ele>888.0</ele><time>2026-05-03T06:04:53.218Z</time></trkpt><trkpt lat="41.8306672" lon="2.1971289"><ele>891.0</ele><time>2026-05-03T06:04:54.22Z</time></trkpt><trkpt lat="41.8304105" lon="2.1969637"><ele>891.0</ele><time>2026-05-03T06:04:55.218Z</time></trkpt><trkpt lat="41.8301586" lon="2.1967504"><ele>891.0</ele><time>2026-05-03T06:04:56.219Z</time></trkpt><trkpt lat="41.8299004" lon="2.1965058"><ele>897.5</ele><time>2026-05-03T06:04:57.219Z</time></trkpt><trkpt lat="41.8296307" lon="2.1962655"><ele>904.0</ele><time>2026-05-03T06:04:58.219Z</time></trkpt><trkpt lat="41.8293499" lon="2.1960411"><ele>905.5</ele><time>2026-05-03T06:04:59.219Z</time></trkpt><trkpt lat="41.8290534" lon="2.1958296"><ele>907.0</ele><time>2026-05-03T06:05:00.218Z</time></trkpt><trkpt lat="41.8287446" lon="2.1956225"><ele>901.0</ele><time>2026-05-03T06:05:01.22Z</time></trkpt><trkpt lat="41.8284288" lon="2.1954097"><ele>895.0</ele><time>2026-05-03T06:05:02.219Z</time></trkpt><trkpt lat="41.8281356" lon="2.1952073"><ele>895.0</ele><time>2026-05-03T06:05:03.22Z</time></trkpt><trkpt lat="41.8278718" lon="2.1950147"><ele>895.0</ele><time>2026-05-03T06:05:04.219Z</time></trkpt><trkpt lat="41.8276379" lon="2.194804"><ele>897.5</ele><time>2026-05-03T06:05:05.22Z</time></trkpt><trkpt lat="41.8274345" lon="2.1945523"><ele>900.0</ele><time>2026-05-03T06:05:06.22Z</time></trkpt><trkpt lat="41.8272665" lon="2.1942984"><ele>900.0</ele><time>2026-05-03T06:05:07.219Z</time></trkpt><trkpt lat="41.8271173" lon="2.1940751"><ele>900.0</ele><time>2026-05-03T06:05:08.221Z</time></trkpt><trkpt lat="41.82698" lon="2.1938881"><ele>900.0</ele><time>2026-05-03T06:05:09.22Z</time></trkpt><trkpt lat="41.8268483" lon="2.1937476"><ele>900.5</ele><time>2026-05-03T06:05:10.219Z</time></trkpt><trkpt lat="41.8267178" lon="2.1936675"><ele>901.0</ele><time>2026-05-03T06:05:11.22Z</time></trkpt><trkpt lat="41.8265838" lon="2.193652"><ele>901.5</ele><time>2026-05-03T06:05:12.22Z</time></trkpt><trkpt lat="41.8264562" lon="2.1936923"><ele>902.0</ele><time>2026-05-03T06:05:13.22Z</time></trkpt><trkpt lat="41.8263612" lon="2.1937766"><ele>902.0</ele><time>2026-05-03T06:05:14.219Z</time></trkpt><trkpt lat="41.8262939" lon="2.1938788"><ele>902.0</ele><time>2026-05-03T06:05:15.219Z</time></trkpt><trkpt lat="41.8262718" lon="2.1940116"><ele>902.0</ele><time>2026-05-03T06:05:16.22Z</time></trkpt><trkpt lat="41.8262939" lon="2.1941567"><ele>902.0</ele><time>2026-05-03T06:05:17.22Z</time></trkpt><trkpt lat="41.8263336" lon="2.1943298"><ele>902.0</ele><time>2026-05-03T06:05:18.22Z</time></trkpt><trkpt lat="41.8263155" lon="2.1945165"><ele>899.3333333333334</ele><time>2026-05-03T06:05:19.219Z</time></trkpt><trkpt lat="41.8262736" lon="2.1947209"><ele>896.6666666666667</ele><time>2026-05-03T06:05:20.221Z</time></trkpt><trkpt lat="41.8262647" lon="2.194947"><ele>894.0</ele><time>2026-05-03T06:05:21.221Z</time></trkpt><trkpt lat="41.8262838" lon="2.1951444"><ele>893.2</ele><time>2026-05-03T06:05:22.22Z</time></trkpt><trkpt lat="41.8262882" lon="2.1952992"><ele>892.4000000000001</ele><time>2026-05-03T06:05:23.219Z</time></trkpt><trkpt lat="41.826246" lon="2.1954167"><ele>891.6</ele><time>2026-05-03T06:05:24.22Z</time></trkpt><trkpt lat="41.8261626" lon="2.1954752"><ele>890.8</ele><time>2026-05-03T06:05:25.219Z</time></trkpt><trkpt lat="41.8260572" lon="2.195463"><ele>890.0</ele><time>2026-05-03T06:05:26.22Z</time></trkpt><trkpt lat="41.8259461" lon="2.1953774"><ele>893.3333333333334</ele><time>2026-05-03T06:05:27.22Z</time></trkpt><trkpt lat="41.825822" lon="2.1952217"><ele>896.6666666666667</ele><time>2026-05-03T06:05:28.219Z</time></trkpt><trkpt lat="41.8256806" lon="2.1950168"><ele>900.0</ele><time>2026-05-03T06:05:29.22Z</time></trkpt><trkpt lat="41.8255185" lon="2.1947807"><ele>900.0</ele><time>2026-05-03T06:05:30.221Z</time></trkpt><trkpt lat="41.8253523" lon="2.1945185"><ele>900.0</ele><time>2026-05-03T06:05:31.221Z</time></trkpt><trkpt lat="41.8252187" lon="2.1942361"><ele>906.5</ele><time>2026-05-03T06:05:32.22Z</time></trkpt><trkpt lat="41.8251178" lon="2.1939344"><ele>913.0</ele><time>2026-05-03T06:05:33.219Z</time></trkpt><trkpt lat="41.8250534" lon="2.1936288"><ele>913.0</ele><time>2026-05-03T06:05:34.219Z</time></trkpt><trkpt lat="41.8250332" lon="2.193346"><ele>913.0</ele><time>2026-05-03T06:05:35.22Z</time></trkpt><trkpt lat="41.8250451" lon="2.1930651"><ele>913.0</ele><time>2026-05-03T06:05:36.219Z</time></trkpt><trkpt lat="41.8251161" lon="2.1927927"><ele>912.0</ele><time>2026-05-03T06:05:37.219Z</time></trkpt><trkpt lat="41.8252294" lon="2.1925354"><ele>911.0</ele><time>2026-05-03T06:05:38.22Z</time></trkpt><trkpt lat="41.8253773" lon="2.1922974"><ele>916.5</ele><time>2026-05-03T06:05:39.22Z</time></trkpt><trkpt lat="41.8255678" lon="2.1920904"><ele>922.0</ele><time>2026-05-03T06:05:40.22Z</time></trkpt><trkpt lat="41.8257916" lon="2.1918957"><ele>922.5</ele><time>2026-05-03T06:05:41.219Z</time></trkpt><trkpt lat="41.8260144" lon="2.1916923"><ele>923.0</ele><time>2026-05-03T06:05:42.22Z</time></trkpt><trkpt lat="41.8262071" lon="2.1914688"><ele>923.0</ele><time>2026-05-03T06:05:43.221Z</time></trkpt><trkpt lat="41.8263735" lon="2.1912175"><ele>923.0</ele><time>2026-05-03T06:05:44.219Z</time></trkpt><trkpt lat="41.8265344" lon="2.1909203"><ele>925.0</ele><time>2026-05-03T06:05:45.219Z</time></trkpt><trkpt lat="41.8267006" lon="2.1905947"><ele>927.0</ele><time>2026-05-03T06:05:46.22Z</time></trkpt><trkpt lat="41.8268693" lon="2.1902677"><ele>927.0</ele><time>2026-05-03T06:05:47.221Z</time></trkpt><trkpt lat="41.8270082" lon="2.1899742"><ele>927.0</ele><time>2026-05-03T06:05:48.22Z</time></trkpt><trkpt lat="41.8271127" lon="2.1896848"><ele>928.5</ele><time>2026-05-03T06:05:49.22Z</time></trkpt><trkpt lat="41.8271872" lon="2.1893825"><ele>930.0</ele><time>2026-05-03T06:05:50.22Z</time></trkpt><trkpt lat="41.8272379" lon="2.1890396"><ele>929.0</ele><time>2026-05-03T06:05:51.22Z</time></trkpt><trkpt lat="41.8272737" lon="2.1886455"><ele>928.0</ele><time>2026-05-03T06:05:52.22Z</time></trkpt><trkpt lat="41.8273083" lon="2.1882102"><ele>927.0</ele><time>2026-05-03T06:05:53.22Z</time></trkpt><trkpt lat="41.8273465" lon="2.1877353"><ele>926.0</ele><time>2026-05-03T06:05:54.221Z</time></trkpt><trkpt lat="41.8273844" lon="2.1872384"><ele>925.5</ele><time>2026-05-03T06:05:55.221Z</time></trkpt><trkpt lat="41.8274249" lon="2.1867528"><ele>925.0</ele><time>2026-05-03T06:05:56.22Z</time></trkpt><trkpt lat="41.8274646" lon="2.186304"><ele>924.5</ele><time>2026-05-03T06:05:57.22Z</time></trkpt><trkpt lat="41.827501" lon="2.1858863"><ele>924.0</ele><time>2026-05-03T06:05:58.22Z</time></trkpt><trkpt lat="41.8275245" lon="2.1854976"><ele>924.0</ele><time>2026-05-03T06:05:59.219Z</time></trkpt><trkpt lat="41.8275156" lon="2.1851279"><ele>924.0</ele><time>2026-05-03T06:06:00.22Z</time></trkpt><trkpt lat="41.8274732" lon="2.1847505"><ele>921.0</ele><time>2026-05-03T06:06:01.22Z</time></trkpt><trkpt lat="41.8273938" lon="2.1843526"><ele>918.0</ele><time>2026-05-03T06:06:02.22Z</time></trkpt><trkpt lat="41.8273397" lon="2.1839302"><ele>915.0</ele><time>2026-05-03T06:06:03.22Z</time></trkpt><trkpt lat="41.8273252" lon="2.1834845"><ele>912.0</ele><time>2026-05-03T06:06:04.221Z</time></trkpt><trkpt lat="41.8273268" lon="2.1830104"><ele>910.5</ele><time>2026-05-03T06:06:05.22Z</time></trkpt><trkpt lat="41.8273247" lon="2.1825156"><ele>909.0</ele><time>2026-05-03T06:06:06.22Z</time></trkpt><trkpt lat="41.8273282" lon="2.1820326"><ele>908.5</ele><time>2026-05-03T06:06:07.22Z</time></trkpt><trkpt lat="41.8273296" lon="2.1815902"><ele>908.0</ele><time>2026-05-03T06:06:08.22Z</time></trkpt><trkpt lat="41.8273328" lon="2.1811862"><ele>908.0</ele><time>2026-05-03T06:06:09.219Z</time></trkpt><trkpt lat="41.827339" lon="2.1808208"><ele>908.0</ele><time>2026-05-03T06:06:10.22Z</time></trkpt><trkpt lat="41.8273512" lon="2.1805038"><ele>908.0</ele><time>2026-05-03T06:06:11.22Z</time></trkpt><trkpt lat="41.8273828" lon="2.1802145"><ele>908.0</ele><time>2026-05-03T06:06:12.219Z</time></trkpt><trkpt lat="41.8274429" lon="2.1799392"><ele>908.0</ele><time>2026-05-03T06:06:13.219Z</time></trkpt><trkpt lat="41.8275387" lon="2.17969"><ele>907.3333333333334</ele><time>2026-05-03T06:06:14.219Z</time></trkpt><trkpt lat="41.827672" lon="2.179467"><ele>906.6666666666667</ele><time>2026-05-03T06:06:15.22Z</time></trkpt><trkpt lat="41.8278414" lon="2.1792503"><ele>906.0</ele><time>2026-05-03T06:06:16.219Z</time></trkpt><trkpt lat="41.8280106" lon="2.1790245"><ele>905.3333333333333</ele><time>2026-05-03T06:06:17.221Z</time></trkpt><trkpt lat="41.828153" lon="2.1787935"><ele>904.6666666666666</ele><time>2026-05-03T06:06:18.219Z</time></trkpt><trkpt lat="41.8282581" lon="2.1785619"><ele>904.0</ele><time>2026-05-03T06:06:19.22Z</time></trkpt><trkpt lat="41.8283295" lon="2.1783313"><ele>903.6666666666666</ele><time>2026-05-03T06:06:20.221Z</time></trkpt><trkpt lat="41.8283642" lon="2.1781048"><ele>903.3333333333333</ele><time>2026-05-03T06:06:21.221Z</time></trkpt><trkpt lat="41.8283631" lon="2.1778792"><ele>903.0</ele><time>2026-05-03T06:06:22.22Z</time></trkpt><trkpt lat="41.8283366" lon="2.1776472"><ele>903.0</ele><time>2026-05-03T06:06:23.219Z</time></trkpt><trkpt lat="41.8282935" lon="2.1774136"><ele>903.0</ele><time>2026-05-03T06:06:24.219Z</time></trkpt><trkpt lat="41.8282454" lon="2.1771802"><ele>903.0</ele><time>2026-05-03T06:06:25.22Z</time></trkpt><trkpt lat="41.8281979" lon="2.1769397"><ele>903.3333333333333</ele><time>2026-05-03T06:06:26.22Z</time></trkpt><trkpt lat="41.828147" lon="2.176693"><ele>903.6666666666666</ele><time>2026-05-03T06:06:27.22Z</time></trkpt><trkpt lat="41.828099" lon="2.1764453"><ele>904.0</ele><time>2026-05-03T06:06:28.22Z</time></trkpt><trkpt lat="41.8280485" lon="2.1762002"><ele>904.0</ele><time>2026-05-03T06:06:29.22Z</time></trkpt><trkpt lat="41.8279959" lon="2.1759576"><ele>904.0</ele><time>2026-05-03T06:06:30.22Z</time></trkpt><trkpt lat="41.8279458" lon="2.1757103"><ele>904.0</ele><time>2026-05-03T06:06:31.221Z</time></trkpt><trkpt lat="41.8278974" lon="2.1754594"><ele>903.3333333333333</ele><time>2026-05-03T06:06:32.22Z</time></trkpt><trkpt lat="41.8278476" lon="2.1752096"><ele>902.6666666666667</ele><time>2026-05-03T06:06:33.22Z</time></trkpt><trkpt lat="41.8277981" lon="2.1749568"><ele>902.0</ele><time>2026-05-03T06:06:34.22Z</time></trkpt><trkpt lat="41.8277436" lon="2.1747079"><ele>901.0</ele><time>2026-05-03T06:06:35.22Z</time></trkpt><trkpt lat="41.8276944" lon="2.1744595"><ele>900.0</ele><time>2026-05-03T06:06:36.22Z</time></trkpt><trkpt lat="41.8276507" lon="2.1742113"><ele>899.0</ele><time>2026-05-03T06:06:37.221Z</time></trkpt><trkpt lat="41.8275865" lon="2.1739569"><ele>897.5</ele><time>2026-05-03T06:06:38.219Z</time></trkpt><trkpt lat="41.8275113" lon="2.1736706"><ele>896.0</ele><time>2026-05-03T06:06:39.22Z</time></trkpt><trkpt lat="41.8274256" lon="2.1733558"><ele>895.5</ele><time>2026-05-03T06:06:40.22Z</time></trkpt><trkpt lat="41.8273007" lon="2.1730298"><ele>895.0</ele><time>2026-05-03T06:06:41.219Z</time></trkpt><trkpt lat="41.8271185" lon="2.1726917"><ele>895.5</ele><time>2026-05-03T06:06:42.219Z</time></trkpt><trkpt lat="41.8269109" lon="2.1723375"><ele>896.0</ele><time>2026-05-03T06:06:43.22Z</time></trkpt><trkpt lat="41.826686" lon="2.1719598"><ele>892.5</ele><time>2026-05-03T06:06:44.219Z</time></trkpt><trkpt lat="41.8264719" lon="2.1715989"><ele>889.0</ele><time>2026-05-03T06:06:45.22Z</time></trkpt><trkpt lat="41.8262816" lon="2.1712866"><ele>888.0</ele><time>2026-05-03T06:06:46.219Z</time></trkpt><trkpt lat="41.8261126" lon="2.1710109"><ele>887.0</ele><time>2026-05-03T06:06:47.219Z</time></trkpt><trkpt lat="41.8259681" lon="2.1707724"><ele>885.6666666666667</ele><time>2026-05-03T06:06:48.219Z</time></trkpt><trkpt lat="41.8258563" lon="2.1705698"><ele>884.3333333333333</ele><time>2026-05-03T06:06:49.22Z</time></trkpt><trkpt lat="41.8257865" lon="2.1703774"><ele>883.0</ele><time>2026-05-03T06:06:50.22Z</time></trkpt><trkpt lat="41.8257666" lon="2.1701813"><ele>883.0</ele><time>2026-05-03T06:06:51.219Z</time></trkpt><trkpt lat="41.8258009" lon="2.1699803"><ele>883.0</ele><time>2026-05-03T06:06:52.22Z</time></trkpt><trkpt lat="41.825897" lon="2.1697834"><ele>883.0</ele><time>2026-05-03T06:06:53.22Z</time></trkpt><trkpt lat="41.8260441" lon="2.1695745"><ele>882.6666666666666</ele><time>2026-05-03T06:06:54.22Z</time></trkpt><trkpt lat="41.8262228" lon="2.1693516"><ele>882.3333333333333</ele><time>2026-05-03T06:06:55.22Z</time></trkpt><trkpt lat="41.8263747" lon="2.16917"><ele>882.0</ele><time>2026-05-03T06:06:56.219Z</time></trkpt><trkpt lat="41.826502" lon="2.1689919"><ele>881.0</ele><time>2026-05-03T06:06:57.219Z</time></trkpt><trkpt lat="41.8265873" lon="2.1688012"><ele>880.0</ele><time>2026-05-03T06:06:58.22Z</time></trkpt><trkpt lat="41.8266326" lon="2.1686031"><ele>879.0</ele><time>2026-05-03T06:06:59.219Z</time></trkpt><trkpt lat="41.8266259" lon="2.1683861"><ele>879.6666666666667</ele><time>2026-05-03T06:07:00.22Z</time></trkpt><trkpt lat="41.8265731" lon="2.1681662"><ele>880.3333333333334</ele><time>2026-05-03T06:07:01.221Z</time></trkpt><trkpt lat="41.8264861" lon="2.167954"><ele>881.0</ele><time>2026-05-03T06:07:02.219Z</time></trkpt><trkpt lat="41.8263637" lon="2.1677693"><ele>881.0</ele><time>2026-05-03T06:07:03.22Z</time></trkpt><trkpt lat="41.8262098" lon="2.1676156"><ele>881.0</ele><time>2026-05-03T06:07:04.221Z</time></trkpt><trkpt lat="41.8260433" lon="2.1674634"><ele>881.0</ele><time>2026-05-03T06:07:05.22Z</time></trkpt><trkpt lat="41.8258802" lon="2.1673071"><ele>879.6666666666667</ele><time>2026-05-03T06:07:06.221Z</time></trkpt><trkpt lat="41.8257229" lon="2.1671586"><ele>878.3333333333333</ele><time>2026-05-03T06:07:07.22Z</time></trkpt><trkpt lat="41.8255683" lon="2.1670149"><ele>877.0</ele><time>2026-05-03T06:07:08.22Z</time></trkpt><trkpt lat="41.8254178" lon="2.1668739"><ele>877.0</ele><time>2026-05-03T06:07:09.22Z</time></trkpt><trkpt lat="41.8252714" lon="2.1667344"><ele>877.0</ele><time>2026-05-03T06:07:10.221Z</time></trkpt><trkpt lat="41.8251279" lon="2.1665979"><ele>877.0</ele><time>2026-05-03T06:07:11.22Z</time></trkpt><trkpt lat="41.8249862" lon="2.1664642"><ele>876.6666666666666</ele><time>2026-05-03T06:07:12.22Z</time></trkpt><trkpt lat="41.8248465" lon="2.1663293"><ele>876.3333333333333</ele><time>2026-05-03T06:07:13.22Z</time></trkpt><trkpt lat="41.8247078" lon="2.166195"><ele>876.0</ele><time>2026-05-03T06:07:14.22Z</time></trkpt><trkpt lat="41.8245672" lon="2.1660609"><ele>876.0</ele><time>2026-05-03T06:07:15.22Z</time></trkpt><trkpt lat="41.8244269" lon="2.1659278"><ele>876.0</ele><time>2026-05-03T06:07:16.22Z</time></trkpt><trkpt lat="41.8242914" lon="2.1657851"><ele>876.0</ele><time>2026-05-03T06:07:17.219Z</time></trkpt><trkpt lat="41.8241702" lon="2.1656257"><ele>873.6666666666667</ele><time>2026-05-03T06:07:18.22Z</time></trkpt><trkpt lat="41.8240597" lon="2.1654312"><ele>871.3333333333334</ele><time>2026-05-03T06:07:19.221Z</time></trkpt><trkpt lat="41.8239576" lon="2.1651983"><ele>869.0</ele><time>2026-05-03T06:07:20.219Z</time></trkpt><trkpt lat="41.8238641" lon="2.164922"><ele>867.5</ele><time>2026-05-03T06:07:21.22Z</time></trkpt><trkpt lat="41.8237618" lon="2.1646048"><ele>866.0</ele><time>2026-05-03T06:07:22.22Z</time></trkpt><trkpt lat="41.8236448" lon="2.1642393"><ele>867.5</ele><time>2026-05-03T06:07:23.219Z</time></trkpt><trkpt lat="41.8235153" lon="2.1638383"><ele>869.0</ele><time>2026-05-03T06:07:24.22Z</time></trkpt><trkpt lat="41.823379" lon="2.1634133"><ele>864.5</ele><time>2026-05-03T06:07:25.221Z</time></trkpt><trkpt lat="41.8232559" lon="2.1630203"><ele>860.0</ele><time>2026-05-03T06:07:26.22Z</time></trkpt><trkpt lat="41.8231326" lon="2.1626584"><ele>860.5</ele><time>2026-05-03T06:07:27.221Z</time></trkpt><trkpt lat="41.8229918" lon="2.1623425"><ele>861.0</ele><time>2026-05-03T06:07:28.22Z</time></trkpt><trkpt lat="41.8228315" lon="2.1620431"><ele>861.0</ele><time>2026-05-03T06:07:29.22Z</time></trkpt><trkpt lat="41.8226744" lon="2.1618032"><ele>861.0</ele><time>2026-05-03T06:07:30.219Z</time></trkpt><trkpt lat="41.8225031" lon="2.1616093"><ele>860.0</ele><time>2026-05-03T06:07:31.221Z</time></trkpt><trkpt lat="41.8222891" lon="2.1614645"><ele>859.0</ele><time>2026-05-03T06:07:32.22Z</time></trkpt><trkpt lat="41.8220368" lon="2.1613457"><ele>857.3333333333333</ele><time>2026-05-03T06:07:33.22Z</time></trkpt><trkpt lat="41.8218067" lon="2.1612619"><ele>855.6666666666667</ele><time>2026-05-03T06:07:34.221Z</time></trkpt><trkpt lat="41.8216091" lon="2.1611826"><ele>854.0</ele><time>2026-05-03T06:07:35.22Z</time></trkpt><trkpt lat="41.821443" lon="2.1610865"><ele>854.0</ele><time>2026-05-03T06:07:36.22Z</time></trkpt><trkpt lat="41.8213036" lon="2.1609635"><ele>854.0</ele><time>2026-05-03T06:07:37.22Z</time></trkpt><trkpt lat="41.8212198" lon="2.1607386"><ele>854.0</ele><time>2026-05-03T06:07:38.22Z</time></trkpt><trkpt lat="41.8211477" lon="2.1604566"><ele>857.0</ele><time>2026-05-03T06:07:39.22Z</time></trkpt><trkpt lat="41.8210816" lon="2.1601324"><ele>860.0</ele><time>2026-05-03T06:07:40.22Z</time></trkpt><trkpt lat="41.8210114" lon="2.1597999"><ele>856.3333333333334</ele><time>2026-05-03T06:07:41.22Z</time></trkpt><trkpt lat="41.8209529" lon="2.159518"><ele>852.6666666666667</ele><time>2026-05-03T06:07:42.219Z</time></trkpt><trkpt lat="41.8208874" lon="2.1592764"><ele>849.0</ele><time>2026-05-03T06:07:43.22Z</time></trkpt><trkpt lat="41.8207867" lon="2.1590805"><ele>851.6666666666667</ele><time>2026-05-03T06:07:44.219Z</time></trkpt><trkpt lat="41.8206293" lon="2.1589216"><ele>854.3333333333334</ele><time>2026-05-03T06:07:45.219Z</time></trkpt><trkpt lat="41.8204196" lon="2.1587756"><ele>857.0</ele><time>2026-05-03T06:07:46.22Z</time></trkpt><trkpt lat="41.8201725" lon="2.1586373"><ele>853.5</ele><time>2026-05-03T06:07:47.22Z</time></trkpt><trkpt lat="41.8199049" lon="2.1584979"><ele>850.0</ele><time>2026-05-03T06:07:48.22Z</time></trkpt><trkpt lat="41.8196839" lon="2.1583744"><ele>850.0</ele><time>2026-05-03T06:07:49.22Z</time></trkpt><trkpt lat="41.8194866" lon="2.15823"><ele>850.0</ele><time>2026-05-03T06:07:50.221Z</time></trkpt><trkpt lat="41.8193203" lon="2.1580338"><ele>850.0</ele><time>2026-05-03T06:07:51.22Z</time></trkpt><trkpt lat="41.8191724" lon="2.1577652"><ele>850.5</ele><time>2026-05-03T06:07:52.22Z</time></trkpt><trkpt lat="41.8190286" lon="2.1574335"><ele>851.0</ele><time>2026-05-03T06:07:53.221Z</time></trkpt><trkpt lat="41.8188732" lon="2.1570588"><ele>851.0</ele><time>2026-05-03T06:07:54.22Z</time></trkpt><trkpt lat="41.8187026" lon="2.1566482"><ele>851.0</ele><time>2026-05-03T06:07:55.22Z</time></trkpt><trkpt lat="41.8185185" lon="2.1562149"><ele>849.0</ele><time>2026-05-03T06:07:56.221Z</time></trkpt><trkpt lat="41.8183225" lon="2.1557564"><ele>847.0</ele><time>2026-05-03T06:07:57.22Z</time></trkpt><trkpt lat="41.818118" lon="2.1552817"><ele>845.5</ele><time>2026-05-03T06:07:58.22Z</time></trkpt><trkpt lat="41.8179073" lon="2.1547891"><ele>844.0</ele><time>2026-05-03T06:07:59.219Z</time></trkpt><trkpt lat="41.8176942" lon="2.1542837"><ele>840.5</ele><time>2026-05-03T06:08:00.221Z</time></trkpt><trkpt lat="41.8174832" lon="2.1537738"><ele>837.0</ele><time>2026-05-03T06:08:01.219Z</time></trkpt><trkpt lat="41.8172879" lon="2.1533083"><ele>837.0</ele><time>2026-05-03T06:08:02.219Z</time></trkpt><trkpt lat="41.8170998" lon="2.1528708"><ele>837.0</ele><time>2026-05-03T06:08:03.22Z</time></trkpt><trkpt lat="41.8169132" lon="2.1524455"><ele>834.0</ele><time>2026-05-03T06:08:04.219Z</time></trkpt><trkpt lat="41.8167327" lon="2.1520476"><ele>831.0</ele><time>2026-05-03T06:08:05.22Z</time></trkpt><trkpt lat="41.8165652" lon="2.15168"><ele>830.0</ele><time>2026-05-03T06:08:06.221Z</time></trkpt><trkpt lat="41.8164118" lon="2.1513443"><ele>829.0</ele><time>2026-05-03T06:08:07.219Z</time></trkpt><trkpt lat="41.8162705" lon="2.151037"><ele>829.0</ele><time>2026-05-03T06:08:08.22Z</time></trkpt><trkpt lat="41.8161507" lon="2.1507777"><ele>829.0</ele><time>2026-05-03T06:08:09.22Z</time></trkpt><trkpt lat="41.8160542" lon="2.1505493"><ele>829.0</ele><time>2026-05-03T06:08:10.221Z</time></trkpt><trkpt lat="41.8159923" lon="2.1503318"><ele>828.0</ele><time>2026-05-03T06:08:11.22Z</time></trkpt><trkpt lat="41.8159952" lon="2.1500947"><ele>827.0</ele><time>2026-05-03T06:08:12.22Z</time></trkpt><trkpt lat="41.8160478" lon="2.1498537"><ele>826.0</ele><time>2026-05-03T06:08:13.219Z</time></trkpt><trkpt lat="41.8161469" lon="2.1496375"><ele>824.0</ele><time>2026-05-03T06:08:14.219Z</time></trkpt><trkpt lat="41.8162983" lon="2.1494319"><ele>822.0</ele><time>2026-05-03T06:08:15.22Z</time></trkpt><trkpt lat="41.8164934" lon="2.1492329"><ele>820.0</ele><time>2026-05-03T06:08:16.22Z</time></trkpt><trkpt lat="41.8167069" lon="2.1490224"><ele>818.0</ele><time>2026-05-03T06:08:17.219Z</time></trkpt><trkpt lat="41.8168795" lon="2.1488133"><ele>817.0</ele><time>2026-05-03T06:08:18.22Z</time></trkpt><trkpt lat="41.8170217" lon="2.1486118"><ele>816.0</ele><time>2026-05-03T06:08:19.219Z</time></trkpt><trkpt lat="41.8171284" lon="2.148423"><ele>815.0</ele><time>2026-05-03T06:08:20.221Z</time></trkpt><trkpt lat="41.8171962" lon="2.148234"><ele>815.0</ele><time>2026-05-03T06:08:21.219Z</time></trkpt><trkpt lat="41.8172213" lon="2.1480331"><ele>815.0</ele><time>2026-05-03T06:08:22.221Z</time></trkpt><trkpt lat="41.8171917" lon="2.1478323"><ele>815.0</ele><time>2026-05-03T06:08:23.22Z</time></trkpt><trkpt lat="41.8171104" lon="2.1476202"><ele>815.0</ele><time>2026-05-03T06:08:24.219Z</time></trkpt><trkpt lat="41.816991" lon="2.1473952"><ele>815.0</ele><time>2026-05-03T06:08:25.22Z</time></trkpt><trkpt lat="41.8169018" lon="2.1471873"><ele>815.0</ele><time>2026-05-03T06:08:26.219Z</time></trkpt><trkpt lat="41.8168512" lon="2.1469886"><ele>813.6666666666667</ele><time>2026-05-03T06:08:27.22Z</time></trkpt><trkpt lat="41.8168472" lon="2.1467844"><ele>812.3333333333333</ele><time>2026-05-03T06:08:28.219Z</time></trkpt><trkpt lat="41.8168856" lon="2.1465708"><ele>811.0</ele><time>2026-05-03T06:08:29.22Z</time></trkpt><trkpt lat="41.8169724" lon="2.1463776"><ele>809.3333333333333</ele><time>2026-05-03T06:08:30.22Z</time></trkpt><trkpt lat="41.8170884" lon="2.1461966"><ele>807.6666666666667</ele><time>2026-05-03T06:08:31.22Z</time></trkpt><trkpt lat="41.8171852" lon="2.145987"><ele>806.0</ele><time>2026-05-03T06:08:32.22Z</time></trkpt><trkpt lat="41.8172461" lon="2.1457766"><ele>805.3333333333334</ele><time>2026-05-03T06:08:33.22Z</time></trkpt><trkpt lat="41.8172566" lon="2.145551"><ele>804.6666666666667</ele><time>2026-05-03T06:08:34.22Z</time></trkpt><trkpt lat="41.8172161" lon="2.1452934"><ele>804.0</ele><time>2026-05-03T06:08:35.22Z</time></trkpt><trkpt lat="41.8171352" lon="2.1449878"><ele>803.0</ele><time>2026-05-03T06:08:36.22Z</time></trkpt><trkpt lat="41.8170268" lon="2.1446309"><ele>802.0</ele><time>2026-05-03T06:08:37.219Z</time></trkpt><trkpt lat="41.8169051" lon="2.1442267"><ele>799.0</ele><time>2026-05-03T06:08:38.22Z</time></trkpt><trkpt lat="41.8167752" lon="2.1437953"><ele>796.0</ele><time>2026-05-03T06:08:39.219Z</time></trkpt><trkpt lat="41.8166623" lon="2.1434105"><ele>796.0</ele><time>2026-05-03T06:08:40.22Z</time></trkpt><trkpt lat="41.8165582" lon="2.1430772"><ele>796.0</ele><time>2026-05-03T06:08:41.22Z</time></trkpt><trkpt lat="41.816426" lon="2.142786"><ele>796.0</ele><time>2026-05-03T06:08:42.219Z</time></trkpt><trkpt lat="41.8162487" lon="2.1425103"><ele>796.0</ele><time>2026-05-03T06:08:43.219Z</time></trkpt><trkpt lat="41.8160291" lon="2.1422281"><ele>793.0</ele><time>2026-05-03T06:08:44.221Z</time></trkpt><trkpt lat="41.8157912" lon="2.1419263"><ele>790.0</ele><time>2026-05-03T06:08:45.22Z</time></trkpt><trkpt lat="41.8155786" lon="2.1416478"><ele>790.0</ele><time>2026-05-03T06:08:46.22Z</time></trkpt><trkpt lat="41.8153854" lon="2.1414006"><ele>790.0</ele><time>2026-05-03T06:08:47.22Z</time></trkpt><trkpt lat="41.8152238" lon="2.1411912"><ele>788.3333333333333</ele><time>2026-05-03T06:08:48.22Z</time></trkpt><trkpt lat="41.8150937" lon="2.1410063"><ele>786.6666666666667</ele><time>2026-05-03T06:08:49.22Z</time></trkpt><trkpt lat="41.8150025" lon="2.1408153"><ele>785.0</ele><time>2026-05-03T06:08:50.219Z</time></trkpt><trkpt lat="41.8149617" lon="2.1405875"><ele>783.3333333333334</ele><time>2026-05-03T06:08:51.219Z</time></trkpt><trkpt lat="41.8149689" lon="2.1403145"><ele>781.6666666666667</ele><time>2026-05-03T06:08:52.22Z</time></trkpt><trkpt lat="41.815006" lon="2.1400288"><ele>780.0</ele><time>2026-05-03T06:08:53.219Z</time></trkpt><trkpt lat="41.8150483" lon="2.1397959"><ele>778.25</ele><time>2026-05-03T06:08:54.221Z</time></trkpt><trkpt lat="41.8151141" lon="2.1396097"><ele>776.5</ele><time>2026-05-03T06:08:55.221Z</time></trkpt><trkpt lat="41.8152087" lon="2.1394761"><ele>774.75</ele><time>2026-05-03T06:08:56.219Z</time></trkpt><trkpt lat="41.8153388" lon="2.1393935"><ele>773.0</ele><time>2026-05-03T06:08:57.22Z</time></trkpt><trkpt lat="41.8155079" lon="2.1393456"><ele>773.0</ele><time>2026-05-03T06:08:58.219Z</time></trkpt><trkpt lat="41.815684" lon="2.1392746"><ele>773.0</ele><time>2026-05-03T06:08:59.221Z</time></trkpt><trkpt lat="41.8158434" lon="2.1391503"><ele>773.0</ele><time>2026-05-03T06:09:00.22Z</time></trkpt><trkpt lat="41.8159817" lon="2.1389636"><ele>773.0</ele><time>2026-05-03T06:09:01.219Z</time></trkpt><trkpt lat="41.8160855" lon="2.1387252"><ele>773.0</ele><time>2026-05-03T06:09:02.22Z</time></trkpt><trkpt lat="41.8161473" lon="2.1384647"><ele>773.0</ele><time>2026-05-03T06:09:03.219Z</time></trkpt><trkpt lat="41.8161632" lon="2.1381918"><ele>773.0</ele><time>2026-05-03T06:09:04.22Z</time></trkpt><trkpt lat="41.8161345" lon="2.1379186"><ele>773.0</ele><time>2026-05-03T06:09:05.22Z</time></trkpt><trkpt lat="41.8160491" lon="2.1376602"><ele>773.0</ele><time>2026-05-03T06:09:06.22Z</time></trkpt><trkpt lat="41.8159133" lon="2.1373958"><ele>771.5</ele><time>2026-05-03T06:09:07.221Z</time></trkpt><trkpt lat="41.8157569" lon="2.137115"><ele>770.0</ele><time>2026-05-03T06:09:08.221Z</time></trkpt><trkpt lat="41.8156195" lon="2.1367902"><ele>768.5</ele><time>2026-05-03T06:09:09.222Z</time></trkpt><trkpt lat="41.8155079" lon="2.1364271"><ele>767.0</ele><time>2026-05-03T06:09:10.221Z</time></trkpt><trkpt lat="41.8154142" lon="2.1360218"><ele>764.5</ele><time>2026-05-03T06:09:11.22Z</time></trkpt><trkpt lat="41.8153265" lon="2.1355836"><ele>762.0</ele><time>2026-05-03T06:09:12.221Z</time></trkpt><trkpt lat="41.8152383" lon="2.1351238"><ele>757.5</ele><time>2026-05-03T06:09:13.22Z</time></trkpt><trkpt lat="41.8151439" lon="2.1346438"><ele>753.0</ele><time>2026-05-03T06:09:14.221Z</time></trkpt><trkpt lat="41.815047" lon="2.1341724"><ele>751.5</ele><time>2026-05-03T06:09:15.221Z</time></trkpt><trkpt lat="41.8149582" lon="2.1337313"><ele>750.0</ele><time>2026-05-03T06:09:16.221Z</time></trkpt><trkpt lat="41.8148718" lon="2.1333118"><ele>749.5</ele><time>2026-05-03T06:09:17.221Z</time></trkpt><trkpt lat="41.8147892" lon="2.1329"><ele>749.0</ele><time>2026-05-03T06:09:18.221Z</time></trkpt><trkpt lat="41.8147079" lon="2.1325"><ele>748.0</ele><time>2026-05-03T06:09:19.222Z</time></trkpt><trkpt lat="41.8146287" lon="2.1321027"><ele>747.0</ele><time>2026-05-03T06:09:20.22Z</time></trkpt><trkpt lat="41.8145503" lon="2.1317107"><ele>745.0</ele><time>2026-05-03T06:09:21.221Z</time></trkpt><trkpt lat="41.8144711" lon="2.1313214"><ele>743.0</ele><time>2026-05-03T06:09:22.22Z</time></trkpt><trkpt lat="41.8143919" lon="2.1309358"><ele>741.0</ele><time>2026-05-03T06:09:23.221Z</time></trkpt><trkpt lat="41.8143127" lon="2.1305514"><ele>739.0</ele><time>2026-05-03T06:09:24.22Z</time></trkpt><trkpt lat="41.8142332" lon="2.1301666"><ele>737.0</ele><time>2026-05-03T06:09:25.221Z</time></trkpt><trkpt lat="41.8141597" lon="2.1297753"><ele>735.0</ele><time>2026-05-03T06:09:26.222Z</time></trkpt><trkpt lat="41.8141035" lon="2.1293688"><ele>735.0</ele><time>2026-05-03T06:09:27.22Z</time></trkpt><trkpt lat="41.8140703" lon="2.1289434"><ele>735.0</ele><time>2026-05-03T06:09:28.221Z</time></trkpt><trkpt lat="41.8140496" lon="2.1284942"><ele>733.0</ele><time>2026-05-03T06:09:29.221Z</time></trkpt><trkpt lat="41.8140255" lon="2.1280235"><ele>731.0</ele><time>2026-05-03T06:09:30.221Z</time></trkpt><trkpt lat="41.8139985" lon="2.1275288"><ele>730.0</ele><time>2026-05-03T06:09:31.221Z</time></trkpt><trkpt lat="41.8139689" lon="2.1270098"><ele>729.0</ele><time>2026-05-03T06:09:32.22Z</time></trkpt><trkpt lat="41.8139381" lon="2.1264681"><ele>728.0</ele><time>2026-05-03T06:09:33.22Z</time></trkpt><trkpt lat="41.813907" lon="2.125908"><ele>727.0</ele><time>2026-05-03T06:09:34.221Z</time></trkpt><trkpt lat="41.8138784" lon="2.1253892"><ele>726.0</ele><time>2026-05-03T06:09:35.221Z</time></trkpt><trkpt lat="41.8138529" lon="2.1249107"><ele>725.0</ele><time>2026-05-03T06:09:36.221Z</time></trkpt><trkpt lat="41.8138319" lon="2.1244642"><ele>721.0</ele><time>2026-05-03T06:09:37.221Z</time></trkpt><trkpt lat="41.8138122" lon="2.1240494"><ele>717.0</ele><time>2026-05-03T06:09:38.22Z</time></trkpt><trkpt lat="41.8137916" lon="2.1236601"><ele>717.0</ele><time>2026-05-03T06:09:39.222Z</time></trkpt><trkpt lat="41.813771" lon="2.1232816"><ele>717.0</ele><time>2026-05-03T06:09:40.221Z</time></trkpt><trkpt lat="41.8137508" lon="2.12291"><ele>716.5</ele><time>2026-05-03T06:09:41.221Z</time></trkpt><trkpt lat="41.8137311" lon="2.1225372"><ele>716.0</ele><time>2026-05-03T06:09:42.221Z</time></trkpt><trkpt lat="41.8137092" lon="2.1221653"><ele>714.0</ele><time>2026-05-03T06:09:43.221Z</time></trkpt><trkpt lat="41.813685" lon="2.1217911"><ele>712.0</ele><time>2026-05-03T06:09:44.221Z</time></trkpt><trkpt lat="41.8136601" lon="2.1214168"><ele>711.0</ele><time>2026-05-03T06:09:45.222Z</time></trkpt><trkpt lat="41.8136355" lon="2.1210365"><ele>710.0</ele><time>2026-05-03T06:09:46.221Z</time></trkpt><trkpt lat="41.813613" lon="2.1206515"><ele>710.0</ele><time>2026-05-03T06:09:47.221Z</time></trkpt><trkpt lat="41.8135934" lon="2.1202589"><ele>710.0</ele><time>2026-05-03T06:09:48.221Z</time></trkpt><trkpt lat="41.8135736" lon="2.1198532"><ele>708.5</ele><time>2026-05-03T06:09:49.22Z</time></trkpt><trkpt lat="41.8135519" lon="2.1194332"><ele>707.0</ele><time>2026-05-03T06:09:50.221Z</time></trkpt><trkpt lat="41.8135289" lon="2.1189962"><ele>705.0</ele><time>2026-05-03T06:09:51.221Z</time></trkpt><trkpt lat="41.8135044" lon="2.1185399"><ele>703.0</ele><time>2026-05-03T06:09:52.22Z</time></trkpt><trkpt lat="41.8134794" lon="2.1180692"><ele>703.0</ele><time>2026-05-03T06:09:53.221Z</time></trkpt><trkpt lat="41.8134552" lon="2.1176109"><ele>703.0</ele><time>2026-05-03T06:09:54.221Z</time></trkpt><trkpt lat="41.8134354" lon="2.1171981"><ele>702.5</ele><time>2026-05-03T06:09:55.221Z</time></trkpt><trkpt lat="41.8134178" lon="2.1168119"><ele>702.0</ele><time>2026-05-03T06:09:56.221Z</time></trkpt><trkpt lat="41.8133992" lon="2.1164529"><ele>701.0</ele><time>2026-05-03T06:09:57.221Z</time></trkpt><trkpt lat="41.8133739" lon="2.1161177"><ele>700.0</ele><time>2026-05-03T06:09:58.222Z</time></trkpt><trkpt lat="41.8133317" lon="2.1158173"><ele>700.0</ele><time>2026-05-03T06:09:59.221Z</time></trkpt><trkpt lat="41.8132562" lon="2.1155441"><ele>700.0</ele><time>2026-05-03T06:10:00.221Z</time></trkpt><trkpt lat="41.8131423" lon="2.1152874"><ele>700.0</ele><time>2026-05-03T06:10:01.22Z</time></trkpt><trkpt lat="41.8130048" lon="2.1150392"><ele>699.0</ele><time>2026-05-03T06:10:02.22Z</time></trkpt><trkpt lat="41.8128596" lon="2.1147772"><ele>698.0</ele><time>2026-05-03T06:10:03.221Z</time></trkpt><trkpt lat="41.8127122" lon="2.1145024"><ele>696.5</ele><time>2026-05-03T06:10:04.221Z</time></trkpt><trkpt lat="41.8125573" lon="2.1142177"><ele>695.0</ele><time>2026-05-03T06:10:05.221Z</time></trkpt><trkpt lat="41.8123945" lon="2.1139144"><ele>695.0</ele><time>2026-05-03T06:10:06.22Z</time></trkpt><trkpt lat="41.8122255" lon="2.1135965"><ele>695.0</ele><time>2026-05-03T06:10:07.22Z</time></trkpt><trkpt lat="41.8120473" lon="2.1132659"><ele>693.5</ele><time>2026-05-03T06:10:08.221Z</time></trkpt><trkpt lat="41.8118633" lon="2.112922"><ele>692.0</ele><time>2026-05-03T06:10:09.221Z</time></trkpt><trkpt lat="41.8116717" lon="2.1125624"><ele>689.5</ele><time>2026-05-03T06:10:10.221Z</time></trkpt><trkpt lat="41.8114694" lon="2.1121871"><ele>687.0</ele><time>2026-05-03T06:10:11.221Z</time></trkpt><trkpt lat="41.8112594" lon="2.1117989"><ele>686.0</ele><time>2026-05-03T06:10:12.221Z</time></trkpt><trkpt lat="41.8110633" lon="2.1114397"><ele>685.0</ele><time>2026-05-03T06:10:13.22Z</time></trkpt><trkpt lat="41.8108837" lon="2.1111154"><ele>684.0</ele><time>2026-05-03T06:10:14.221Z</time></trkpt><trkpt lat="41.8107203" lon="2.1108186"><ele>683.0</ele><time>2026-05-03T06:10:15.221Z</time></trkpt><trkpt lat="41.8105724" lon="2.110543"><ele>680.5</ele><time>2026-05-03T06:10:16.221Z</time></trkpt><trkpt lat="41.8104444" lon="2.1102822"><ele>678.0</ele><time>2026-05-03T06:10:17.22Z</time></trkpt><trkpt lat="41.8103572" lon="2.1100132"><ele>675.0</ele><time>2026-05-03T06:10:18.221Z</time></trkpt><trkpt lat="41.8102964" lon="2.1097146"><ele>672.0</ele><time>2026-05-03T06:10:19.22Z</time></trkpt><trkpt lat="41.8102613" lon="2.1093751"><ele>673.0</ele><time>2026-05-03T06:10:20.222Z</time></trkpt><trkpt lat="41.8102365" lon="2.1090092"><ele>674.0</ele><time>2026-05-03T06:10:21.221Z</time></trkpt><trkpt lat="41.8102172" lon="2.1086855"><ele>674.0</ele><time>2026-05-03T06:10:22.22Z</time></trkpt><trkpt lat="41.8101967" lon="2.1083842"><ele>674.0</ele><time>2026-05-03T06:10:23.22Z</time></trkpt><trkpt lat="41.8101771" lon="2.1081259"><ele>674.0</ele><time>2026-05-03T06:10:24.22Z</time></trkpt><trkpt lat="41.8101327" lon="2.1079059"><ele>675.3333333333333</ele><time>2026-05-03T06:10:25.221Z</time></trkpt><trkpt lat="41.8100531" lon="2.1077271"><ele>676.6666666666666</ele><time>2026-05-03T06:10:26.221Z</time></trkpt><trkpt lat="41.8099408" lon="2.1075865"><ele>678.0</ele><time>2026-05-03T06:10:27.22Z</time></trkpt><trkpt lat="41.8098016" lon="2.1074847"><ele>678.0</ele><time>2026-05-03T06:10:28.221Z</time></trkpt><trkpt lat="41.809657" lon="2.1074184"><ele>678.0</ele><time>2026-05-03T06:10:29.221Z</time></trkpt><trkpt lat="41.8095152" lon="2.1073599"><ele>678.0</ele><time>2026-05-03T06:10:30.221Z</time></trkpt><trkpt lat="41.8093832" lon="2.1073038"><ele>678.0</ele><time>2026-05-03T06:10:31.221Z</time></trkpt><trkpt lat="41.809263" lon="2.1072365"><ele>679.0</ele><time>2026-05-03T06:10:32.221Z</time></trkpt><trkpt lat="41.8091549" lon="2.1071494"><ele>680.0</ele><time>2026-05-03T06:10:33.221Z</time></trkpt><trkpt lat="41.8090648" lon="2.1070317"><ele>681.0</ele><time>2026-05-03T06:10:34.221Z</time></trkpt><trkpt lat="41.8089917" lon="2.1068849"><ele>682.0</ele><time>2026-05-03T06:10:35.22Z</time></trkpt><trkpt lat="41.8089361" lon="2.106719"><ele>682.5</ele><time>2026-05-03T06:10:36.221Z</time></trkpt><trkpt lat="41.8088895" lon="2.1065367"><ele>683.0</ele><time>2026-05-03T06:10:37.221Z</time></trkpt><trkpt lat="41.8088461" lon="2.1063474"><ele>683.5</ele><time>2026-05-03T06:10:38.22Z</time></trkpt><trkpt lat="41.8088043" lon="2.1061562"><ele>684.0</ele><time>2026-05-03T06:10:39.221Z</time></trkpt><trkpt lat="41.80876" lon="2.1059612"><ele>684.0</ele><time>2026-05-03T06:10:40.22Z</time></trkpt><trkpt lat="41.8087229" lon="2.1057641"><ele>684.0</ele><time>2026-05-03T06:10:41.221Z</time></trkpt><trkpt lat="41.8086991" lon="2.1055667"><ele>684.0</ele><time>2026-05-03T06:10:42.22Z</time></trkpt><trkpt lat="41.8086893" lon="2.1053671"><ele>683.75</ele><time>2026-05-03T06:10:43.222Z</time></trkpt><trkpt lat="41.8086964" lon="2.1051684"><ele>683.5</ele><time>2026-05-03T06:10:44.221Z</time></trkpt><trkpt lat="41.808715" lon="2.1049778"><ele>683.25</ele><time>2026-05-03T06:10:45.22Z</time></trkpt><trkpt lat="41.8087416" lon="2.1048017"><ele>683.0</ele><time>2026-05-03T06:10:46.221Z</time></trkpt><trkpt lat="41.8087708" lon="2.104642"><ele>683.0</ele><time>2026-05-03T06:10:47.221Z</time></trkpt><trkpt lat="41.8087998" lon="2.104492"><ele>683.0</ele><time>2026-05-03T06:10:48.22Z</time></trkpt><trkpt lat="41.8088326" lon="2.1043577"><ele>683.0</ele><time>2026-05-03T06:10:49.221Z</time></trkpt><trkpt lat="41.8088764" lon="2.1042363"><ele>683.0</ele><time>2026-05-03T06:10:50.221Z</time></trkpt><trkpt lat="41.8089279" lon="2.1041209"><ele>683.0</ele><time>2026-05-03T06:10:51.221Z</time></trkpt><trkpt lat="41.8089577" lon="2.1039997"><ele>683.5</ele><time>2026-05-03T06:10:52.222Z</time></trkpt><trkpt lat="41.8089577" lon="2.103871"><ele>684.0</ele><time>2026-05-03T06:10:53.222Z</time></trkpt><trkpt lat="41.8089481" lon="2.1037283"><ele>684.5</ele><time>2026-05-03T06:10:54.22Z</time></trkpt><trkpt lat="41.8089641" lon="2.1035662"><ele>685.0</ele><time>2026-05-03T06:10:55.22Z</time></trkpt><trkpt lat="41.8089917" lon="2.103395"><ele>685.0</ele><time>2026-05-03T06:10:56.221Z</time></trkpt><trkpt lat="41.8090186" lon="2.1032112"><ele>685.0</ele><time>2026-05-03T06:10:57.221Z</time></trkpt><trkpt lat="41.809047" lon="2.1030216"><ele>685.0</ele><time>2026-05-03T06:10:58.22Z</time></trkpt><trkpt lat="41.8090756" lon="2.1028513"><ele>685.0</ele><time>2026-05-03T06:10:59.221Z</time></trkpt><trkpt lat="41.8091053" lon="2.1027015"><ele>685.0</ele><time>2026-05-03T06:11:00.221Z</time></trkpt><trkpt lat="41.8091416" lon="2.102587"><ele>685.0</ele><time>2026-05-03T06:11:01.221Z</time></trkpt><trkpt lat="41.809187" lon="2.1025025"><ele>685.0</ele><time>2026-05-03T06:11:02.221Z</time></trkpt><trkpt lat="41.8092361" lon="2.1024322"><ele>685.0</ele><time>2026-05-03T06:11:03.22Z</time></trkpt><trkpt lat="41.8093072" lon="2.1023044"><ele>685.0</ele><time>2026-05-03T06:11:05.22Z</time></trkpt><trkpt lat="41.8093303" lon="2.1022212"><ele>685.0</ele><time>2026-05-03T06:11:07.221Z</time></trkpt><trkpt lat="41.80936" lon="2.1020973"><ele>685.0</ele><time>2026-05-03T06:16:31.223Z</time></trkpt><trkpt lat="41.8093521" lon="2.1020132"><ele>685.0</ele><time>2026-05-03T06:16:32.222Z</time></trkpt><trkpt lat="41.809327" lon="2.1018982"><ele>685.0</ele><time>2026-05-03T06:16:34.222Z</time></trkpt><trkpt lat="41.8093003" lon="2.1017242"><ele>685.0</ele><time>2026-05-03T06:16:36.222Z</time></trkpt><trkpt lat="41.8093083" lon="2.1016097"><ele>685.0</ele><time>2026-05-03T06:16:37.222Z</time></trkpt><trkpt lat="41.8093282" lon="2.1014778"><ele>687.25</ele><time>2026-05-03T06:16:38.222Z</time></trkpt><trkpt lat="41.8093499" lon="2.1013349"><ele>689.5</ele><time>2026-05-03T06:16:39.222Z</time></trkpt><trkpt lat="41.8093747" lon="2.1011833"><ele>691.75</ele><time>2026-05-03T06:16:40.222Z</time></trkpt><trkpt lat="41.8094014" lon="2.1010263"><ele>694.0</ele><time>2026-05-03T06:16:41.222Z</time></trkpt><trkpt lat="41.8094283" lon="2.1008647"><ele>694.25</ele><time>2026-05-03T06:16:42.221Z</time></trkpt><trkpt lat="41.8094591" lon="2.1006967"><ele>694.5</ele><time>2026-05-03T06:16:43.222Z</time></trkpt><trkpt lat="41.8094835" lon="2.100517"><ele>694.75</ele><time>2026-05-03T06:16:44.223Z</time></trkpt><trkpt lat="41.8094939" lon="2.100332"><ele>695.0</ele><time>2026-05-03T06:16:45.222Z</time></trkpt><trkpt lat="41.8094927" lon="2.1001425"><ele>695.0</ele><time>2026-05-03T06:16:46.221Z</time></trkpt><trkpt lat="41.809474" lon="2.099949"><ele>695.0</ele><time>2026-05-03T06:16:47.222Z</time></trkpt><trkpt lat="41.8094404" lon="2.0997541"><ele>695.0</ele><time>2026-05-03T06:16:48.222Z</time></trkpt><trkpt lat="41.8093931" lon="2.0995605"><ele>695.0</ele><time>2026-05-03T06:16:49.222Z</time></trkpt><trkpt lat="41.8093392" lon="2.099366"><ele>695.25</ele><time>2026-05-03T06:16:50.223Z</time></trkpt><trkpt lat="41.8092852" lon="2.0991845"><ele>695.5</ele><time>2026-05-03T06:16:51.223Z</time></trkpt><trkpt lat="41.8092407" lon="2.099022"><ele>695.75</ele><time>2026-05-03T06:16:52.221Z</time></trkpt><trkpt lat="41.8092015" lon="2.0988754"><ele>696.0</ele><time>2026-05-03T06:16:53.221Z</time></trkpt><trkpt lat="41.8091692" lon="2.0987508"><ele>696.0</ele><time>2026-05-03T06:16:54.221Z</time></trkpt><trkpt lat="41.8091436" lon="2.0986514"><ele>696.0</ele><time>2026-05-03T06:16:55.222Z</time></trkpt><trkpt lat="41.8091126" lon="2.0985345"><ele>696.0</ele><time>2026-05-03T06:16:57.222Z</time></trkpt><trkpt lat="41.8090984" lon="2.0983791"><ele>696.0</ele><time>2026-05-03T06:17:35.222Z</time></trkpt><trkpt lat="41.8090909" lon="2.0982855"><ele>696.0</ele><time>2026-05-03T06:17:36.222Z</time></trkpt><trkpt lat="41.8090915" lon="2.0981797"><ele>696.0</ele><time>2026-05-03T06:17:37.222Z</time></trkpt><trkpt lat="41.8090934" lon="2.0980572"><ele>697.0</ele><time>2026-05-03T06:17:38.222Z</time></trkpt><trkpt lat="41.8091019" lon="2.0979199"><ele>698.0</ele><time>2026-05-03T06:17:39.223Z</time></trkpt><trkpt lat="41.8091141" lon="2.097771"><ele>699.0</ele><time>2026-05-03T06:17:40.222Z</time></trkpt><trkpt lat="41.8091271" lon="2.0976116"><ele>700.0</ele><time>2026-05-03T06:17:41.221Z</time></trkpt><trkpt lat="41.8091364" lon="2.0974432"><ele>700.75</ele><time>2026-05-03T06:17:42.222Z</time></trkpt><trkpt lat="41.8091462" lon="2.0972683"><ele>701.5</ele><time>2026-05-03T06:17:43.222Z</time></trkpt><trkpt lat="41.8091563" lon="2.0970896"><ele>702.25</ele><time>2026-05-03T06:17:44.221Z</time></trkpt><trkpt lat="41.8091703" lon="2.0969129"><ele>703.0</ele><time>2026-05-03T06:17:45.222Z</time></trkpt><trkpt lat="41.8091843" lon="2.0967522"><ele>703.0</ele><time>2026-05-03T06:17:46.222Z</time></trkpt><trkpt lat="41.8092038" lon="2.0966062"><ele>703.0</ele><time>2026-05-03T06:17:47.221Z</time></trkpt><trkpt lat="41.8092307" lon="2.0964715"><ele>703.0</ele><time>2026-05-03T06:17:48.222Z</time></trkpt><trkpt lat="41.8092711" lon="2.0963429"><ele>703.0</ele><time>2026-05-03T06:17:49.222Z</time></trkpt><trkpt lat="41.8093162" lon="2.096217"><ele>703.0</ele><time>2026-05-03T06:17:50.222Z</time></trkpt><trkpt lat="41.8093644" lon="2.0960932"><ele>703.2</ele><time>2026-05-03T06:17:51.221Z</time></trkpt><trkpt lat="41.8094181" lon="2.0959721"><ele>703.4</ele><time>2026-05-03T06:17:52.222Z</time></trkpt><trkpt lat="41.8094779" lon="2.0958514"><ele>703.6</ele><time>2026-05-03T06:17:53.209Z</time></trkpt><trkpt lat="41.8095351" lon="2.0957309"><ele>703.8000000000001</ele><time>2026-05-03T06:17:54.204Z</time></trkpt><trkpt lat="41.8095912" lon="2.0956107"><ele>704.0</ele><time>2026-05-03T06:17:55.21Z</time></trkpt><trkpt lat="41.8096474" lon="2.0954931"><ele>704.0</ele><time>2026-05-03T06:17:56.207Z</time></trkpt><trkpt lat="41.809704" lon="2.0953774"><ele>704.0</ele><time>2026-05-03T06:17:57.211Z</time></trkpt><trkpt lat="41.80976" lon="2.095263"><ele>704.0</ele><time>2026-05-03T06:17:58.209Z</time></trkpt><trkpt lat="41.8098154" lon="2.0951492"><ele>704.0</ele><time>2026-05-03T06:17:59.209Z</time></trkpt><trkpt lat="41.8098689" lon="2.0950346"><ele>704.0</ele><time>2026-05-03T06:18:00.209Z</time></trkpt><trkpt lat="41.8099217" lon="2.0949206"><ele>703.5</ele><time>2026-05-03T06:18:01.209Z</time></trkpt><trkpt lat="41.8099711" lon="2.0948123"><ele>703.0</ele><time>2026-05-03T06:18:02.209Z</time></trkpt><trkpt lat="41.8100159" lon="2.0947174"><ele>702.5</ele><time>2026-05-03T06:18:03.209Z</time></trkpt><trkpt lat="41.8100564" lon="2.094634"><ele>702.0</ele><time>2026-05-03T06:18:04.209Z</time></trkpt><trkpt lat="41.8100899" lon="2.0945588"><ele>701.5</ele><time>2026-05-03T06:18:05.209Z</time></trkpt><trkpt lat="41.8101332" lon="2.0944409"><ele>701.0</ele><time>2026-05-03T06:18:07.209Z</time></trkpt><trkpt lat="41.8101211" lon="2.0943467"><ele>701.0</ele><time>2026-05-03T06:18:10.208Z</time></trkpt><trkpt lat="41.8100619" lon="2.0943909"><ele>701.0</ele><time>2026-05-03T06:19:39.224Z</time></trkpt><trkpt lat="41.8100327" lon="2.0943138"><ele>701.0</ele><time>2026-05-03T06:19:47.223Z</time></trkpt><trkpt lat="41.8100693" lon="2.0943869"><ele>701.0</ele><time>2026-05-03T06:51:37.228Z</time></trkpt><trkpt lat="41.8101246" lon="2.0943433"><ele>701.0</ele><time>2026-05-03T06:52:26.227Z</time></trkpt><trkpt lat="41.8100705" lon="2.094419"><ele>701.0</ele><time>2026-05-03T06:53:21.228Z</time></trkpt><trkpt lat="41.8100806" lon="2.0945322"><ele>701.0</ele><time>2026-05-03T06:53:25.227Z</time></trkpt><trkpt lat="41.8100379" lon="2.0946215"><ele>701.0</ele><time>2026-05-03T06:53:27.228Z</time></trkpt><trkpt lat="41.8099723" lon="2.0947326"><ele>701.0</ele><time>2026-05-03T06:53:29.227Z</time></trkpt><trkpt lat="41.8099137" lon="2.0948601"><ele>701.0</ele><time>2026-05-03T06:53:31.229Z</time></trkpt><trkpt lat="41.8098442" lon="2.0950054"><ele>701.0</ele><time>2026-05-03T06:53:33.227Z</time></trkpt><trkpt lat="41.8098078" lon="2.0950818"><ele>701.0</ele><time>2026-05-03T06:53:34.227Z</time></trkpt><trkpt lat="41.8097703" lon="2.0951609"><ele>701.4285714285714</ele><time>2026-05-03T06:53:35.228Z</time></trkpt><trkpt lat="41.8097335" lon="2.0952399"><ele>701.8571428571428</ele><time>2026-05-03T06:53:36.227Z</time></trkpt><trkpt lat="41.8096955" lon="2.09532"><ele>702.2857142857142</ele><time>2026-05-03T06:53:37.229Z</time></trkpt><trkpt lat="41.8096563" lon="2.0953999"><ele>702.7142857142858</ele><time>2026-05-03T06:53:38.227Z</time></trkpt><trkpt lat="41.8096169" lon="2.0954806"><ele>703.1428571428571</ele><time>2026-05-03T06:53:39.228Z</time></trkpt><trkpt lat="41.8095779" lon="2.095564"><ele>703.5714285714286</ele><time>2026-05-03T06:53:40.228Z</time></trkpt><trkpt lat="41.8095395" lon="2.0956478"><ele>704.0</ele><time>2026-05-03T06:53:41.228Z</time></trkpt><trkpt lat="41.8094994" lon="2.095734"><ele>704.5</ele><time>2026-05-03T06:53:42.227Z</time></trkpt><trkpt lat="41.8094595" lon="2.0958222"><ele>705.0</ele><time>2026-05-03T06:53:43.228Z</time></trkpt><trkpt lat="41.8094193" lon="2.095908"><ele>705.5</ele><time>2026-05-03T06:53:44.228Z</time></trkpt><trkpt lat="41.8093783" lon="2.0959929"><ele>706.0</ele><time>2026-05-03T06:53:45.228Z</time></trkpt><trkpt lat="41.8093393" lon="2.0960808"><ele>706.5</ele><time>2026-05-03T06:53:46.227Z</time></trkpt><trkpt lat="41.8093013" lon="2.0961709"><ele>707.0</ele><time>2026-05-03T06:53:47.228Z</time></trkpt><trkpt lat="41.8092637" lon="2.096262"><ele>706.3333333333333</ele><time>2026-05-03T06:53:48.229Z</time></trkpt><trkpt lat="41.8092312" lon="2.0963588"><ele>705.6666666666666</ele><time>2026-05-03T06:53:49.227Z</time></trkpt><trkpt lat="41.8092013" lon="2.0964578"><ele>705.0</ele><time>2026-05-03T06:53:50.228Z</time></trkpt><trkpt lat="41.8091774" lon="2.0965606"><ele>704.3333333333334</ele><time>2026-05-03T06:53:51.228Z</time></trkpt><trkpt lat="41.8091591" lon="2.0966696"><ele>703.6666666666667</ele><time>2026-05-03T06:53:52.228Z</time></trkpt><trkpt lat="41.809145" lon="2.0967821"><ele>703.0</ele><time>2026-05-03T06:53:53.228Z</time></trkpt><trkpt lat="41.8091332" lon="2.0968984"><ele>703.0</ele><time>2026-05-03T06:53:54.228Z</time></trkpt><trkpt lat="41.8091249" lon="2.097015"><ele>703.0</ele><time>2026-05-03T06:53:55.227Z</time></trkpt><trkpt lat="41.8091161" lon="2.0971404"><ele>703.0</ele><time>2026-05-03T06:53:56.228Z</time></trkpt><trkpt lat="41.8091063" lon="2.0972738"><ele>703.0</ele><time>2026-05-03T06:53:57.228Z</time></trkpt><trkpt lat="41.8090951" lon="2.0974176"><ele>703.0</ele><time>2026-05-03T06:53:58.229Z</time></trkpt><trkpt lat="41.8090843" lon="2.0975689"><ele>702.4</ele><time>2026-05-03T06:53:59.228Z</time></trkpt><trkpt lat="41.8090733" lon="2.0977244"><ele>701.8</ele><time>2026-05-03T06:54:00.228Z</time></trkpt><trkpt lat="41.8090648" lon="2.0978639"><ele>701.2</ele><time>2026-05-03T06:54:01.228Z</time></trkpt><trkpt lat="41.8090571" lon="2.0979876"><ele>700.6</ele><time>2026-05-03T06:54:02.227Z</time></trkpt><trkpt lat="41.8090507" lon="2.098092"><ele>700.0</ele><time>2026-05-03T06:54:03.228Z</time></trkpt><trkpt lat="41.8090476" lon="2.0981792"><ele>700.4</ele><time>2026-05-03T06:54:04.228Z</time></trkpt><trkpt lat="41.8090755" lon="2.0982965"><ele>700.8</ele><time>2026-05-03T06:54:06.228Z</time></trkpt><trkpt lat="41.8091632" lon="2.0983364"><ele>701.2</ele><time>2026-05-03T06:54:08.228Z</time></trkpt><trkpt lat="41.8092934" lon="2.0982887"><ele>701.6</ele><time>2026-05-03T06:54:10.228Z</time></trkpt><trkpt lat="41.8093679" lon="2.0982558"><ele>702.0</ele><time>2026-05-03T06:54:11.227Z</time></trkpt><trkpt lat="41.809448" lon="2.0982215"><ele>703.3333333333334</ele><time>2026-05-03T06:54:12.228Z</time></trkpt><trkpt lat="41.8095294" lon="2.0981876"><ele>704.6666666666666</ele><time>2026-05-03T06:54:13.228Z</time></trkpt><trkpt lat="41.8096096" lon="2.0981526"><ele>706.0</ele><time>2026-05-03T06:54:14.227Z</time></trkpt><trkpt lat="41.809693" lon="2.0981199"><ele>707.3333333333333</ele><time>2026-05-03T06:54:15.228Z</time></trkpt><trkpt lat="41.8097728" lon="2.0980843"><ele>708.6666666666666</ele><time>2026-05-03T06:54:16.228Z</time></trkpt><trkpt lat="41.8098556" lon="2.0980496"><ele>710.0</ele><time>2026-05-03T06:54:17.228Z</time></trkpt><trkpt lat="41.8099404" lon="2.0980176"><ele>710.0</ele><time>2026-05-03T06:54:18.228Z</time></trkpt><trkpt lat="41.8100263" lon="2.0979787"><ele>710.0</ele><time>2026-05-03T06:54:19.227Z</time></trkpt><trkpt lat="41.8101156" lon="2.0979388"><ele>710.0</ele><time>2026-05-03T06:54:20.228Z</time></trkpt><trkpt lat="41.8102067" lon="2.0979019"><ele>710.0</ele><time>2026-05-03T06:54:21.228Z</time></trkpt><trkpt lat="41.8102996" lon="2.097861"><ele>710.0</ele><time>2026-05-03T06:54:22.228Z</time></trkpt><trkpt lat="41.8103982" lon="2.0978232"><ele>710.8</ele><time>2026-05-03T06:54:23.228Z</time></trkpt><trkpt lat="41.8104976" lon="2.0977885"><ele>711.6</ele><time>2026-05-03T06:54:24.228Z</time></trkpt><trkpt lat="41.8105992" lon="2.0977456"><ele>712.4000000000001</ele><time>2026-05-03T06:54:25.228Z</time></trkpt><trkpt lat="41.8106993" lon="2.097697"><ele>713.2</ele><time>2026-05-03T06:54:26.229Z</time></trkpt><trkpt lat="41.8108024" lon="2.0976553"><ele>714.0</ele><time>2026-05-03T06:54:27.227Z</time></trkpt><trkpt lat="41.8108992" lon="2.0976085"><ele>715.4000000000001</ele><time>2026-05-03T06:54:28.229Z</time></trkpt><trkpt lat="41.8109971" lon="2.0975708"><ele>716.8</ele><time>2026-05-03T06:54:29.227Z</time></trkpt><trkpt lat="41.8110839" lon="2.0975269"><ele>718.2</ele><time>2026-05-03T06:54:30.228Z</time></trkpt><trkpt lat="41.811177" lon="2.0974854"><ele>719.5999999999999</ele><time>2026-05-03T06:54:31.229Z</time></trkpt><trkpt lat="41.8112691" lon="2.0974539"><ele>721.0</ele><time>2026-05-03T06:54:32.227Z</time></trkpt><trkpt lat="41.8113603" lon="2.0974221"><ele>720.8333333333334</ele><time>2026-05-03T06:54:33.228Z</time></trkpt><trkpt lat="41.8114462" lon="2.0973941"><ele>720.6666666666667</ele><time>2026-05-03T06:54:34.228Z</time></trkpt><trkpt lat="41.8115302" lon="2.0973746"><ele>720.5</ele><time>2026-05-03T06:54:35.227Z</time></trkpt><trkpt lat="41.8116171" lon="2.0973478"><ele>720.3333333333334</ele><time>2026-05-03T06:54:36.228Z</time></trkpt><trkpt lat="41.8117069" lon="2.0973272"><ele>720.1666666666666</ele><time>2026-05-03T06:54:37.228Z</time></trkpt><trkpt lat="41.8117931" lon="2.0972979"><ele>720.0</ele><time>2026-05-03T06:54:38.228Z</time></trkpt><trkpt lat="41.8118743" lon="2.09726"><ele>721.6666666666666</ele><time>2026-05-03T06:54:39.228Z</time></trkpt><trkpt lat="41.8119575" lon="2.0972163"><ele>723.3333333333334</ele><time>2026-05-03T06:54:40.229Z</time></trkpt><trkpt lat="41.8120404" lon="2.0971633"><ele>725.0</ele><time>2026-05-03T06:54:41.227Z</time></trkpt><trkpt lat="41.8121192" lon="2.0971078"><ele>726.6666666666667</ele><time>2026-05-03T06:54:42.228Z</time></trkpt><trkpt lat="41.8121966" lon="2.0970552"><ele>728.3333333333334</ele><time>2026-05-03T06:54:43.228Z</time></trkpt><trkpt lat="41.8122754" lon="2.0970083"><ele>730.0</ele><time>2026-05-03T06:54:44.227Z</time></trkpt><trkpt lat="41.8123596" lon="2.0969761"><ele>730.0</ele><time>2026-05-03T06:54:45.229Z</time></trkpt><trkpt lat="41.812443" lon="2.0969472"><ele>730.0</ele><time>2026-05-03T06:54:46.228Z</time></trkpt><trkpt lat="41.8125304" lon="2.0969296"><ele>730.0</ele><time>2026-05-03T06:54:47.228Z</time></trkpt><trkpt lat="41.8126161" lon="2.0969134"><ele>730.0</ele><time>2026-05-03T06:54:48.228Z</time></trkpt><trkpt lat="41.8126991" lon="2.09689"><ele>730.0</ele><time>2026-05-03T06:54:49.228Z</time></trkpt><trkpt lat="41.812783" lon="2.0968811"><ele>730.0</ele><time>2026-05-03T06:54:50.228Z</time></trkpt><trkpt lat="41.8128657" lon="2.0968555"><ele>731.1666666666667</ele><time>2026-05-03T06:54:51.229Z</time></trkpt><trkpt lat="41.8129438" lon="2.0968319"><ele>732.3333333333334</ele><time>2026-05-03T06:54:52.228Z</time></trkpt><trkpt lat="41.8130159" lon="2.0968161"><ele>733.5</ele><time>2026-05-03T06:54:53.228Z</time></trkpt><trkpt lat="41.8130807" lon="2.0967646"><ele>734.6666666666666</ele><time>2026-05-03T06:54:54.228Z</time></trkpt><trkpt lat="41.8131374" lon="2.0966942"><ele>735.8333333333333</ele><time>2026-05-03T06:54:55.228Z</time></trkpt><trkpt lat="41.8131972" lon="2.0966199"><ele>737.0</ele><time>2026-05-03T06:54:56.229Z</time></trkpt><trkpt lat="41.8132714" lon="2.0965661"><ele>737.6</ele><time>2026-05-03T06:54:57.228Z</time></trkpt><trkpt lat="41.8133538" lon="2.0965226"><ele>738.2</ele><time>2026-05-03T06:54:58.228Z</time></trkpt><trkpt lat="41.8134378" lon="2.0964749"><ele>738.8</ele><time>2026-05-03T06:54:59.229Z</time></trkpt><trkpt lat="41.8135284" lon="2.0964215"><ele>739.4</ele><time>2026-05-03T06:55:00.227Z</time></trkpt><trkpt lat="41.8136206" lon="2.0963617"><ele>740.0</ele><time>2026-05-03T06:55:01.228Z</time></trkpt><trkpt lat="41.8137145" lon="2.0962929"><ele>741.4</ele><time>2026-05-03T06:55:02.229Z</time></trkpt><trkpt lat="41.8138079" lon="2.096218"><ele>742.8</ele><time>2026-05-03T06:55:03.227Z</time></trkpt><trkpt lat="41.8139003" lon="2.096139"><ele>744.2</ele><time>2026-05-03T06:55:04.228Z</time></trkpt><trkpt lat="41.8139947" lon="2.0960584"><ele>745.6</ele><time>2026-05-03T06:55:05.228Z</time></trkpt><trkpt lat="41.8140891" lon="2.0959775"><ele>747.0</ele><time>2026-05-03T06:55:06.228Z</time></trkpt><trkpt lat="41.8141859" lon="2.0958982"><ele>747.0</ele><time>2026-05-03T06:55:07.228Z</time></trkpt><trkpt lat="41.8142834" lon="2.0958204"><ele>747.0</ele><time>2026-05-03T06:55:08.228Z</time></trkpt><trkpt lat="41.8143804" lon="2.0957424"><ele>747.0</ele><time>2026-05-03T06:55:09.228Z</time></trkpt><trkpt lat="41.8144754" lon="2.0956633"><ele>747.0</ele><time>2026-05-03T06:55:10.227Z</time></trkpt><trkpt lat="41.8145626" lon="2.0955976"><ele>747.0</ele><time>2026-05-03T06:55:11.228Z</time></trkpt><trkpt lat="41.8146493" lon="2.0955548"><ele>748.6</ele><time>2026-05-03T06:55:12.228Z</time></trkpt><trkpt lat="41.8147379" lon="2.0955495"><ele>750.2</ele><time>2026-05-03T06:55:13.228Z</time></trkpt><trkpt lat="41.8148206" lon="2.0955849"><ele>751.8</ele><time>2026-05-03T06:55:14.228Z</time></trkpt><trkpt lat="41.8148885" lon="2.0956565"><ele>753.4</ele><time>2026-05-03T06:55:15.228Z</time></trkpt><trkpt lat="41.8149339" lon="2.0957606"><ele>755.0</ele><time>2026-05-03T06:55:16.228Z</time></trkpt><trkpt lat="41.8149574" lon="2.0958892"><ele>755.0</ele><time>2026-05-03T06:55:17.227Z</time></trkpt><trkpt lat="41.8149607" lon="2.0960326"><ele>755.0</ele><time>2026-05-03T06:55:18.228Z</time></trkpt><trkpt lat="41.8149459" lon="2.0961831"><ele>755.0</ele><time>2026-05-03T06:55:19.229Z</time></trkpt><trkpt lat="41.8149021" lon="2.0963319"><ele>755.0</ele><time>2026-05-03T06:55:20.228Z</time></trkpt><trkpt lat="41.8148418" lon="2.0964681"><ele>756.5</ele><time>2026-05-03T06:55:21.228Z</time></trkpt><trkpt lat="41.8147807" lon="2.0966061"><ele>758.0</ele><time>2026-05-03T06:55:22.228Z</time></trkpt><trkpt lat="41.8147414" lon="2.0967681"><ele>759.5</ele><time>2026-05-03T06:55:23.228Z</time></trkpt><trkpt lat="41.8147271" lon="2.0969422"><ele>761.0</ele><time>2026-05-03T06:55:24.228Z</time></trkpt><trkpt lat="41.8147433" lon="2.0971196"><ele>761.0</ele><time>2026-05-03T06:55:25.228Z</time></trkpt><trkpt lat="41.8147803" lon="2.0972968"><ele>761.0</ele><time>2026-05-03T06:55:26.228Z</time></trkpt><trkpt lat="41.8148185" lon="2.0974689"><ele>761.0</ele><time>2026-05-03T06:55:27.228Z</time></trkpt><trkpt lat="41.8148549" lon="2.0976343"><ele>761.0</ele><time>2026-05-03T06:55:28.228Z</time></trkpt><trkpt lat="41.814897" lon="2.0978044"><ele>762.0</ele><time>2026-05-03T06:55:29.228Z</time></trkpt><trkpt lat="41.8149507" lon="2.0979843"><ele>763.0</ele><time>2026-05-03T06:55:30.228Z</time></trkpt><trkpt lat="41.815036" lon="2.0981677"><ele>764.0</ele><time>2026-05-03T06:55:31.227Z</time></trkpt><trkpt lat="41.8151425" lon="2.0983628"><ele>770.3333333333333</ele><time>2026-05-03T06:55:32.228Z</time></trkpt><trkpt lat="41.8152439" lon="2.0985428"><ele>776.6666666666666</ele><time>2026-05-03T06:55:33.228Z</time></trkpt><trkpt lat="41.8153379" lon="2.098697"><ele>783.0</ele><time>2026-05-03T06:55:34.228Z</time></trkpt><trkpt lat="41.8154505" lon="2.0988175"><ele>783.0</ele><time>2026-05-03T06:55:35.228Z</time></trkpt><trkpt lat="41.8155929" lon="2.098918"><ele>783.0</ele><time>2026-05-03T06:55:36.228Z</time></trkpt><trkpt lat="41.8157475" lon="2.0989967"><ele>783.0</ele><time>2026-05-03T06:55:37.228Z</time></trkpt><trkpt lat="41.8159189" lon="2.0990461"><ele>782.25</ele><time>2026-05-03T06:55:38.227Z</time></trkpt><trkpt lat="41.8160884" lon="2.0990576"><ele>781.5</ele><time>2026-05-03T06:55:39.228Z</time></trkpt><trkpt lat="41.8162317" lon="2.0990598"><ele>780.75</ele><time>2026-05-03T06:55:40.229Z</time></trkpt><trkpt lat="41.8163408" lon="2.0991"><ele>780.0</ele><time>2026-05-03T06:55:41.227Z</time></trkpt><trkpt lat="41.8164289" lon="2.0991855"><ele>780.0</ele><time>2026-05-03T06:55:42.227Z</time></trkpt><trkpt lat="41.8164902" lon="2.0993177"><ele>780.0</ele><time>2026-05-03T06:55:43.228Z</time></trkpt><trkpt lat="41.8165471" lon="2.0994824"><ele>780.0</ele><time>2026-05-03T06:55:44.229Z</time></trkpt><trkpt lat="41.8166409" lon="2.0996214"><ele>780.0</ele><time>2026-05-03T06:55:45.228Z</time></trkpt><trkpt lat="41.8167647" lon="2.0997157"><ele>789.3333333333333</ele><time>2026-05-03T06:55:46.228Z</time></trkpt><trkpt lat="41.8169163" lon="2.0997671"><ele>798.6666666666666</ele><time>2026-05-03T06:55:47.228Z</time></trkpt><trkpt lat="41.8170891" lon="2.0998093"><ele>808.0</ele><time>2026-05-03T06:55:48.228Z</time></trkpt><trkpt lat="41.817269" lon="2.099857"><ele>808.0</ele><time>2026-05-03T06:55:49.228Z</time></trkpt><trkpt lat="41.8174653" lon="2.0999056"><ele>808.0</ele><time>2026-05-03T06:55:50.227Z</time></trkpt><trkpt lat="41.8176641" lon="2.0999565"><ele>808.0</ele><time>2026-05-03T06:55:51.227Z</time></trkpt><trkpt lat="41.8178674" lon="2.1000152"><ele>800.3333333333333</ele><time>2026-05-03T06:55:52.227Z</time></trkpt><trkpt lat="41.8180471" lon="2.100062"><ele>792.6666666666667</ele><time>2026-05-03T06:55:53.228Z</time></trkpt><trkpt lat="41.8182159" lon="2.1000625"><ele>785.0</ele><time>2026-05-03T06:55:54.228Z</time></trkpt><trkpt lat="41.8183763" lon="2.1000027"><ele>787.3333333333334</ele><time>2026-05-03T06:55:55.228Z</time></trkpt><trkpt lat="41.8185313" lon="2.0998917"><ele>789.6666666666667</ele><time>2026-05-03T06:55:56.228Z</time></trkpt><trkpt lat="41.8186927" lon="2.0997676"><ele>792.0</ele><time>2026-05-03T06:55:57.228Z</time></trkpt><trkpt lat="41.8188611" lon="2.0996379"><ele>792.0</ele><time>2026-05-03T06:55:58.228Z</time></trkpt><trkpt lat="41.8190197" lon="2.0995026"><ele>792.0</ele><time>2026-05-03T06:55:59.228Z</time></trkpt><trkpt lat="41.8191424" lon="2.0993292"><ele>792.0</ele><time>2026-05-03T06:56:00.228Z</time></trkpt><trkpt lat="41.8192365" lon="2.099114"><ele>787.0</ele><time>2026-05-03T06:56:01.228Z</time></trkpt><trkpt lat="41.8193156" lon="2.0988721"><ele>782.0</ele><time>2026-05-03T06:56:02.229Z</time></trkpt><trkpt lat="41.8193958" lon="2.0986269"><ele>777.0</ele><time>2026-05-03T06:56:03.228Z</time></trkpt><trkpt lat="41.819479" lon="2.0983775"><ele>782.3333333333333</ele><time>2026-05-03T06:56:04.229Z</time></trkpt><trkpt lat="41.8195632" lon="2.0981238"><ele>787.6666666666666</ele><time>2026-05-03T06:56:05.228Z</time></trkpt><trkpt lat="41.8196441" lon="2.0978652"><ele>793.0</ele><time>2026-05-03T06:56:06.228Z</time></trkpt><trkpt lat="41.8197191" lon="2.0976236"><ele>802.6666666666666</ele><time>2026-05-03T06:56:07.229Z</time></trkpt><trkpt lat="41.8197908" lon="2.0974057"><ele>812.3333333333333</ele><time>2026-05-03T06:56:08.227Z</time></trkpt><trkpt lat="41.8198811" lon="2.097218"><ele>822.0</ele><time>2026-05-03T06:56:09.227Z</time></trkpt><trkpt lat="41.8200106" lon="2.0970779"><ele>817.3333333333333</ele><time>2026-05-03T06:56:10.228Z</time></trkpt><trkpt lat="41.8201708" lon="2.0969596"><ele>812.6666666666666</ele><time>2026-05-03T06:56:11.228Z</time></trkpt><trkpt lat="41.8203508" lon="2.0968484"><ele>808.0</ele><time>2026-05-03T06:56:12.227Z</time></trkpt><trkpt lat="41.8205409" lon="2.0967533"><ele>808.0</ele><time>2026-05-03T06:56:13.227Z</time></trkpt><trkpt lat="41.8207516" lon="2.0966907"><ele>808.0</ele><time>2026-05-03T06:56:14.227Z</time></trkpt><trkpt lat="41.8209772" lon="2.0966511"><ele>808.0</ele><time>2026-05-03T06:56:15.228Z</time></trkpt><trkpt lat="41.8212157" lon="2.0966163"><ele>821.0</ele><time>2026-05-03T06:56:16.227Z</time></trkpt><trkpt lat="41.821462" lon="2.0965809"><ele>834.0</ele><time>2026-05-03T06:56:17.228Z</time></trkpt><trkpt lat="41.8217103" lon="2.0965429"><ele>833.5</ele><time>2026-05-03T06:56:18.228Z</time></trkpt><trkpt lat="41.8219536" lon="2.096508"><ele>833.0</ele><time>2026-05-03T06:56:19.228Z</time></trkpt><trkpt lat="41.8221927" lon="2.0964731"><ele>833.0</ele><time>2026-05-03T06:56:20.228Z</time></trkpt><trkpt lat="41.8224172" lon="2.0964363"><ele>833.0</ele><time>2026-05-03T06:56:21.229Z</time></trkpt><trkpt lat="41.8226238" lon="2.0963708"><ele>833.0</ele><time>2026-05-03T06:56:22.227Z</time></trkpt><trkpt lat="41.8228188" lon="2.0962641"><ele>831.6666666666667</ele><time>2026-05-03T06:56:23.228Z</time></trkpt><trkpt lat="41.8230098" lon="2.0961228"><ele>830.3333333333333</ele><time>2026-05-03T06:56:24.227Z</time></trkpt><trkpt lat="41.8232018" lon="2.0959718"><ele>829.0</ele><time>2026-05-03T06:56:25.227Z</time></trkpt><trkpt lat="41.8234114" lon="2.0958514"><ele>829.5</ele><time>2026-05-03T06:56:26.228Z</time></trkpt><trkpt lat="41.8236318" lon="2.0957462"><ele>830.0</ele><time>2026-05-03T06:56:27.229Z</time></trkpt><trkpt lat="41.8238464" lon="2.0956442"><ele>830.0</ele><time>2026-05-03T06:56:28.228Z</time></trkpt><trkpt lat="41.8240424" lon="2.095551"><ele>830.0</ele><time>2026-05-03T06:56:29.227Z</time></trkpt><trkpt lat="41.8242447" lon="2.095466"><ele>830.0</ele><time>2026-05-03T06:56:30.228Z</time></trkpt><trkpt lat="41.8244578" lon="2.0953905"><ele>827.0</ele><time>2026-05-03T06:56:31.228Z</time></trkpt><trkpt lat="41.824684" lon="2.0953197"><ele>824.0</ele><time>2026-05-03T06:56:32.228Z</time></trkpt><trkpt lat="41.8249204" lon="2.0952487"><ele>823.5</ele><time>2026-05-03T06:56:33.228Z</time></trkpt><trkpt lat="41.8251625" lon="2.0951726"><ele>823.0</ele><time>2026-05-03T06:56:34.228Z</time></trkpt><trkpt lat="41.8253937" lon="2.0950905"><ele>823.0</ele><time>2026-05-03T06:56:35.227Z</time></trkpt><trkpt lat="41.8256155" lon="2.0949772"><ele>823.0</ele><time>2026-05-03T06:56:36.228Z</time></trkpt><trkpt lat="41.8258325" lon="2.0948282"><ele>819.0</ele><time>2026-05-03T06:56:37.227Z</time></trkpt><trkpt lat="41.8260584" lon="2.0946804"><ele>815.0</ele><time>2026-05-03T06:56:38.228Z</time></trkpt><trkpt lat="41.8262904" lon="2.0945437"><ele>815.0</ele><time>2026-05-03T06:56:39.229Z</time></trkpt><trkpt lat="41.826512" lon="2.0944068"><ele>815.0</ele><time>2026-05-03T06:56:40.229Z</time></trkpt><trkpt lat="41.8267209" lon="2.0942753"><ele>813.3333333333334</ele><time>2026-05-03T06:56:41.227Z</time></trkpt><trkpt lat="41.8269019" lon="2.0941362"><ele>811.6666666666667</ele><time>2026-05-03T06:56:42.227Z</time></trkpt><trkpt lat="41.8270605" lon="2.0939779"><ele>810.0</ele><time>2026-05-03T06:56:43.228Z</time></trkpt><trkpt lat="41.8271995" lon="2.0938189"><ele>808.25</ele><time>2026-05-03T06:56:44.227Z</time></trkpt><trkpt lat="41.8273227" lon="2.0936889"><ele>806.5</ele><time>2026-05-03T06:56:45.227Z</time></trkpt><trkpt lat="41.8274528" lon="2.0936095"><ele>804.75</ele><time>2026-05-03T06:56:46.228Z</time></trkpt><trkpt lat="41.827586" lon="2.0935942"><ele>803.0</ele><time>2026-05-03T06:56:47.228Z</time></trkpt><trkpt lat="41.8277202" lon="2.0936494"><ele>802.3333333333334</ele><time>2026-05-03T06:56:48.228Z</time></trkpt><trkpt lat="41.8278435" lon="2.0937727"><ele>801.6666666666667</ele><time>2026-05-03T06:56:49.227Z</time></trkpt><trkpt lat="41.8279525" lon="2.0939518"><ele>801.0</ele><time>2026-05-03T06:56:50.227Z</time></trkpt><trkpt lat="41.8280707" lon="2.0941412"><ele>801.0</ele><time>2026-05-03T06:56:51.229Z</time></trkpt><trkpt lat="41.8282065" lon="2.0942723"><ele>801.0</ele><time>2026-05-03T06:56:52.227Z</time></trkpt><trkpt lat="41.8283606" lon="2.0943561"><ele>801.0</ele><time>2026-05-03T06:56:53.228Z</time></trkpt><trkpt lat="41.8285383" lon="2.094371"><ele>799.6666666666667</ele><time>2026-05-03T06:56:54.227Z</time></trkpt><trkpt lat="41.8287359" lon="2.0943381"><ele>798.3333333333334</ele><time>2026-05-03T06:56:55.228Z</time></trkpt><trkpt lat="41.8289518" lon="2.0942989"><ele>797.0</ele><time>2026-05-03T06:56:56.227Z</time></trkpt><trkpt lat="41.8291547" lon="2.094264"><ele>801.0</ele><time>2026-05-03T06:56:57.228Z</time></trkpt><trkpt lat="41.8293361" lon="2.094246"><ele>805.0</ele><time>2026-05-03T06:56:58.227Z</time></trkpt><trkpt lat="41.8295028" lon="2.094296"><ele>809.0</ele><time>2026-05-03T06:56:59.228Z</time></trkpt><trkpt lat="41.8296381" lon="2.094408"><ele>809.0</ele><time>2026-05-03T06:57:00.227Z</time></trkpt><trkpt lat="41.8297392" lon="2.0945549"><ele>809.0</ele><time>2026-05-03T06:57:01.228Z</time></trkpt><trkpt lat="41.8298175" lon="2.0946772"><ele>809.0</ele><time>2026-05-03T06:57:02.228Z</time></trkpt><trkpt lat="41.8299217" lon="2.0947384"><ele>809.0</ele><time>2026-05-03T06:57:03.227Z</time></trkpt><trkpt lat="41.8300307" lon="2.0947335"><ele>809.0</ele><time>2026-05-03T06:57:04.228Z</time></trkpt><trkpt lat="41.8301154" lon="2.0946523"><ele>809.0</ele><time>2026-05-03T06:57:05.228Z</time></trkpt><trkpt lat="41.8301567" lon="2.0945156"><ele>809.0</ele><time>2026-05-03T06:57:06.228Z</time></trkpt><trkpt lat="41.8301403" lon="2.0943413"><ele>809.0</ele><time>2026-05-03T06:57:07.227Z</time></trkpt><trkpt lat="41.8300929" lon="2.0941359"><ele>808.25</ele><time>2026-05-03T06:57:08.228Z</time></trkpt><trkpt lat="41.8300769" lon="2.0939283"><ele>807.5</ele><time>2026-05-03T06:57:09.227Z</time></trkpt><trkpt lat="41.8301121" lon="2.0937654"><ele>806.75</ele><time>2026-05-03T06:57:10.228Z</time></trkpt><trkpt lat="41.8301909" lon="2.0936395"><ele>806.0</ele><time>2026-05-03T06:57:11.227Z</time></trkpt><trkpt lat="41.8303202" lon="2.0935579"><ele>809.0</ele><time>2026-05-03T06:57:12.227Z</time></trkpt><trkpt lat="41.8304914" lon="2.0935048"><ele>812.0</ele><time>2026-05-03T06:57:13.229Z</time></trkpt><trkpt lat="41.8306916" lon="2.0934635"><ele>815.0</ele><time>2026-05-03T06:57:14.228Z</time></trkpt><trkpt lat="41.8309158" lon="2.0934215"><ele>818.5</ele><time>2026-05-03T06:57:15.229Z</time></trkpt><trkpt lat="41.8311553" lon="2.0933665"><ele>822.0</ele><time>2026-05-03T06:57:16.227Z</time></trkpt><trkpt lat="41.8313828" lon="2.0933234"><ele>822.0</ele><time>2026-05-03T06:57:17.228Z</time></trkpt><trkpt lat="41.8315964" lon="2.0933004"><ele>822.0</ele><time>2026-05-03T06:57:18.228Z</time></trkpt><trkpt lat="41.8318137" lon="2.0933294"><ele>822.0</ele><time>2026-05-03T06:57:19.229Z</time></trkpt><trkpt lat="41.8320357" lon="2.093412"><ele>821.0</ele><time>2026-05-03T06:57:20.227Z</time></trkpt><trkpt lat="41.8322659" lon="2.0935296"><ele>820.0</ele><time>2026-05-03T06:57:21.228Z</time></trkpt><trkpt lat="41.8325011" lon="2.0936644"><ele>815.5</ele><time>2026-05-03T06:57:22.228Z</time></trkpt><trkpt lat="41.8327502" lon="2.0938084"><ele>811.0</ele><time>2026-05-03T06:57:23.228Z</time></trkpt><trkpt lat="41.8330054" lon="2.0939632"><ele>818.5</ele><time>2026-05-03T06:57:24.229Z</time></trkpt><trkpt lat="41.8332692" lon="2.0941189"><ele>826.0</ele><time>2026-05-03T06:57:25.227Z</time></trkpt><trkpt lat="41.8335395" lon="2.0942802"><ele>826.0</ele><time>2026-05-03T06:57:26.228Z</time></trkpt><trkpt lat="41.8338127" lon="2.0944397"><ele>826.0</ele><time>2026-05-03T06:57:27.227Z</time></trkpt><trkpt lat="41.8340904" lon="2.0945981"><ele>822.0</ele><time>2026-05-03T06:57:28.228Z</time></trkpt><trkpt lat="41.8343669" lon="2.0947548"><ele>818.0</ele><time>2026-05-03T06:57:29.227Z</time></trkpt><trkpt lat="41.8346448" lon="2.0949095"><ele>827.0</ele><time>2026-05-03T06:57:30.227Z</time></trkpt><trkpt lat="41.8349176" lon="2.0950641"><ele>836.0</ele><time>2026-05-03T06:57:31.229Z</time></trkpt><trkpt lat="41.8351647" lon="2.0952049"><ele>836.0</ele><time>2026-05-03T06:57:32.227Z</time></trkpt><trkpt lat="41.8353928" lon="2.0953354"><ele>836.0</ele><time>2026-05-03T06:57:33.228Z</time></trkpt><trkpt lat="41.8355864" lon="2.0954474"><ele>836.0</ele><time>2026-05-03T06:57:34.228Z</time></trkpt><trkpt lat="41.8357795" lon="2.0955618"><ele>836.0</ele><time>2026-05-03T06:57:35.229Z</time></trkpt><trkpt lat="41.8358451" lon="2.0957188"><ele>836.0</ele><time>2026-05-03T06:57:36.227Z</time></trkpt><trkpt lat="41.8359243" lon="2.0959122"><ele>838.6666666666667</ele><time>2026-05-03T06:57:37.229Z</time></trkpt><trkpt lat="41.8359782" lon="2.0961517"><ele>841.3333333333333</ele><time>2026-05-03T06:57:38.228Z</time></trkpt><trkpt lat="41.8359883" lon="2.0964309"><ele>844.0</ele><time>2026-05-03T06:57:39.228Z</time></trkpt><trkpt lat="41.8360108" lon="2.0967224"><ele>846.0</ele><time>2026-05-03T06:57:40.228Z</time></trkpt><trkpt lat="41.8360361" lon="2.0969909"><ele>848.0</ele><time>2026-05-03T06:57:41.228Z</time></trkpt><trkpt lat="41.836096" lon="2.0972593"><ele>850.0</ele><time>2026-05-03T06:57:42.227Z</time></trkpt><trkpt lat="41.836193" lon="2.0975374"><ele>852.3333333333333</ele><time>2026-05-03T06:57:43.227Z</time></trkpt><trkpt lat="41.8362876" lon="2.0977761"><ele>854.6666666666667</ele><time>2026-05-03T06:57:44.228Z</time></trkpt><trkpt lat="41.8363868" lon="2.097971"><ele>857.0</ele><time>2026-05-03T06:57:45.228Z</time></trkpt><trkpt lat="41.8365196" lon="2.0981322"><ele>857.0</ele><time>2026-05-03T06:57:46.227Z</time></trkpt><trkpt lat="41.8366862" lon="2.0982274"><ele>857.0</ele><time>2026-05-03T06:57:47.227Z</time></trkpt><trkpt lat="41.8368716" lon="2.0982828"><ele>857.0</ele><time>2026-05-03T06:57:48.229Z</time></trkpt><trkpt lat="41.8370751" lon="2.0983237"><ele>859.0</ele><time>2026-05-03T06:57:49.228Z</time></trkpt><trkpt lat="41.8372528" lon="2.0983924"><ele>861.0</ele><time>2026-05-03T06:57:50.227Z</time></trkpt><trkpt lat="41.8374238" lon="2.0984981"><ele>863.0</ele><time>2026-05-03T06:57:51.228Z</time></trkpt><trkpt lat="41.8375863" lon="2.0986611"><ele>862.0</ele><time>2026-05-03T06:57:52.227Z</time></trkpt><trkpt lat="41.8377521" lon="2.098869"><ele>861.0</ele><time>2026-05-03T06:57:53.228Z</time></trkpt><trkpt lat="41.8379326" lon="2.0990916"><ele>861.0</ele><time>2026-05-03T06:57:54.227Z</time></trkpt><trkpt lat="41.8381178" lon="2.0993245"><ele>861.0</ele><time>2026-05-03T06:57:55.227Z</time></trkpt><trkpt lat="41.8382888" lon="2.0995402"><ele>862.5</ele><time>2026-05-03T06:57:56.229Z</time></trkpt><trkpt lat="41.8384819" lon="2.0997412"><ele>864.0</ele><time>2026-05-03T06:57:57.227Z</time></trkpt><trkpt lat="41.8386975" lon="2.0999269"><ele>864.0</ele><time>2026-05-03T06:57:58.227Z</time></trkpt><trkpt lat="41.8389202" lon="2.1001121"><ele>864.0</ele><time>2026-05-03T06:57:59.23Z</time></trkpt><trkpt lat="41.8391138" lon="2.1002812"><ele>864.0</ele><time>2026-05-03T06:58:00.229Z</time></trkpt><trkpt lat="41.8392776" lon="2.1004709"><ele>864.0</ele><time>2026-05-03T06:58:01.229Z</time></trkpt><trkpt lat="41.8394322" lon="2.1007039"><ele>864.0</ele><time>2026-05-03T06:58:02.229Z</time></trkpt><trkpt lat="41.8395918" lon="2.1009538"><ele>862.0</ele><time>2026-05-03T06:58:03.229Z</time></trkpt><trkpt lat="41.8397396" lon="2.1011905"><ele>860.0</ele><time>2026-05-03T06:58:04.23Z</time></trkpt><trkpt lat="41.8398864" lon="2.1013976"><ele>858.0</ele><time>2026-05-03T06:58:05.228Z</time></trkpt><trkpt lat="41.8400535" lon="2.1015671"><ele>857.5</ele><time>2026-05-03T06:58:06.228Z</time></trkpt><trkpt lat="41.8402548" lon="2.1016915"><ele>857.0</ele><time>2026-05-03T06:58:07.228Z</time></trkpt><trkpt lat="41.8404784" lon="2.10178"><ele>857.0</ele><time>2026-05-03T06:58:08.229Z</time></trkpt><trkpt lat="41.8407199" lon="2.101858"><ele>857.0</ele><time>2026-05-03T06:58:09.228Z</time></trkpt><trkpt lat="41.8409603" lon="2.10195"><ele>858.0</ele><time>2026-05-03T06:58:10.228Z</time></trkpt><trkpt lat="41.8411921" lon="2.1020697"><ele>859.0</ele><time>2026-05-03T06:58:11.229Z</time></trkpt><trkpt lat="41.8414127" lon="2.1022341"><ele>859.5</ele><time>2026-05-03T06:58:12.229Z</time></trkpt><trkpt lat="41.8416279" lon="2.1024228"><ele>860.0</ele><time>2026-05-03T06:58:13.229Z</time></trkpt><trkpt lat="41.8418321" lon="2.1026289"><ele>863.5</ele><time>2026-05-03T06:58:14.229Z</time></trkpt><trkpt lat="41.84201" lon="2.1028549"><ele>867.0</ele><time>2026-05-03T06:58:15.229Z</time></trkpt><trkpt lat="41.8421676" lon="2.1031175"><ele>866.5</ele><time>2026-05-03T06:58:16.23Z</time></trkpt><trkpt lat="41.8423126" lon="2.1034055"><ele>866.0</ele><time>2026-05-03T06:58:17.228Z</time></trkpt><trkpt lat="41.8424502" lon="2.1036931"><ele>866.0</ele><time>2026-05-03T06:58:18.228Z</time></trkpt><trkpt lat="41.8425776" lon="2.103946"><ele>866.0</ele><time>2026-05-03T06:58:19.229Z</time></trkpt><trkpt lat="41.8427174" lon="2.1041537"><ele>866.0</ele><time>2026-05-03T06:58:20.228Z</time></trkpt><trkpt lat="41.8428881" lon="2.1042995"><ele>871.0</ele><time>2026-05-03T06:58:21.228Z</time></trkpt><trkpt lat="41.8430925" lon="2.1044116"><ele>876.0</ele><time>2026-05-03T06:58:22.228Z</time></trkpt><trkpt lat="41.8433086" lon="2.1045232"><ele>882.5</ele><time>2026-05-03T06:58:23.228Z</time></trkpt><trkpt lat="41.8435314" lon="2.1046395"><ele>889.0</ele><time>2026-05-03T06:58:24.229Z</time></trkpt><trkpt lat="41.8437303" lon="2.1047819"><ele>885.3333333333333</ele><time>2026-05-03T06:58:25.229Z</time></trkpt><trkpt lat="41.843899" lon="2.1049399"><ele>881.6666666666667</ele><time>2026-05-03T06:58:26.228Z</time></trkpt><trkpt lat="41.8440364" lon="2.1051119"><ele>878.0</ele><time>2026-05-03T06:58:27.228Z</time></trkpt><trkpt lat="41.8441488" lon="2.1052811"><ele>878.0</ele><time>2026-05-03T06:58:28.229Z</time></trkpt><trkpt lat="41.8442441" lon="2.1054405"><ele>878.0</ele><time>2026-05-03T06:58:29.228Z</time></trkpt><trkpt lat="41.844358" lon="2.1055486"><ele>878.0</ele><time>2026-05-03T06:58:30.229Z</time></trkpt><trkpt lat="41.8444999" lon="2.1056112"><ele>878.0</ele><time>2026-05-03T06:58:31.229Z</time></trkpt><trkpt lat="41.8446701" lon="2.1056238"><ele>879.6666666666667</ele><time>2026-05-03T06:58:32.229Z</time></trkpt><trkpt lat="41.8448601" lon="2.1055993"><ele>881.3333333333333</ele><time>2026-05-03T06:58:33.228Z</time></trkpt><trkpt lat="41.8450614" lon="2.1055976"><ele>883.0</ele><time>2026-05-03T06:58:34.229Z</time></trkpt><trkpt lat="41.8452466" lon="2.105645"><ele>883.0</ele><time>2026-05-03T06:58:35.229Z</time></trkpt><trkpt lat="41.8454295" lon="2.1057316"><ele>883.0</ele><time>2026-05-03T06:58:36.228Z</time></trkpt><trkpt lat="41.845612" lon="2.1058679"><ele>883.0</ele><time>2026-05-03T06:58:37.229Z</time></trkpt><trkpt lat="41.845793" lon="2.1060512"><ele>888.0</ele><time>2026-05-03T06:58:38.229Z</time></trkpt><trkpt lat="41.8459822" lon="2.1062583"><ele>893.0</ele><time>2026-05-03T06:58:39.229Z</time></trkpt><trkpt lat="41.8461529" lon="2.1064583"><ele>891.3333333333334</ele><time>2026-05-03T06:58:40.229Z</time></trkpt><trkpt lat="41.8462954" lon="2.1066767"><ele>889.6666666666667</ele><time>2026-05-03T06:58:41.228Z</time></trkpt><trkpt lat="41.8464163" lon="2.106901"><ele>888.0</ele><time>2026-05-03T06:58:42.228Z</time></trkpt><trkpt lat="41.846536" lon="2.1070999"><ele>888.0</ele><time>2026-05-03T06:58:43.228Z</time></trkpt><trkpt lat="41.8466745" lon="2.10725"><ele>888.0</ele><time>2026-05-03T06:58:44.228Z</time></trkpt><trkpt lat="41.8468478" lon="2.1073541"><ele>888.0</ele><time>2026-05-03T06:58:45.229Z</time></trkpt><trkpt lat="41.8470477" lon="2.1074396"><ele>885.0</ele><time>2026-05-03T06:58:46.23Z</time></trkpt><trkpt lat="41.8472555" lon="2.1075174"><ele>882.0</ele><time>2026-05-03T06:58:47.228Z</time></trkpt><trkpt lat="41.8474569" lon="2.1075603"><ele>879.0</ele><time>2026-05-03T06:58:48.229Z</time></trkpt><trkpt lat="41.8476847" lon="2.1075484"><ele>876.0</ele><time>2026-05-03T06:58:49.228Z</time></trkpt><trkpt lat="41.8479256" lon="2.1075155"><ele>873.0</ele><time>2026-05-03T06:58:50.228Z</time></trkpt><trkpt lat="41.8481781" lon="2.1075048"><ele>873.0</ele><time>2026-05-03T06:58:51.228Z</time></trkpt><trkpt lat="41.8484355" lon="2.1075454"><ele>873.0</ele><time>2026-05-03T06:58:52.229Z</time></trkpt><trkpt lat="41.8486952" lon="2.1076146"><ele>874.0</ele><time>2026-05-03T06:58:53.229Z</time></trkpt><trkpt lat="41.8489648" lon="2.1077136"><ele>875.0</ele><time>2026-05-03T06:58:54.229Z</time></trkpt><trkpt lat="41.8492405" lon="2.1078164"><ele>878.5</ele><time>2026-05-03T06:58:55.229Z</time></trkpt><trkpt lat="41.8495267" lon="2.10791"><ele>882.0</ele><time>2026-05-03T06:58:56.229Z</time></trkpt><trkpt lat="41.8498051" lon="2.1080035"><ele>882.0</ele><time>2026-05-03T06:58:57.23Z</time></trkpt><trkpt lat="41.8500844" lon="2.1080969"><ele>882.0</ele><time>2026-05-03T06:58:58.229Z</time></trkpt><trkpt lat="41.8503604" lon="2.1081929"><ele>879.0</ele><time>2026-05-03T06:58:59.229Z</time></trkpt><trkpt lat="41.8506297" lon="2.1082875"><ele>876.0</ele><time>2026-05-03T06:59:00.229Z</time></trkpt><trkpt lat="41.8508993" lon="2.1083759"><ele>877.0</ele><time>2026-05-03T06:59:01.229Z</time></trkpt><trkpt lat="41.8511638" lon="2.1084679"><ele>878.0</ele><time>2026-05-03T06:59:02.229Z</time></trkpt><trkpt lat="41.851422" lon="2.1085642"><ele>878.0</ele><time>2026-05-03T06:59:03.228Z</time></trkpt><trkpt lat="41.8516709" lon="2.1086666"><ele>878.0</ele><time>2026-05-03T06:59:04.229Z</time></trkpt><trkpt lat="41.8519168" lon="2.1088063"><ele>878.5</ele><time>2026-05-03T06:59:05.23Z</time></trkpt><trkpt lat="41.8521579" lon="2.1089691"><ele>879.0</ele><time>2026-05-03T06:59:06.229Z</time></trkpt><trkpt lat="41.8523895" lon="2.1091675"><ele>876.5</ele><time>2026-05-03T06:59:07.228Z</time></trkpt><trkpt lat="41.8526281" lon="2.1093722"><ele>874.0</ele><time>2026-05-03T06:59:08.229Z</time></trkpt><trkpt lat="41.8528614" lon="2.1095975"><ele>874.0</ele><time>2026-05-03T06:59:09.228Z</time></trkpt><trkpt lat="41.8531049" lon="2.1098185"><ele>874.0</ele><time>2026-05-03T06:59:10.229Z</time></trkpt><trkpt lat="41.8533474" lon="2.1100438"><ele>873.5</ele><time>2026-05-03T06:59:11.228Z</time></trkpt><trkpt lat="41.8535906" lon="2.1102692"><ele>873.0</ele><time>2026-05-03T06:59:12.228Z</time></trkpt><trkpt lat="41.8538356" lon="2.1104949"><ele>873.0</ele><time>2026-05-03T06:59:13.229Z</time></trkpt><trkpt lat="41.8540813" lon="2.1107224"><ele>873.0</ele><time>2026-05-03T06:59:14.229Z</time></trkpt><trkpt lat="41.8543287" lon="2.1109465"><ele>874.5</ele><time>2026-05-03T06:59:15.228Z</time></trkpt><trkpt lat="41.8545766" lon="2.1111753"><ele>876.0</ele><time>2026-05-03T06:59:16.229Z</time></trkpt><trkpt lat="41.8548253" lon="2.1114072"><ele>878.5</ele><time>2026-05-03T06:59:17.229Z</time></trkpt><trkpt lat="41.8550719" lon="2.1116354"><ele>881.0</ele><time>2026-05-03T06:59:18.229Z</time></trkpt><trkpt lat="41.8553155" lon="2.1118588"><ele>883.0</ele><time>2026-05-03T06:59:19.229Z</time></trkpt><trkpt lat="41.8555381" lon="2.1120674"><ele>885.0</ele><time>2026-05-03T06:59:20.229Z</time></trkpt><trkpt lat="41.8557522" lon="2.1122683"><ele>886.5</ele><time>2026-05-03T06:59:21.229Z</time></trkpt><trkpt lat="41.8559545" lon="2.1124569"><ele>888.0</ele><time>2026-05-03T06:59:22.229Z</time></trkpt><trkpt lat="41.856148" lon="2.1126157"><ele>888.0</ele><time>2026-05-03T06:59:23.228Z</time></trkpt><trkpt lat="41.8563467" lon="2.112741"><ele>888.0</ele><time>2026-05-03T06:59:24.229Z</time></trkpt><trkpt lat="41.8565599" lon="2.1128106"><ele>888.0</ele><time>2026-05-03T06:59:25.229Z</time></trkpt><trkpt lat="41.8567899" lon="2.112832"><ele>887.0</ele><time>2026-05-03T06:59:26.228Z</time></trkpt><trkpt lat="41.8570343" lon="2.1128501"><ele>886.0</ele><time>2026-05-03T06:59:27.23Z</time></trkpt><trkpt lat="41.8572731" lon="2.112883"><ele>886.0</ele><time>2026-05-03T06:59:28.229Z</time></trkpt><trkpt lat="41.8574994" lon="2.1129317"><ele>886.0</ele><time>2026-05-03T06:59:29.229Z</time></trkpt><trkpt lat="41.8577142" lon="2.1130188"><ele>883.0</ele><time>2026-05-03T06:59:30.228Z</time></trkpt><trkpt lat="41.857925" lon="2.1131483"><ele>880.0</ele><time>2026-05-03T06:59:31.228Z</time></trkpt><trkpt lat="41.8581468" lon="2.1132445"><ele>880.0</ele><time>2026-05-03T06:59:32.229Z</time></trkpt><trkpt lat="41.8583897" lon="2.1133002"><ele>880.0</ele><time>2026-05-03T06:59:33.229Z</time></trkpt><trkpt lat="41.8586411" lon="2.1133729"><ele>878.5</ele><time>2026-05-03T06:59:34.23Z</time></trkpt><trkpt lat="41.8588996" lon="2.1134484"><ele>877.0</ele><time>2026-05-03T06:59:35.229Z</time></trkpt><trkpt lat="41.859162" lon="2.1135248"><ele>875.0</ele><time>2026-05-03T06:59:36.229Z</time></trkpt><trkpt lat="41.8594353" lon="2.1136066"><ele>873.0</ele><time>2026-05-03T06:59:37.229Z</time></trkpt><trkpt lat="41.8596967" lon="2.113684"><ele>873.0</ele><time>2026-05-03T06:59:38.229Z</time></trkpt><trkpt lat="41.8599087" lon="2.1137451"><ele>873.0</ele><time>2026-05-03T06:59:39.229Z</time></trkpt><trkpt lat="41.8601276" lon="2.1138091"><ele>873.0</ele><time>2026-05-03T06:59:40.229Z</time></trkpt><trkpt lat="41.860282" lon="2.1137895"><ele>872.6666666666667</ele><time>2026-05-03T06:59:41.229Z</time></trkpt><trkpt lat="41.86047" lon="2.1137804"><ele>872.3333333333334</ele><time>2026-05-03T06:59:42.228Z</time></trkpt><trkpt lat="41.8606316" lon="2.1135831"><ele>872.0</ele><time>2026-05-03T06:59:43.23Z</time></trkpt><trkpt lat="41.8608236" lon="2.1134507"><ele>871.5</ele><time>2026-05-03T06:59:44.228Z</time></trkpt><trkpt lat="41.8610373" lon="2.1133527"><ele>871.0</ele><time>2026-05-03T06:59:45.228Z</time></trkpt><trkpt lat="41.8612506" lon="2.1132541"><ele>871.0</ele><time>2026-05-03T06:59:46.229Z</time></trkpt><trkpt lat="41.8615361" lon="2.1132843"><ele>871.0</ele><time>2026-05-03T06:59:47.229Z</time></trkpt><trkpt lat="41.8617986" lon="2.1132435"><ele>870.0</ele><time>2026-05-03T06:59:48.23Z</time></trkpt><trkpt lat="41.8620747" lon="2.1132092"><ele>869.0</ele><time>2026-05-03T06:59:49.228Z</time></trkpt><trkpt lat="41.8623526" lon="2.1131747"><ele>868.5</ele><time>2026-05-03T06:59:50.229Z</time></trkpt><trkpt lat="41.8626232" lon="2.1131409"><ele>868.0</ele><time>2026-05-03T06:59:51.229Z</time></trkpt><trkpt lat="41.8628855" lon="2.1130995"><ele>868.0</ele><time>2026-05-03T06:59:52.229Z</time></trkpt><trkpt lat="41.8631482" lon="2.1130412"><ele>868.0</ele><time>2026-05-03T06:59:53.229Z</time></trkpt><trkpt lat="41.8634176" lon="2.1129532"><ele>868.0</ele><time>2026-05-03T06:59:54.229Z</time></trkpt><trkpt lat="41.8636943" lon="2.1128567"><ele>868.0</ele><time>2026-05-03T06:59:55.229Z</time></trkpt><trkpt lat="41.8639797" lon="2.1127596"><ele>868.0</ele><time>2026-05-03T06:59:56.229Z</time></trkpt><trkpt lat="41.8642653" lon="2.1126623"><ele>868.0</ele><time>2026-05-03T06:59:57.228Z</time></trkpt><trkpt lat="41.8645296" lon="2.112568"><ele>868.5</ele><time>2026-05-03T06:59:58.229Z</time></trkpt><trkpt lat="41.8647769" lon="2.1124813"><ele>869.0</ele><time>2026-05-03T06:59:59.228Z</time></trkpt><trkpt lat="41.8650033" lon="2.1123978"><ele>869.3333333333334</ele><time>2026-05-03T07:00:00.23Z</time></trkpt><trkpt lat="41.8652153" lon="2.1123246"><ele>869.6666666666667</ele><time>2026-05-03T07:00:01.228Z</time></trkpt><trkpt lat="41.8654115" lon="2.1122544"><ele>870.0</ele><time>2026-05-03T07:00:02.229Z</time></trkpt><trkpt lat="41.8655881" lon="2.1121908"><ele>870.0</ele><time>2026-05-03T07:00:03.228Z</time></trkpt><trkpt lat="41.8657589" lon="2.1121706"><ele>870.0</ele><time>2026-05-03T07:00:04.229Z</time></trkpt><trkpt lat="41.8659298" lon="2.1121978"><ele>870.0</ele><time>2026-05-03T07:00:05.229Z</time></trkpt><trkpt lat="41.8660997" lon="2.1122634"><ele>870.0</ele><time>2026-05-03T07:00:06.228Z</time></trkpt><trkpt lat="41.8662616" lon="2.112346"><ele>870.0</ele><time>2026-05-03T07:00:07.228Z</time></trkpt><trkpt lat="41.8664238" lon="2.1124269"><ele>870.0</ele><time>2026-05-03T07:00:08.23Z</time></trkpt><trkpt lat="41.8665842" lon="2.1125091"><ele>870.25</ele><time>2026-05-03T07:00:09.228Z</time></trkpt><trkpt lat="41.8667345" lon="2.1125803"><ele>870.5</ele><time>2026-05-03T07:00:10.229Z</time></trkpt><trkpt lat="41.866867" lon="2.1126481"><ele>870.75</ele><time>2026-05-03T07:00:11.229Z</time></trkpt><trkpt lat="41.866984" lon="2.1127103"><ele>871.0</ele><time>2026-05-03T07:00:12.23Z</time></trkpt><trkpt lat="41.867082" lon="2.1127627"><ele>870.9999999999999</ele><time>2026-05-03T07:00:13.228Z</time></trkpt><trkpt lat="41.8671698" lon="2.1128115"><ele>871.0</ele><time>2026-05-03T07:00:14.229Z</time></trkpt><trkpt lat="41.8672377" lon="2.1128499"><ele>871.0</ele><time>2026-05-03T07:00:15.229Z</time></trkpt><trkpt lat="41.8673362" lon="2.1129043"><ele>871.0</ele><time>2026-05-03T07:00:17.229Z</time></trkpt><trkpt lat="41.8674056" lon="2.1129362"><ele>870.9999999999999</ele><time>2026-05-03T07:00:19.228Z</time></trkpt><trkpt lat="41.8674979" lon="2.1129806"><ele>871.0</ele><time>2026-05-03T07:00:21.229Z</time></trkpt><trkpt lat="41.8675701" lon="2.1130163"><ele>871.75</ele><time>2026-05-03T07:00:22.228Z</time></trkpt><trkpt lat="41.8676651" lon="2.1130546"><ele>872.5</ele><time>2026-05-03T07:00:23.228Z</time></trkpt><trkpt lat="41.8677754" lon="2.1131068"><ele>873.25</ele><time>2026-05-03T07:00:24.23Z</time></trkpt><trkpt lat="41.8678946" lon="2.1131675"><ele>874.0</ele><time>2026-05-03T07:00:25.228Z</time></trkpt><trkpt lat="41.8680168" lon="2.1132309"><ele>873.6</ele><time>2026-05-03T07:00:26.228Z</time></trkpt><trkpt lat="41.868131" lon="2.113289"><ele>873.2</ele><time>2026-05-03T07:00:27.229Z</time></trkpt><trkpt lat="41.8682277" lon="2.1133386"><ele>872.8000000000001</ele><time>2026-05-03T07:00:28.228Z</time></trkpt><trkpt lat="41.8683162" lon="2.1133817"><ele>872.4000000000001</ele><time>2026-05-03T07:00:29.229Z</time></trkpt><trkpt lat="41.8684107" lon="2.1134233"><ele>872.0</ele><time>2026-05-03T07:00:30.229Z</time></trkpt><trkpt lat="41.8685195" lon="2.1134762"><ele>872.0</ele><time>2026-05-03T07:00:31.23Z</time></trkpt><trkpt lat="41.8686415" lon="2.1135349"><ele>872.0</ele><time>2026-05-03T07:00:32.228Z</time></trkpt><trkpt lat="41.8687797" lon="2.1136041"><ele>872.0</ele><time>2026-05-03T07:00:33.228Z</time></trkpt><trkpt lat="41.8689295" lon="2.1136831"><ele>872.0</ele><time>2026-05-03T07:00:34.229Z</time></trkpt><trkpt lat="41.8690911" lon="2.1137653"><ele>872.0</ele><time>2026-05-03T07:00:35.23Z</time></trkpt><trkpt lat="41.8692628" lon="2.1138489"><ele>872.0</ele><time>2026-05-03T07:00:36.229Z</time></trkpt><trkpt lat="41.8694441" lon="2.1139393"><ele>872.0</ele><time>2026-05-03T07:00:37.229Z</time></trkpt><trkpt lat="41.8696092" lon="2.1140267"><ele>873.3333333333334</ele><time>2026-05-03T07:00:38.229Z</time></trkpt><trkpt lat="41.8697615" lon="2.1141086"><ele>874.6666666666667</ele><time>2026-05-03T07:00:39.229Z</time></trkpt><trkpt lat="41.8699156" lon="2.1142129"><ele>876.0</ele><time>2026-05-03T07:00:40.228Z</time></trkpt><trkpt lat="41.8700698" lon="2.1143522"><ele>877.3333333333333</ele><time>2026-05-03T07:00:41.229Z</time></trkpt><trkpt lat="41.8702266" lon="2.1145063"><ele>878.6666666666666</ele><time>2026-05-03T07:00:42.229Z</time></trkpt><trkpt lat="41.8703616" lon="2.1146346"><ele>880.0</ele><time>2026-05-03T07:00:43.23Z</time></trkpt><trkpt lat="41.8704871" lon="2.1147187"><ele>880.0</ele><time>2026-05-03T07:00:44.229Z</time></trkpt><trkpt lat="41.8706327" lon="2.1147389"><ele>880.0</ele><time>2026-05-03T07:00:45.229Z</time></trkpt><trkpt lat="41.8708088" lon="2.1147247"><ele>880.0</ele><time>2026-05-03T07:00:46.23Z</time></trkpt><trkpt lat="41.8710172" lon="2.1146838"><ele>876.5</ele><time>2026-05-03T07:00:47.229Z</time></trkpt><trkpt lat="41.8712518" lon="2.1146453"><ele>873.0</ele><time>2026-05-03T07:00:48.229Z</time></trkpt><trkpt lat="41.8715052" lon="2.1146044"><ele>873.0</ele><time>2026-05-03T07:00:49.229Z</time></trkpt><trkpt lat="41.8717712" lon="2.1145581"><ele>873.0</ele><time>2026-05-03T07:00:50.229Z</time></trkpt><trkpt lat="41.8720124" lon="2.1145143"><ele>871.0</ele><time>2026-05-03T07:00:51.228Z</time></trkpt><trkpt lat="41.8722452" lon="2.1144685"><ele>869.0</ele><time>2026-05-03T07:00:52.23Z</time></trkpt><trkpt lat="41.8724654" lon="2.1144076"><ele>867.3333333333334</ele><time>2026-05-03T07:00:53.228Z</time></trkpt><trkpt lat="41.8726631" lon="2.1143258"><ele>865.6666666666667</ele><time>2026-05-03T07:00:54.228Z</time></trkpt><trkpt lat="41.8728289" lon="2.1142424"><ele>864.0</ele><time>2026-05-03T07:00:55.228Z</time></trkpt><trkpt lat="41.8729769" lon="2.1141922"><ele>864.0</ele><time>2026-05-03T07:00:56.228Z</time></trkpt><trkpt lat="41.8731181" lon="2.1142094"><ele>864.0</ele><time>2026-05-03T07:00:57.228Z</time></trkpt><trkpt lat="41.8732728" lon="2.1142237"><ele>864.0</ele><time>2026-05-03T07:00:58.228Z</time></trkpt><trkpt lat="41.8734358" lon="2.1142931"><ele>860.5</ele><time>2026-05-03T07:00:59.229Z</time></trkpt><trkpt lat="41.873676" lon="2.1143838"><ele>857.0</ele><time>2026-05-03T07:01:00.228Z</time></trkpt><trkpt lat="41.8738944" lon="2.1143841"><ele>857.0</ele><time>2026-05-03T07:01:01.228Z</time></trkpt><trkpt lat="41.8741311" lon="2.1143809"><ele>857.0</ele><time>2026-05-03T07:01:02.228Z</time></trkpt><trkpt lat="41.8744102" lon="2.1143063"><ele>851.5</ele><time>2026-05-03T07:01:03.229Z</time></trkpt><trkpt lat="41.8746514" lon="2.1142683"><ele>846.0</ele><time>2026-05-03T07:01:04.229Z</time></trkpt><trkpt lat="41.8748674" lon="2.1142292"><ele>846.0</ele><time>2026-05-03T07:01:05.229Z</time></trkpt><trkpt lat="41.8750512" lon="2.1141608"><ele>846.0</ele><time>2026-05-03T07:01:06.228Z</time></trkpt><trkpt lat="41.8752175" lon="2.1140436"><ele>846.0</ele><time>2026-05-03T07:01:07.228Z</time></trkpt><trkpt lat="41.8753689" lon="2.1138774"><ele>844.0</ele><time>2026-05-03T07:01:08.228Z</time></trkpt><trkpt lat="41.8754842" lon="2.1136738"><ele>842.0</ele><time>2026-05-03T07:01:09.228Z</time></trkpt><trkpt lat="41.8755702" lon="2.1134892"><ele>840.0</ele><time>2026-05-03T07:01:10.229Z</time></trkpt><trkpt lat="41.8756664" lon="2.1133464"><ele>840.0</ele><time>2026-05-03T07:01:11.229Z</time></trkpt><trkpt lat="41.8757782" lon="2.1132568"><ele>840.0</ele><time>2026-05-03T07:01:12.228Z</time></trkpt><trkpt lat="41.8759259" lon="2.1132217"><ele>840.0</ele><time>2026-05-03T07:01:13.229Z</time></trkpt><trkpt lat="41.8760992" lon="2.1132583"><ele>838.0</ele><time>2026-05-03T07:01:14.229Z</time></trkpt><trkpt lat="41.8762798" lon="2.1133061"><ele>836.0</ele><time>2026-05-03T07:01:15.229Z</time></trkpt><trkpt lat="41.8764546" lon="2.1132983"><ele>834.0</ele><time>2026-05-03T07:01:16.23Z</time></trkpt><trkpt lat="41.8766418" lon="2.1132207"><ele>837.0</ele><time>2026-05-03T07:01:17.228Z</time></trkpt><trkpt lat="41.8768458" lon="2.1131268"><ele>840.0</ele><time>2026-05-03T07:01:18.229Z</time></trkpt><trkpt lat="41.8770778" lon="2.1129476"><ele>840.0</ele><time>2026-05-03T07:01:19.23Z</time></trkpt><trkpt lat="41.8773135" lon="2.1128024"><ele>840.0</ele><time>2026-05-03T07:01:20.228Z</time></trkpt><trkpt lat="41.8775561" lon="2.1126471"><ele>840.5</ele><time>2026-05-03T07:01:21.228Z</time></trkpt><trkpt lat="41.8778062" lon="2.1124856"><ele>841.0</ele><time>2026-05-03T07:01:22.229Z</time></trkpt><trkpt lat="41.8780595" lon="2.1123227"><ele>841.0</ele><time>2026-05-03T07:01:23.23Z</time></trkpt><trkpt lat="41.8783171" lon="2.1121589"><ele>841.0</ele><time>2026-05-03T07:01:24.228Z</time></trkpt><trkpt lat="41.8785744" lon="2.1119957"><ele>831.0</ele><time>2026-05-03T07:01:25.228Z</time></trkpt><trkpt lat="41.878827" lon="2.1118341"><ele>821.0</ele><time>2026-05-03T07:01:26.228Z</time></trkpt><trkpt lat="41.8790793" lon="2.1116729"><ele>822.5</ele><time>2026-05-03T07:01:27.23Z</time></trkpt><trkpt lat="41.8793291" lon="2.1115163"><ele>824.0</ele><time>2026-05-03T07:01:28.229Z</time></trkpt><trkpt lat="41.8795809" lon="2.1113653"><ele>824.0</ele><time>2026-05-03T07:01:29.229Z</time></trkpt><trkpt lat="41.8798336" lon="2.1112378"><ele>824.0</ele><time>2026-05-03T07:01:30.228Z</time></trkpt><trkpt lat="41.8800665" lon="2.1111383"><ele>821.3333333333334</ele><time>2026-05-03T07:01:31.229Z</time></trkpt><trkpt lat="41.8802697" lon="2.1110685"><ele>818.6666666666667</ele><time>2026-05-03T07:01:32.228Z</time></trkpt><trkpt lat="41.8804457" lon="2.1110367"><ele>816.0</ele><time>2026-05-03T07:01:33.229Z</time></trkpt><trkpt lat="41.8806146" lon="2.1110638"><ele>816.0</ele><time>2026-05-03T07:01:34.229Z</time></trkpt><trkpt lat="41.8807765" lon="2.1111482"><ele>816.0</ele><time>2026-05-03T07:01:35.228Z</time></trkpt><trkpt lat="41.8809276" lon="2.111246"><ele>816.0</ele><time>2026-05-03T07:01:36.228Z</time></trkpt><trkpt lat="41.8810834" lon="2.1112727"><ele>814.0</ele><time>2026-05-03T07:01:37.229Z</time></trkpt><trkpt lat="41.8812551" lon="2.1112399"><ele>812.0</ele><time>2026-05-03T07:01:38.229Z</time></trkpt><trkpt lat="41.88144" lon="2.1111937"><ele>810.0</ele><time>2026-05-03T07:01:39.228Z</time></trkpt><trkpt lat="41.8816222" lon="2.1110822"><ele>808.6666666666667</ele><time>2026-05-03T07:01:40.229Z</time></trkpt><trkpt lat="41.8817863" lon="2.1110574"><ele>807.3333333333334</ele><time>2026-05-03T07:01:41.229Z</time></trkpt><trkpt lat="41.881946" lon="2.111099"><ele>806.0</ele><time>2026-05-03T07:01:42.23Z</time></trkpt><trkpt lat="41.8821031" lon="2.1111326"><ele>806.0</ele><time>2026-05-03T07:01:43.229Z</time></trkpt><trkpt lat="41.8822468" lon="2.1113545"><ele>806.0</ele><time>2026-05-03T07:01:44.228Z</time></trkpt><trkpt lat="41.8823961" lon="2.1114817"><ele>806.0</ele><time>2026-05-03T07:01:45.229Z</time></trkpt><trkpt lat="41.8825509" lon="2.1115583"><ele>805.0</ele><time>2026-05-03T07:01:46.229Z</time></trkpt><trkpt lat="41.8827256" lon="2.1115782"><ele>804.0</ele><time>2026-05-03T07:01:47.229Z</time></trkpt><trkpt lat="41.8829229" lon="2.1115478"><ele>803.0</ele><time>2026-05-03T07:01:48.229Z</time></trkpt><trkpt lat="41.8831094" lon="2.1115202"><ele>803.0</ele><time>2026-05-03T07:01:49.229Z</time></trkpt><trkpt lat="41.8832678" lon="2.1114807"><ele>803.0</ele><time>2026-05-03T07:01:50.23Z</time></trkpt><trkpt lat="41.8834104" lon="2.1114027"><ele>803.0</ele><time>2026-05-03T07:01:51.228Z</time></trkpt><trkpt lat="41.8835216" lon="2.1112819"><ele>800.75</ele><time>2026-05-03T07:01:52.229Z</time></trkpt><trkpt lat="41.8836326" lon="2.1111471"><ele>798.5</ele><time>2026-05-03T07:01:53.229Z</time></trkpt><trkpt lat="41.8837359" lon="2.1110692"><ele>796.25</ele><time>2026-05-03T07:01:54.228Z</time></trkpt><trkpt lat="41.8838357" lon="2.1110479"><ele>794.0</ele><time>2026-05-03T07:01:55.229Z</time></trkpt><trkpt lat="41.8839305" lon="2.1110962"><ele>794.0</ele><time>2026-05-03T07:01:56.229Z</time></trkpt><trkpt lat="41.8839963" lon="2.1112028"><ele>794.0</ele><time>2026-05-03T07:01:57.228Z</time></trkpt><trkpt lat="41.8840105" lon="2.111336"><ele>794.0</ele><time>2026-05-03T07:01:58.229Z</time></trkpt><trkpt lat="41.8839656" lon="2.111479"><ele>794.0</ele><time>2026-05-03T07:01:59.229Z</time></trkpt><trkpt lat="41.8838704" lon="2.1116277"><ele>793.0</ele><time>2026-05-03T07:02:00.229Z</time></trkpt><trkpt lat="41.8837263" lon="2.1117654"><ele>792.0</ele><time>2026-05-03T07:02:01.229Z</time></trkpt><trkpt lat="41.8835646" lon="2.1118746"><ele>791.0</ele><time>2026-05-03T07:02:02.229Z</time></trkpt><trkpt lat="41.8834209" lon="2.1119585"><ele>791.0</ele><time>2026-05-03T07:02:03.229Z</time></trkpt><trkpt lat="41.8833134" lon="2.1120852"><ele>791.0</ele><time>2026-05-03T07:02:04.229Z</time></trkpt><trkpt lat="41.883249" lon="2.1122425"><ele>791.0</ele><time>2026-05-03T07:02:05.229Z</time></trkpt><trkpt lat="41.883203" lon="2.1124321"><ele>791.0</ele><time>2026-05-03T07:02:06.229Z</time></trkpt><trkpt lat="41.8831346" lon="2.1126071"><ele>786.3333333333334</ele><time>2026-05-03T07:02:07.229Z</time></trkpt><trkpt lat="41.8830244" lon="2.1127549"><ele>781.6666666666667</ele><time>2026-05-03T07:02:08.228Z</time></trkpt><trkpt lat="41.8828851" lon="2.1128546"><ele>777.0</ele><time>2026-05-03T07:02:09.229Z</time></trkpt><trkpt lat="41.8827178" lon="2.1128983"><ele>778.25</ele><time>2026-05-03T07:02:10.228Z</time></trkpt><trkpt lat="41.8825711" lon="2.1129167"><ele>779.5</ele><time>2026-05-03T07:02:11.23Z</time></trkpt><trkpt lat="41.882448" lon="2.1129628"><ele>780.75</ele><time>2026-05-03T07:02:12.228Z</time></trkpt><trkpt lat="41.88235" lon="2.1130512"><ele>782.0</ele><time>2026-05-03T07:02:13.228Z</time></trkpt><trkpt lat="41.8822891" lon="2.1131761"><ele>780.5</ele><time>2026-05-03T07:02:14.229Z</time></trkpt><trkpt lat="41.882281" lon="2.1133345"><ele>779.0</ele><time>2026-05-03T07:02:15.228Z</time></trkpt><trkpt lat="41.8823199" lon="2.1134951"><ele>777.5</ele><time>2026-05-03T07:02:16.228Z</time></trkpt><trkpt lat="41.8824268" lon="2.1136684"><ele>776.0</ele><time>2026-05-03T07:02:17.23Z</time></trkpt><trkpt lat="41.882548" lon="2.1138405"><ele>773.75</ele><time>2026-05-03T07:02:18.228Z</time></trkpt><trkpt lat="41.88264" lon="2.1139664"><ele>771.5</ele><time>2026-05-03T07:02:19.228Z</time></trkpt><trkpt lat="41.8827607" lon="2.1140379"><ele>769.25</ele><time>2026-05-03T07:02:20.229Z</time></trkpt><trkpt lat="41.8829026" lon="2.1140416"><ele>767.0</ele><time>2026-05-03T07:02:21.229Z</time></trkpt><trkpt lat="41.8830708" lon="2.1139824"><ele>767.0</ele><time>2026-05-03T07:02:22.229Z</time></trkpt><trkpt lat="41.8832567" lon="2.1138756"><ele>767.0</ele><time>2026-05-03T07:02:23.228Z</time></trkpt><trkpt lat="41.8834617" lon="2.113745"><ele>767.0</ele><time>2026-05-03T07:02:24.229Z</time></trkpt><trkpt lat="41.8836628" lon="2.113595"><ele>766.3333333333333</ele><time>2026-05-03T07:02:25.229Z</time></trkpt><trkpt lat="41.8838417" lon="2.1134683"><ele>765.6666666666666</ele><time>2026-05-03T07:02:26.228Z</time></trkpt><trkpt lat="41.8840313" lon="2.1133934"><ele>765.0</ele><time>2026-05-03T07:02:27.229Z</time></trkpt><trkpt lat="41.8842384" lon="2.1133667"><ele>766.3333333333333</ele><time>2026-05-03T07:02:28.229Z</time></trkpt><trkpt lat="41.884425" lon="2.1133413"><ele>767.6666666666666</ele><time>2026-05-03T07:02:29.229Z</time></trkpt><trkpt lat="41.8845872" lon="2.1132549"><ele>769.0</ele><time>2026-05-03T07:02:30.228Z</time></trkpt><trkpt lat="41.8847344" lon="2.1130993"><ele>766.0</ele><time>2026-05-03T07:02:31.229Z</time></trkpt><trkpt lat="41.8848726" lon="2.1129607"><ele>763.0</ele><time>2026-05-03T07:02:32.229Z</time></trkpt><trkpt lat="41.8849997" lon="2.1128568"><ele>760.0</ele><time>2026-05-03T07:02:33.23Z</time></trkpt><trkpt lat="41.8851391" lon="2.1128126"><ele>758.6666666666667</ele><time>2026-05-03T07:02:34.229Z</time></trkpt><trkpt lat="41.8852735" lon="2.1128351"><ele>757.3333333333334</ele><time>2026-05-03T07:02:35.229Z</time></trkpt><trkpt lat="41.8854149" lon="2.1128741"><ele>756.0</ele><time>2026-05-03T07:02:36.228Z</time></trkpt><trkpt lat="41.8855589" lon="2.1130335"><ele>756.0</ele><time>2026-05-03T07:02:37.229Z</time></trkpt><trkpt lat="41.8856995" lon="2.1131206"><ele>756.0</ele><time>2026-05-03T07:02:38.229Z</time></trkpt><trkpt lat="41.8858522" lon="2.1131231"><ele>756.0</ele><time>2026-05-03T07:02:39.229Z</time></trkpt><trkpt lat="41.8859941" lon="2.1130751"><ele>762.6666666666667</ele><time>2026-05-03T07:02:40.229Z</time></trkpt><trkpt lat="41.8861212" lon="2.1129702"><ele>769.3333333333334</ele><time>2026-05-03T07:02:41.229Z</time></trkpt><trkpt lat="41.8862248" lon="2.1127996"><ele>776.0</ele><time>2026-05-03T07:02:42.23Z</time></trkpt><trkpt lat="41.8863149" lon="2.1125549"><ele>770.5</ele><time>2026-05-03T07:02:43.228Z</time></trkpt><trkpt lat="41.8864126" lon="2.1122865"><ele>765.0</ele><time>2026-05-03T07:02:44.23Z</time></trkpt><trkpt lat="41.8865166" lon="2.1119861"><ele>765.0</ele><time>2026-05-03T07:02:45.229Z</time></trkpt><trkpt lat="41.8866225" lon="2.1116838"><ele>765.0</ele><time>2026-05-03T07:02:46.23Z</time></trkpt><trkpt lat="41.8867199" lon="2.1114134"><ele>763.6666666666666</ele><time>2026-05-03T07:02:47.231Z</time></trkpt><trkpt lat="41.8868312" lon="2.1111608"><ele>762.3333333333333</ele><time>2026-05-03T07:02:48.229Z</time></trkpt><trkpt lat="41.8869819" lon="2.1109269"><ele>761.0</ele><time>2026-05-03T07:02:49.23Z</time></trkpt><trkpt lat="41.8871515" lon="2.1106984"><ele>761.0</ele><time>2026-05-03T07:02:50.23Z</time></trkpt><trkpt lat="41.8873165" lon="2.1104752"><ele>761.0</ele><time>2026-05-03T07:02:51.229Z</time></trkpt><trkpt lat="41.8874605" lon="2.1102396"><ele>761.0</ele><time>2026-05-03T07:02:52.229Z</time></trkpt><trkpt lat="41.8875752" lon="2.1099665"><ele>761.0</ele><time>2026-05-03T07:02:53.229Z</time></trkpt><trkpt lat="41.8876777" lon="2.1096431"><ele>763.0</ele><time>2026-05-03T07:02:54.23Z</time></trkpt><trkpt lat="41.8877664" lon="2.1093369"><ele>765.0</ele><time>2026-05-03T07:02:55.229Z</time></trkpt><trkpt lat="41.8878475" lon="2.1090608"><ele>760.0</ele><time>2026-05-03T07:02:56.229Z</time></trkpt><trkpt lat="41.8879198" lon="2.1088352"><ele>755.0</ele><time>2026-05-03T07:02:57.23Z</time></trkpt><trkpt lat="41.8879991" lon="2.1086588"><ele>750.0</ele><time>2026-05-03T07:02:58.229Z</time></trkpt><trkpt lat="41.8881051" lon="2.1085389"><ele>750.0</ele><time>2026-05-03T07:02:59.23Z</time></trkpt><trkpt lat="41.8882207" lon="2.1084781"><ele>750.0</ele><time>2026-05-03T07:03:00.229Z</time></trkpt><trkpt lat="41.8883518" lon="2.1084995"><ele>750.0</ele><time>2026-05-03T07:03:01.231Z</time></trkpt><trkpt lat="41.8884793" lon="2.1085924"><ele>750.0</ele><time>2026-05-03T07:03:02.23Z</time></trkpt><trkpt lat="41.8885926" lon="2.1087568"><ele>749.3333333333334</ele><time>2026-05-03T07:03:03.23Z</time></trkpt><trkpt lat="41.8886885" lon="2.1089793"><ele>748.6666666666667</ele><time>2026-05-03T07:03:04.23Z</time></trkpt><trkpt lat="41.8887801" lon="2.1091829"><ele>748.0</ele><time>2026-05-03T07:03:05.23Z</time></trkpt><trkpt lat="41.8888874" lon="2.1093304"><ele>748.0</ele><time>2026-05-03T07:03:06.231Z</time></trkpt><trkpt lat="41.8890071" lon="2.1094505"><ele>748.0</ele><time>2026-05-03T07:03:07.23Z</time></trkpt><trkpt lat="41.8891322" lon="2.1095557"><ele>748.0</ele><time>2026-05-03T07:03:08.23Z</time></trkpt><trkpt lat="41.8893792" lon="2.1095029"><ele>745.5</ele><time>2026-05-03T07:03:09.23Z</time></trkpt><trkpt lat="41.8896711" lon="2.1094341"><ele>743.0</ele><time>2026-05-03T07:03:10.23Z</time></trkpt><trkpt lat="41.8898816" lon="2.1094422"><ele>743.0</ele><time>2026-05-03T07:03:11.231Z</time></trkpt><trkpt lat="41.8900684" lon="2.109423"><ele>743.0</ele><time>2026-05-03T07:03:12.23Z</time></trkpt><trkpt lat="41.8902441" lon="2.1093431"><ele>743.0</ele><time>2026-05-03T07:03:13.229Z</time></trkpt><trkpt lat="41.8903902" lon="2.1091945"><ele>743.0</ele><time>2026-05-03T07:03:14.231Z</time></trkpt><trkpt lat="41.8905329" lon="2.1089745"><ele>743.0</ele><time>2026-05-03T07:03:15.23Z</time></trkpt><trkpt lat="41.8906927" lon="2.1087142"><ele>743.0</ele><time>2026-05-03T07:03:16.23Z</time></trkpt><trkpt lat="41.8908494" lon="2.1084439"><ele>743.0</ele><time>2026-05-03T07:03:17.23Z</time></trkpt><trkpt lat="41.8909623" lon="2.1081691"><ele>747.5</ele><time>2026-05-03T07:03:18.231Z</time></trkpt><trkpt lat="41.8910516" lon="2.1078519"><ele>752.0</ele><time>2026-05-03T07:03:19.229Z</time></trkpt><trkpt lat="41.8911225" lon="2.1075579"><ele>748.0</ele><time>2026-05-03T07:03:20.23Z</time></trkpt><trkpt lat="41.8911892" lon="2.1073078"><ele>744.0</ele><time>2026-05-03T07:03:21.23Z</time></trkpt><trkpt lat="41.8912657" lon="2.1070967"><ele>740.0</ele><time>2026-05-03T07:03:22.229Z</time></trkpt><trkpt lat="41.8913713" lon="2.1069337"><ele>740.0</ele><time>2026-05-03T07:03:23.23Z</time></trkpt><trkpt lat="41.891506" lon="2.106809"><ele>740.0</ele><time>2026-05-03T07:03:24.23Z</time></trkpt><trkpt lat="41.8917135" lon="2.1067385"><ele>740.0</ele><time>2026-05-03T07:03:25.23Z</time></trkpt><trkpt lat="41.8919374" lon="2.1066667"><ele>741.3333333333333</ele><time>2026-05-03T07:03:26.229Z</time></trkpt><trkpt lat="41.8921418" lon="2.1065972"><ele>742.6666666666666</ele><time>2026-05-03T07:03:27.231Z</time></trkpt><trkpt lat="41.892333" lon="2.1064912"><ele>744.0</ele><time>2026-05-03T07:03:28.23Z</time></trkpt><trkpt lat="41.8924943" lon="2.1063342"><ele>742.5</ele><time>2026-05-03T07:03:29.23Z</time></trkpt><trkpt lat="41.8926372" lon="2.1061006"><ele>741.0</ele><time>2026-05-03T07:03:30.229Z</time></trkpt><trkpt lat="41.8927681" lon="2.1058228"><ele>738.6666666666666</ele><time>2026-05-03T07:03:31.23Z</time></trkpt><trkpt lat="41.8928711" lon="2.1055724"><ele>736.3333333333333</ele><time>2026-05-03T07:03:32.229Z</time></trkpt><trkpt lat="41.892983" lon="2.1053732"><ele>734.0</ele><time>2026-05-03T07:03:33.23Z</time></trkpt><trkpt lat="41.8931221" lon="2.1052398"><ele>734.0</ele><time>2026-05-03T07:03:34.23Z</time></trkpt><trkpt lat="41.8933105" lon="2.1051524"><ele>734.0</ele><time>2026-05-03T07:03:35.23Z</time></trkpt><trkpt lat="41.8935285" lon="2.1050631"><ele>734.0</ele><time>2026-05-03T07:03:36.23Z</time></trkpt><trkpt lat="41.8937685" lon="2.1049752"><ele>733.0</ele><time>2026-05-03T07:03:37.23Z</time></trkpt><trkpt lat="41.8939744" lon="2.1049021"><ele>732.0</ele><time>2026-05-03T07:03:38.231Z</time></trkpt><trkpt lat="41.8941377" lon="2.104842"><ele>731.0</ele><time>2026-05-03T07:03:39.229Z</time></trkpt><trkpt lat="41.8942697" lon="2.1048125"><ele>728.0</ele><time>2026-05-03T07:03:40.23Z</time></trkpt><trkpt lat="41.8943782" lon="2.1048453"><ele>725.0</ele><time>2026-05-03T07:03:41.229Z</time></trkpt><trkpt lat="41.8944755" lon="2.1049366"><ele>722.0</ele><time>2026-05-03T07:03:42.23Z</time></trkpt><trkpt lat="41.8945378" lon="2.1050992"><ele>719.0</ele><time>2026-05-03T07:03:43.23Z</time></trkpt><trkpt lat="41.8945864" lon="2.1053268"><ele>718.6666666666666</ele><time>2026-05-03T07:03:44.23Z</time></trkpt><trkpt lat="41.8946011" lon="2.1055968"><ele>718.3333333333334</ele><time>2026-05-03T07:03:45.23Z</time></trkpt><trkpt lat="41.8946336" lon="2.1058071"><ele>718.0</ele><time>2026-05-03T07:03:46.23Z</time></trkpt><trkpt lat="41.8946974" lon="2.1059809"><ele>719.0</ele><time>2026-05-03T07:03:47.23Z</time></trkpt><trkpt lat="41.894809" lon="2.1061256"><ele>720.0</ele><time>2026-05-03T07:03:48.229Z</time></trkpt><trkpt lat="41.8949762" lon="2.1062499"><ele>721.0</ele><time>2026-05-03T07:03:49.231Z</time></trkpt><trkpt lat="41.8951356" lon="2.1063442"><ele>717.5</ele><time>2026-05-03T07:03:50.23Z</time></trkpt><trkpt lat="41.8952555" lon="2.1064471"><ele>714.0</ele><time>2026-05-03T07:03:51.229Z</time></trkpt><trkpt lat="41.895334" lon="2.106579"><ele>710.5</ele><time>2026-05-03T07:03:52.23Z</time></trkpt><trkpt lat="41.8953644" lon="2.106729"><ele>707.0</ele><time>2026-05-03T07:03:53.23Z</time></trkpt><trkpt lat="41.8953377" lon="2.1068675"><ele>707.0</ele><time>2026-05-03T07:03:54.23Z</time></trkpt><trkpt lat="41.8952555" lon="2.1069897"><ele>707.0</ele><time>2026-05-03T07:03:55.23Z</time></trkpt><trkpt lat="41.8951188" lon="2.1071181"><ele>707.0</ele><time>2026-05-03T07:03:56.23Z</time></trkpt><trkpt lat="41.8949708" lon="2.1072398"><ele>710.75</ele><time>2026-05-03T07:03:57.23Z</time></trkpt><trkpt lat="41.8948714" lon="2.1073654"><ele>714.5</ele><time>2026-05-03T07:03:58.23Z</time></trkpt><trkpt lat="41.8948143" lon="2.1074938"><ele>718.25</ele><time>2026-05-03T07:03:59.23Z</time></trkpt><trkpt lat="41.8948178" lon="2.1076225"><ele>722.0</ele><time>2026-05-03T07:04:00.23Z</time></trkpt><trkpt lat="41.8948189" lon="2.1077657"><ele>722.0</ele><time>2026-05-03T07:04:01.231Z</time></trkpt><trkpt lat="41.8948586" lon="2.1079239"><ele>722.0</ele><time>2026-05-03T07:04:02.229Z</time></trkpt><trkpt lat="41.8949711" lon="2.1080669"><ele>722.0</ele><time>2026-05-03T07:04:03.231Z</time></trkpt><trkpt lat="41.8953026" lon="2.1080091"><ele>716.6666666666666</ele><time>2026-05-03T07:04:04.23Z</time></trkpt><trkpt lat="41.8954872" lon="2.1079831"><ele>711.3333333333334</ele><time>2026-05-03T07:04:05.23Z</time></trkpt><trkpt lat="41.8957138" lon="2.1079058"><ele>706.0</ele><time>2026-05-03T07:04:06.23Z</time></trkpt><trkpt lat="41.8959405" lon="2.1078149"><ele>704.3333333333334</ele><time>2026-05-03T07:04:07.23Z</time></trkpt><trkpt lat="41.8961158" lon="2.1077298"><ele>702.6666666666666</ele><time>2026-05-03T07:04:08.229Z</time></trkpt><trkpt lat="41.8962545" lon="2.1075933"><ele>701.0</ele><time>2026-05-03T07:04:09.229Z</time></trkpt><trkpt lat="41.8963742" lon="2.1074087"><ele>699.1999999999999</ele><time>2026-05-03T07:04:10.23Z</time></trkpt><trkpt lat="41.8964637" lon="2.1072666"><ele>697.4</ele><time>2026-05-03T07:04:11.23Z</time></trkpt><trkpt lat="41.8965425" lon="2.107184"><ele>695.6</ele><time>2026-05-03T07:04:12.23Z</time></trkpt><trkpt lat="41.8966339" lon="2.1071552"><ele>693.8</ele><time>2026-05-03T07:04:13.231Z</time></trkpt><trkpt lat="41.8967153" lon="2.1072274"><ele>692.0</ele><time>2026-05-03T07:04:14.229Z</time></trkpt><trkpt lat="41.8967788" lon="2.1073597"><ele>687.6666666666666</ele><time>2026-05-03T07:04:15.229Z</time></trkpt><trkpt lat="41.8968335" lon="2.1075755"><ele>683.3333333333334</ele><time>2026-05-03T07:04:16.229Z</time></trkpt><trkpt lat="41.8969238" lon="2.1078409"><ele>679.0</ele><time>2026-05-03T07:04:17.23Z</time></trkpt><trkpt lat="41.8970262" lon="2.1081237"><ele>681.6666666666667</ele><time>2026-05-03T07:04:18.231Z</time></trkpt><trkpt lat="41.897088" lon="2.1083789"><ele>684.3333333333334</ele><time>2026-05-03T07:04:19.23Z</time></trkpt><trkpt lat="41.8971181" lon="2.1086199"><ele>687.0</ele><time>2026-05-03T07:04:20.23Z</time></trkpt><trkpt lat="41.8971818" lon="2.1088193"><ele>687.0</ele><time>2026-05-03T07:04:21.229Z</time></trkpt><trkpt lat="41.8972899" lon="2.1090032"><ele>687.0</ele><time>2026-05-03T07:04:22.23Z</time></trkpt><trkpt lat="41.8974029" lon="2.109153"><ele>687.0</ele><time>2026-05-03T07:04:23.229Z</time></trkpt><trkpt lat="41.8975396" lon="2.1091997"><ele>684.3333333333334</ele><time>2026-05-03T07:04:24.229Z</time></trkpt><trkpt lat="41.8977179" lon="2.1091652"><ele>681.6666666666667</ele><time>2026-05-03T07:04:25.23Z</time></trkpt><trkpt lat="41.8978779" lon="2.1091372"><ele>679.0</ele><time>2026-05-03T07:04:26.229Z</time></trkpt><trkpt lat="41.8981353" lon="2.1090078"><ele>678.3333333333334</ele><time>2026-05-03T07:04:27.23Z</time></trkpt><trkpt lat="41.8983266" lon="2.1089333"><ele>677.6666666666666</ele><time>2026-05-03T07:04:28.23Z</time></trkpt><trkpt lat="41.8984854" lon="2.1088488"><ele>677.0</ele><time>2026-05-03T07:04:29.23Z</time></trkpt><trkpt lat="41.8986289" lon="2.1086919"><ele>680.0</ele><time>2026-05-03T07:04:30.23Z</time></trkpt><trkpt lat="41.8987699" lon="2.1085269"><ele>683.0</ele><time>2026-05-03T07:04:31.23Z</time></trkpt><trkpt lat="41.8989212" lon="2.1081884"><ele>683.0</ele><time>2026-05-03T07:04:32.229Z</time></trkpt><trkpt lat="41.8990622" lon="2.1079326"><ele>683.0</ele><time>2026-05-03T07:04:33.23Z</time></trkpt><trkpt lat="41.8991684" lon="2.1077035"><ele>683.0</ele><time>2026-05-03T07:04:34.229Z</time></trkpt><trkpt lat="41.8992313" lon="2.1074678"><ele>683.3333333333333</ele><time>2026-05-03T07:04:35.229Z</time></trkpt><trkpt lat="41.8992493" lon="2.1072016"><ele>683.6666666666666</ele><time>2026-05-03T07:04:36.229Z</time></trkpt><trkpt lat="41.8992309" lon="2.1069063"><ele>684.0</ele><time>2026-05-03T07:04:37.229Z</time></trkpt><trkpt lat="41.8991861" lon="2.1066537"><ele>688.0</ele><time>2026-05-03T07:04:38.23Z</time></trkpt><trkpt lat="41.8990922" lon="2.106422"><ele>692.0</ele><time>2026-05-03T07:04:39.23Z</time></trkpt><trkpt lat="41.8989459" lon="2.1062014"><ele>696.0</ele><time>2026-05-03T07:04:40.229Z</time></trkpt><trkpt lat="41.8988012" lon="2.1059973"><ele>696.0</ele><time>2026-05-03T07:04:41.231Z</time></trkpt><trkpt lat="41.8986897" lon="2.105775"><ele>696.0</ele><time>2026-05-03T07:04:42.229Z</time></trkpt><trkpt lat="41.8985927" lon="2.1054884"><ele>696.0</ele><time>2026-05-03T07:04:43.23Z</time></trkpt><trkpt lat="41.8984918" lon="2.105168"><ele>694.0</ele><time>2026-05-03T07:04:44.23Z</time></trkpt><trkpt lat="41.8983836" lon="2.1048194"><ele>692.0</ele><time>2026-05-03T07:04:45.229Z</time></trkpt><trkpt lat="41.8982937" lon="2.1045254"><ele>692.0</ele><time>2026-05-03T07:04:46.23Z</time></trkpt><trkpt lat="41.8982128" lon="2.1042676"><ele>692.0</ele><time>2026-05-03T07:04:47.229Z</time></trkpt><trkpt lat="41.8981565" lon="2.1040574"><ele>692.0</ele><time>2026-05-03T07:04:48.229Z</time></trkpt><trkpt lat="41.8981405" lon="2.1038705"><ele>692.0</ele><time>2026-05-03T07:04:49.23Z</time></trkpt><trkpt lat="41.898171" lon="2.1037134"><ele>692.0</ele><time>2026-05-03T07:04:50.23Z</time></trkpt><trkpt lat="41.8982507" lon="2.1035977"><ele>692.0</ele><time>2026-05-03T07:04:51.23Z</time></trkpt><trkpt lat="41.8983883" lon="2.1035041"><ele>692.0</ele><time>2026-05-03T07:04:52.23Z</time></trkpt><trkpt lat="41.8985827" lon="2.1034334"><ele>692.0</ele><time>2026-05-03T07:04:53.23Z</time></trkpt><trkpt lat="41.8988162" lon="2.1034018"><ele>692.0</ele><time>2026-05-03T07:04:54.229Z</time></trkpt><trkpt lat="41.8990416" lon="2.1034142"><ele>692.0</ele><time>2026-05-03T07:04:55.23Z</time></trkpt><trkpt lat="41.8992464" lon="2.1034204"><ele>692.0</ele><time>2026-05-03T07:04:56.23Z</time></trkpt><trkpt lat="41.8994462" lon="2.1033809"><ele>692.0</ele><time>2026-05-03T07:04:57.229Z</time></trkpt><trkpt lat="41.8996491" lon="2.1032863"><ele>693.0</ele><time>2026-05-03T07:04:58.23Z</time></trkpt><trkpt lat="41.899852" lon="2.1031665"><ele>694.0</ele><time>2026-05-03T07:04:59.231Z</time></trkpt><trkpt lat="41.9000178" lon="2.103067"><ele>695.0</ele><time>2026-05-03T07:05:00.23Z</time></trkpt><trkpt lat="41.900151" lon="2.1029616"><ele>696.2</ele><time>2026-05-03T07:05:01.229Z</time></trkpt><trkpt lat="41.9002331" lon="2.1028463"><ele>697.4</ele><time>2026-05-03T07:05:02.229Z</time></trkpt><trkpt lat="41.9002697" lon="2.1027117"><ele>698.5999999999999</ele><time>2026-05-03T07:05:03.229Z</time></trkpt><trkpt lat="41.9002584" lon="2.1025753"><ele>699.8</ele><time>2026-05-03T07:05:04.23Z</time></trkpt><trkpt lat="41.9001981" lon="2.1024444"><ele>701.0</ele><time>2026-05-03T07:05:05.23Z</time></trkpt><trkpt lat="41.9000903" lon="2.10233"><ele>703.3333333333333</ele><time>2026-05-03T07:05:06.229Z</time></trkpt><trkpt lat="41.8999336" lon="2.1022024"><ele>705.6666666666666</ele><time>2026-05-03T07:05:07.23Z</time></trkpt><trkpt lat="41.8997367" lon="2.1020583"><ele>708.0</ele><time>2026-05-03T07:05:08.229Z</time></trkpt><trkpt lat="41.8995514" lon="2.1019126"><ele>708.0</ele><time>2026-05-03T07:05:09.229Z</time></trkpt><trkpt lat="41.8993915" lon="2.1017792"><ele>708.0</ele><time>2026-05-03T07:05:10.23Z</time></trkpt><trkpt lat="41.8992597" lon="2.1016407"><ele>708.0</ele><time>2026-05-03T07:05:11.23Z</time></trkpt><trkpt lat="41.8991641" lon="2.1014695"><ele>706.0</ele><time>2026-05-03T07:05:12.229Z</time></trkpt><trkpt lat="41.8991027" lon="2.1012579"><ele>704.0</ele><time>2026-05-03T07:05:13.229Z</time></trkpt><trkpt lat="41.899073" lon="2.1009938"><ele>702.0</ele><time>2026-05-03T07:05:14.229Z</time></trkpt><trkpt lat="41.899051" lon="2.100703"><ele>700.3333333333334</ele><time>2026-05-03T07:05:15.23Z</time></trkpt><trkpt lat="41.8990315" lon="2.1004508"><ele>698.6666666666667</ele><time>2026-05-03T07:05:16.23Z</time></trkpt><trkpt lat="41.8990255" lon="2.1002322"><ele>697.0</ele><time>2026-05-03T07:05:17.23Z</time></trkpt><trkpt lat="41.8990665" lon="2.1000208"><ele>696.0</ele><time>2026-05-03T07:05:18.229Z</time></trkpt><trkpt lat="41.8991551" lon="2.0997802"><ele>695.0</ele><time>2026-05-03T07:05:19.23Z</time></trkpt><trkpt lat="41.8992631" lon="2.0995217"><ele>694.0</ele><time>2026-05-03T07:05:20.23Z</time></trkpt><trkpt lat="41.8993607" lon="2.0993146"><ele>694.0</ele><time>2026-05-03T07:05:21.229Z</time></trkpt><trkpt lat="41.8994771" lon="2.0991444"><ele>694.0</ele><time>2026-05-03T07:05:22.23Z</time></trkpt><trkpt lat="41.8996111" lon="2.0990249"><ele>694.0</ele><time>2026-05-03T07:05:23.23Z</time></trkpt><trkpt lat="41.8997766" lon="2.0989451"><ele>694.5</ele><time>2026-05-03T07:05:24.23Z</time></trkpt><trkpt lat="41.8999267" lon="2.0988941"><ele>695.0</ele><time>2026-05-03T07:05:25.23Z</time></trkpt><trkpt lat="41.9000524" lon="2.0988316"><ele>695.5</ele><time>2026-05-03T07:05:26.23Z</time></trkpt><trkpt lat="41.9001474" lon="2.0987282"><ele>696.0</ele><time>2026-05-03T07:05:27.23Z</time></trkpt><trkpt lat="41.9002071" lon="2.0985811"><ele>696.0</ele><time>2026-05-03T07:05:28.23Z</time></trkpt><trkpt lat="41.9002192" lon="2.0984104"><ele>696.0</ele><time>2026-05-03T07:05:29.23Z</time></trkpt><trkpt lat="41.9001872" lon="2.0982624"><ele>696.0</ele><time>2026-05-03T07:05:30.23Z</time></trkpt><trkpt lat="41.9001053" lon="2.0981312"><ele>696.0</ele><time>2026-05-03T07:05:31.23Z</time></trkpt><trkpt lat="41.8999709" lon="2.0980118"><ele>697.6666666666666</ele><time>2026-05-03T07:05:32.229Z</time></trkpt><trkpt lat="41.8997848" lon="2.0979127"><ele>699.3333333333333</ele><time>2026-05-03T07:05:33.23Z</time></trkpt><trkpt lat="41.8996273" lon="2.0977914"><ele>701.0</ele><time>2026-05-03T07:05:34.23Z</time></trkpt><trkpt lat="41.8995024" lon="2.0976252"><ele>696.0</ele><time>2026-05-03T07:05:35.229Z</time></trkpt><trkpt lat="41.8993748" lon="2.0973868"><ele>691.0</ele><time>2026-05-03T07:05:36.23Z</time></trkpt><trkpt lat="41.8992454" lon="2.0971077"><ele>691.0</ele><time>2026-05-03T07:05:37.229Z</time></trkpt><trkpt lat="41.8991235" lon="2.0968604"><ele>691.0</ele><time>2026-05-03T07:05:38.23Z</time></trkpt><trkpt lat="41.8990359" lon="2.0966397"><ele>691.0</ele><time>2026-05-03T07:05:39.23Z</time></trkpt><trkpt lat="41.8989879" lon="2.096417"><ele>689.0</ele><time>2026-05-03T07:05:40.231Z</time></trkpt><trkpt lat="41.8989908" lon="2.0962063"><ele>687.0</ele><time>2026-05-03T07:05:41.229Z</time></trkpt><trkpt lat="41.8990381" lon="2.0960187"><ele>685.0</ele><time>2026-05-03T07:05:42.23Z</time></trkpt><trkpt lat="41.8991412" lon="2.0958508"><ele>685.0</ele><time>2026-05-03T07:05:43.229Z</time></trkpt><trkpt lat="41.8992992" lon="2.0956813"><ele>685.0</ele><time>2026-05-03T07:05:44.23Z</time></trkpt><trkpt lat="41.8994944" lon="2.0955"><ele>685.0</ele><time>2026-05-03T07:05:45.23Z</time></trkpt><trkpt lat="41.8996615" lon="2.0953459"><ele>685.0</ele><time>2026-05-03T07:05:46.23Z</time></trkpt><trkpt lat="41.8998003" lon="2.0952084"><ele>685.0</ele><time>2026-05-03T07:05:47.23Z</time></trkpt><trkpt lat="41.8999021" lon="2.0950665"><ele>685.0</ele><time>2026-05-03T07:05:48.23Z</time></trkpt><trkpt lat="41.8999588" lon="2.0949173"><ele>685.0</ele><time>2026-05-03T07:05:49.23Z</time></trkpt><trkpt lat="41.899962" lon="2.0947672"><ele>686.0</ele><time>2026-05-03T07:05:50.23Z</time></trkpt><trkpt lat="41.8999184" lon="2.0946193"><ele>687.0</ele><time>2026-05-03T07:05:51.23Z</time></trkpt><trkpt lat="41.8998385" lon="2.0945151"><ele>688.0</ele><time>2026-05-03T07:05:52.229Z</time></trkpt><trkpt lat="41.8997281" lon="2.0944564"><ele>689.0</ele><time>2026-05-03T07:05:53.229Z</time></trkpt><trkpt lat="41.899589" lon="2.0944502"><ele>689.0</ele><time>2026-05-03T07:05:54.23Z</time></trkpt><trkpt lat="41.8994487" lon="2.0944659"><ele>689.0</ele><time>2026-05-03T07:05:55.231Z</time></trkpt><trkpt lat="41.8993306" lon="2.0943936"><ele>689.0</ele><time>2026-05-03T07:05:56.23Z</time></trkpt><trkpt lat="41.8991906" lon="2.0942609"><ele>689.0</ele><time>2026-05-03T07:05:57.229Z</time></trkpt><trkpt lat="41.8990279" lon="2.0940854"><ele>691.0</ele><time>2026-05-03T07:05:58.23Z</time></trkpt><trkpt lat="41.8988681" lon="2.0939073"><ele>693.0</ele><time>2026-05-03T07:05:59.23Z</time></trkpt><trkpt lat="41.8987515" lon="2.0937545"><ele>695.0</ele><time>2026-05-03T07:06:00.229Z</time></trkpt><trkpt lat="41.8986808" lon="2.0935934"><ele>695.0</ele><time>2026-05-03T07:06:01.23Z</time></trkpt><trkpt lat="41.8986608" lon="2.0934136"><ele>695.0</ele><time>2026-05-03T07:06:02.23Z</time></trkpt><trkpt lat="41.8986945" lon="2.0932036"><ele>695.0</ele><time>2026-05-03T07:06:03.229Z</time></trkpt><trkpt lat="41.8987651" lon="2.0929613"><ele>694.5</ele><time>2026-05-03T07:06:04.23Z</time></trkpt><trkpt lat="41.8988308" lon="2.0927544"><ele>694.0</ele><time>2026-05-03T07:06:05.23Z</time></trkpt><trkpt lat="41.8988967" lon="2.0925792"><ele>693.5</ele><time>2026-05-03T07:06:06.23Z</time></trkpt><trkpt lat="41.898967" lon="2.092435"><ele>693.0</ele><time>2026-05-03T07:06:07.23Z</time></trkpt><trkpt lat="41.8990428" lon="2.0923107"><ele>691.6666666666666</ele><time>2026-05-03T07:06:08.23Z</time></trkpt><trkpt lat="41.8991431" lon="2.0922001"><ele>690.3333333333333</ele><time>2026-05-03T07:06:09.229Z</time></trkpt><trkpt lat="41.8992735" lon="2.092093"><ele>689.0</ele><time>2026-05-03T07:06:10.23Z</time></trkpt><trkpt lat="41.8994287" lon="2.0919961"><ele>692.0</ele><time>2026-05-03T07:06:11.23Z</time></trkpt><trkpt lat="41.8996081" lon="2.0918943"><ele>695.0</ele><time>2026-05-03T07:06:12.229Z</time></trkpt><trkpt lat="41.8998096" lon="2.0917793"><ele>698.0</ele><time>2026-05-03T07:06:13.23Z</time></trkpt><trkpt lat="41.9000338" lon="2.0916569"><ele>702.5</ele><time>2026-05-03T07:06:14.23Z</time></trkpt><trkpt lat="41.9002833" lon="2.0915547"><ele>707.0</ele><time>2026-05-03T07:06:15.23Z</time></trkpt><trkpt lat="41.900554" lon="2.0914821"><ele>707.0</ele><time>2026-05-03T07:06:16.231Z</time></trkpt><trkpt lat="41.9008318" lon="2.0914447"><ele>707.0</ele><time>2026-05-03T07:06:17.229Z</time></trkpt><trkpt lat="41.9010739" lon="2.0914339"><ele>708.3333333333333</ele><time>2026-05-03T07:06:18.23Z</time></trkpt><trkpt lat="41.9012961" lon="2.0914233"><ele>709.6666666666666</ele><time>2026-05-03T07:06:19.231Z</time></trkpt><trkpt lat="41.9014952" lon="2.0914019"><ele>711.0</ele><time>2026-05-03T07:06:20.229Z</time></trkpt><trkpt lat="41.901674" lon="2.0913624"><ele>712.25</ele><time>2026-05-03T07:06:21.229Z</time></trkpt><trkpt lat="41.9018301" lon="2.0913088"><ele>713.5</ele><time>2026-05-03T07:06:22.23Z</time></trkpt><trkpt lat="41.9019707" lon="2.0912508"><ele>714.75</ele><time>2026-05-03T07:06:23.229Z</time></trkpt><trkpt lat="41.902102" lon="2.0911943"><ele>716.0</ele><time>2026-05-03T07:06:24.229Z</time></trkpt><trkpt lat="41.9022356" lon="2.0911402"><ele>716.0</ele><time>2026-05-03T07:06:25.231Z</time></trkpt><trkpt lat="41.9023662" lon="2.0910867"><ele>716.0</ele><time>2026-05-03T07:06:26.229Z</time></trkpt><trkpt lat="41.9025092" lon="2.0910155"><ele>716.0</ele><time>2026-05-03T07:06:27.23Z</time></trkpt><trkpt lat="41.9026563" lon="2.0909519"><ele>716.0</ele><time>2026-05-03T07:06:28.231Z</time></trkpt><trkpt lat="41.9028139" lon="2.0908902"><ele>716.3333333333333</ele><time>2026-05-03T07:06:29.229Z</time></trkpt><trkpt lat="41.9029816" lon="2.0908224"><ele>716.6666666666666</ele><time>2026-05-03T07:06:30.229Z</time></trkpt><trkpt lat="41.9031607" lon="2.0907536"><ele>717.0</ele><time>2026-05-03T07:06:31.229Z</time></trkpt><trkpt lat="41.9033473" lon="2.0906853"><ele>713.0</ele><time>2026-05-03T07:06:32.23Z</time></trkpt><trkpt lat="41.9035521" lon="2.090615"><ele>709.0</ele><time>2026-05-03T07:06:33.23Z</time></trkpt><trkpt lat="41.9037729" lon="2.0905488"><ele>705.0</ele><time>2026-05-03T07:06:34.231Z</time></trkpt><trkpt lat="41.9040082" lon="2.0904725"><ele>702.0</ele><time>2026-05-03T07:06:35.23Z</time></trkpt><trkpt lat="41.9042563" lon="2.0903769"><ele>699.0</ele><time>2026-05-03T07:06:36.23Z</time></trkpt><trkpt lat="41.9045145" lon="2.0902573"><ele>699.0</ele><time>2026-05-03T07:06:37.229Z</time></trkpt><trkpt lat="41.9047728" lon="2.0901081"><ele>699.0</ele><time>2026-05-03T07:06:38.23Z</time></trkpt><trkpt lat="41.9050087" lon="2.0899469"><ele>690.0</ele><time>2026-05-03T07:06:39.231Z</time></trkpt><trkpt lat="41.9052263" lon="2.0897836"><ele>681.0</ele><time>2026-05-03T07:06:40.23Z</time></trkpt><trkpt lat="41.9054157" lon="2.089639"><ele>681.0</ele><time>2026-05-03T07:06:41.23Z</time></trkpt><trkpt lat="41.9055901" lon="2.0895299"><ele>681.0</ele><time>2026-05-03T07:06:42.231Z</time></trkpt><trkpt lat="41.9057624" lon="2.0894668"><ele>681.0</ele><time>2026-05-03T07:06:43.229Z</time></trkpt><trkpt lat="41.9059429" lon="2.0894577"><ele>677.0</ele><time>2026-05-03T07:06:44.23Z</time></trkpt><trkpt lat="41.9061234" lon="2.0895032"><ele>673.0</ele><time>2026-05-03T07:06:45.229Z</time></trkpt><trkpt lat="41.9062974" lon="2.0896003"><ele>669.0</ele><time>2026-05-03T07:06:46.23Z</time></trkpt><trkpt lat="41.9064515" lon="2.0896791"><ele>669.0</ele><time>2026-05-03T07:06:47.229Z</time></trkpt><trkpt lat="41.9066028" lon="2.089706"><ele>669.0</ele><time>2026-05-03T07:06:48.229Z</time></trkpt><trkpt lat="41.906756" lon="2.0896836"><ele>669.0</ele><time>2026-05-03T07:06:49.23Z</time></trkpt><trkpt lat="41.9069041" lon="2.0896013"><ele>670.6666666666666</ele><time>2026-05-03T07:06:50.23Z</time></trkpt><trkpt lat="41.9070272" lon="2.0894646"><ele>672.3333333333333</ele><time>2026-05-03T07:06:51.231Z</time></trkpt><trkpt lat="41.907138" lon="2.0892577"><ele>674.0</ele><time>2026-05-03T07:06:52.23Z</time></trkpt><trkpt lat="41.9072454" lon="2.088989"><ele>667.0</ele><time>2026-05-03T07:06:53.23Z</time></trkpt><trkpt lat="41.9073667" lon="2.0886807"><ele>660.0</ele><time>2026-05-03T07:06:54.231Z</time></trkpt><trkpt lat="41.9075013" lon="2.0883435"><ele>647.5</ele><time>2026-05-03T07:06:55.23Z</time></trkpt><trkpt lat="41.9076367" lon="2.0879774"><ele>635.0</ele><time>2026-05-03T07:06:56.23Z</time></trkpt><trkpt lat="41.9077597" lon="2.087592"><ele>633.0</ele><time>2026-05-03T07:06:57.23Z</time></trkpt><trkpt lat="41.9078673" lon="2.087227"><ele>631.0</ele><time>2026-05-03T07:06:58.231Z</time></trkpt><trkpt lat="41.9079555" lon="2.0868645"><ele>631.5</ele><time>2026-05-03T07:06:59.23Z</time></trkpt><trkpt lat="41.9080201" lon="2.0865089"><ele>632.0</ele><time>2026-05-03T07:07:00.23Z</time></trkpt><trkpt lat="41.9080582" lon="2.08615"><ele>632.0</ele><time>2026-05-03T07:07:01.229Z</time></trkpt><trkpt lat="41.9080636" lon="2.0857851"><ele>632.0</ele><time>2026-05-03T07:07:02.23Z</time></trkpt><trkpt lat="41.9080411" lon="2.0854059"><ele>633.0</ele><time>2026-05-03T07:07:03.23Z</time></trkpt><trkpt lat="41.9080036" lon="2.0850355"><ele>634.0</ele><time>2026-05-03T07:07:04.231Z</time></trkpt><trkpt lat="41.9079737" lon="2.0846851"><ele>634.5</ele><time>2026-05-03T07:07:05.229Z</time></trkpt><trkpt lat="41.9079624" lon="2.0843526"><ele>635.0</ele><time>2026-05-03T07:07:06.229Z</time></trkpt><trkpt lat="41.9079716" lon="2.0840363"><ele>631.0</ele><time>2026-05-03T07:07:07.23Z</time></trkpt><trkpt lat="41.9080149" lon="2.0837227"><ele>627.0</ele><time>2026-05-03T07:07:08.229Z</time></trkpt><trkpt lat="41.9080926" lon="2.0834255"><ele>622.0</ele><time>2026-05-03T07:07:09.229Z</time></trkpt><trkpt lat="41.9081998" lon="2.0831533"><ele>617.0</ele><time>2026-05-03T07:07:10.23Z</time></trkpt><trkpt lat="41.908339" lon="2.0828972"><ele>615.0</ele><time>2026-05-03T07:07:11.229Z</time></trkpt><trkpt lat="41.9085115" lon="2.0826623"><ele>613.0</ele><time>2026-05-03T07:07:12.23Z</time></trkpt><trkpt lat="41.9087089" lon="2.0824511"><ele>610.6666666666667</ele><time>2026-05-03T07:07:13.23Z</time></trkpt><trkpt lat="41.9088815" lon="2.0822652"><ele>608.3333333333334</ele><time>2026-05-03T07:07:14.231Z</time></trkpt><trkpt lat="41.9090183" lon="2.082065"><ele>606.0</ele><time>2026-05-03T07:07:15.231Z</time></trkpt><trkpt lat="41.9091135" lon="2.0818471"><ele>606.0</ele><time>2026-05-03T07:07:16.231Z</time></trkpt><trkpt lat="41.9091649" lon="2.0816084"><ele>606.0</ele><time>2026-05-03T07:07:17.231Z</time></trkpt><trkpt lat="41.90917" lon="2.0813505"><ele>606.0</ele><time>2026-05-03T07:07:18.231Z</time></trkpt><trkpt lat="41.9091222" lon="2.0810884"><ele>599.5</ele><time>2026-05-03T07:07:19.231Z</time></trkpt><trkpt lat="41.9090157" lon="2.0808175"><ele>593.0</ele><time>2026-05-03T07:07:20.231Z</time></trkpt><trkpt lat="41.908867" lon="2.0805228"><ele>585.5</ele><time>2026-05-03T07:07:21.231Z</time></trkpt><trkpt lat="41.9086803" lon="2.080206"><ele>578.0</ele><time>2026-05-03T07:07:22.232Z</time></trkpt><trkpt lat="41.9084684" lon="2.0798791"><ele>583.5</ele><time>2026-05-03T07:07:23.232Z</time></trkpt><trkpt lat="41.9082634" lon="2.079586"><ele>589.0</ele><time>2026-05-03T07:07:24.23Z</time></trkpt><trkpt lat="41.9080661" lon="2.0793189"><ele>587.0</ele><time>2026-05-03T07:07:25.23Z</time></trkpt><trkpt lat="41.9079091" lon="2.0790942"><ele>585.0</ele><time>2026-05-03T07:07:26.231Z</time></trkpt><trkpt lat="41.9077875" lon="2.0789059"><ele>583.0</ele><time>2026-05-03T07:07:27.231Z</time></trkpt><trkpt lat="41.9077158" lon="2.0787222"><ele>583.0</ele><time>2026-05-03T07:07:28.23Z</time></trkpt><trkpt lat="41.9076939" lon="2.078533"><ele>583.0</ele><time>2026-05-03T07:07:29.231Z</time></trkpt><trkpt lat="41.9077276" lon="2.0783432"><ele>583.0</ele><time>2026-05-03T07:07:30.23Z</time></trkpt><trkpt lat="41.907811" lon="2.0781945"><ele>583.0</ele><time>2026-05-03T07:07:31.23Z</time></trkpt><trkpt lat="41.907933" lon="2.0780991"><ele>583.0</ele><time>2026-05-03T07:07:32.23Z</time></trkpt><trkpt lat="41.908045" lon="2.0779994"><ele>583.0</ele><time>2026-05-03T07:07:33.231Z</time></trkpt><trkpt lat="41.908226" lon="2.0781516"><ele>583.0</ele><time>2026-05-03T07:07:34.231Z</time></trkpt><trkpt lat="41.9083593" lon="2.0782739"><ele>566.5</ele><time>2026-05-03T07:07:35.231Z</time></trkpt><trkpt lat="41.9085161" lon="2.0784929"><ele>550.0</ele><time>2026-05-03T07:07:36.23Z</time></trkpt><trkpt lat="41.9086723" lon="2.078769"><ele>550.0</ele><time>2026-05-03T07:07:37.23Z</time></trkpt><trkpt lat="41.9088402" lon="2.0790975"><ele>550.0</ele><time>2026-05-03T07:07:38.231Z</time></trkpt><trkpt lat="41.9090045" lon="2.0794616"><ele>556.0</ele><time>2026-05-03T07:07:39.23Z</time></trkpt><trkpt lat="41.9091488" lon="2.0797921"><ele>562.0</ele><time>2026-05-03T07:07:40.231Z</time></trkpt><trkpt lat="41.9093095" lon="2.0800821"><ele>549.5</ele><time>2026-05-03T07:07:41.23Z</time></trkpt><trkpt lat="41.9095091" lon="2.0803437"><ele>537.0</ele><time>2026-05-03T07:07:42.231Z</time></trkpt><trkpt lat="41.9096968" lon="2.0805737"><ele>531.0</ele><time>2026-05-03T07:07:43.231Z</time></trkpt><trkpt lat="41.9098601" lon="2.0807809"><ele>525.0</ele><time>2026-05-03T07:07:44.231Z</time></trkpt><trkpt lat="41.9099912" lon="2.0810008"><ele>519.0</ele><time>2026-05-03T07:07:45.23Z</time></trkpt><trkpt lat="41.9100821" lon="2.0812663"><ele>519.0</ele><time>2026-05-03T07:07:46.231Z</time></trkpt><trkpt lat="41.9101423" lon="2.081552"><ele>519.0</ele><time>2026-05-03T07:07:47.23Z</time></trkpt><trkpt lat="41.9102148" lon="2.0817847"><ele>519.0</ele><time>2026-05-03T07:07:48.23Z</time></trkpt><trkpt lat="41.9103261" lon="2.0819838"><ele>526.6666666666666</ele><time>2026-05-03T07:07:49.231Z</time></trkpt><trkpt lat="41.9104333" lon="2.0821864"><ele>534.3333333333333</ele><time>2026-05-03T07:07:50.231Z</time></trkpt><trkpt lat="41.9105682" lon="2.0823668"><ele>542.0</ele><time>2026-05-03T07:07:51.231Z</time></trkpt><trkpt lat="41.9109051" lon="2.0824431"><ele>538.5</ele><time>2026-05-03T07:07:52.23Z</time></trkpt><trkpt lat="41.9110853" lon="2.0826096"><ele>535.0</ele><time>2026-05-03T07:07:53.231Z</time></trkpt><trkpt lat="41.9112638" lon="2.082809"><ele>535.0</ele><time>2026-05-03T07:07:54.231Z</time></trkpt><trkpt lat="41.9114345" lon="2.0830096"><ele>535.0</ele><time>2026-05-03T07:07:55.23Z</time></trkpt><trkpt lat="41.9115053" lon="2.0833059"><ele>538.0</ele><time>2026-05-03T07:07:56.231Z</time></trkpt><trkpt lat="41.9115675" lon="2.0835938"><ele>541.0</ele><time>2026-05-03T07:07:57.231Z</time></trkpt><trkpt lat="41.9115794" lon="2.083906"><ele>541.6666666666667</ele><time>2026-05-03T07:07:58.23Z</time></trkpt><trkpt lat="41.9115479" lon="2.0841987"><ele>542.3333333333334</ele><time>2026-05-03T07:07:59.231Z</time></trkpt><trkpt lat="41.9114992" lon="2.0844434"><ele>543.0</ele><time>2026-05-03T07:08:00.231Z</time></trkpt><trkpt lat="41.911484" lon="2.0846592"><ele>543.0</ele><time>2026-05-03T07:08:01.231Z</time></trkpt><trkpt lat="41.9115212" lon="2.0848646"><ele>543.0</ele><time>2026-05-03T07:08:02.231Z</time></trkpt><trkpt lat="41.9115939" lon="2.0850468"><ele>543.0</ele><time>2026-05-03T07:08:03.231Z</time></trkpt><trkpt lat="41.9117239" lon="2.0851633"><ele>541.3333333333334</ele><time>2026-05-03T07:08:04.23Z</time></trkpt><trkpt lat="41.9118764" lon="2.085225"><ele>539.6666666666667</ele><time>2026-05-03T07:08:05.23Z</time></trkpt><trkpt lat="41.9120438" lon="2.0852153"><ele>538.0</ele><time>2026-05-03T07:08:06.23Z</time></trkpt><trkpt lat="41.9122348" lon="2.0851713"><ele>538.0</ele><time>2026-05-03T07:08:07.231Z</time></trkpt><trkpt lat="41.9124399" lon="2.0850557"><ele>538.0</ele><time>2026-05-03T07:08:08.232Z</time></trkpt><trkpt lat="41.9126368" lon="2.0850103"><ele>538.0</ele><time>2026-05-03T07:08:09.232Z</time></trkpt><trkpt lat="41.9128234" lon="2.0850407"><ele>533.0</ele><time>2026-05-03T07:08:10.232Z</time></trkpt><trkpt lat="41.9129918" lon="2.0851387"><ele>528.0</ele><time>2026-05-03T07:08:11.23Z</time></trkpt><trkpt lat="41.9131455" lon="2.0852976"><ele>523.0</ele><time>2026-05-03T07:08:12.23Z</time></trkpt><trkpt lat="41.9132792" lon="2.0855443"><ele>517.0</ele><time>2026-05-03T07:08:13.23Z</time></trkpt><trkpt lat="41.9133975" lon="2.0858477"><ele>511.0</ele><time>2026-05-03T07:08:14.23Z</time></trkpt><trkpt lat="41.9135061" lon="2.0861235"><ele>511.0</ele><time>2026-05-03T07:08:15.231Z</time></trkpt><trkpt lat="41.9136318" lon="2.0863596"><ele>511.0</ele><time>2026-05-03T07:08:16.231Z</time></trkpt><trkpt lat="41.9137861" lon="2.0865444"><ele>511.0</ele><time>2026-05-03T07:08:17.231Z</time></trkpt><trkpt lat="41.913951" lon="2.0866658"><ele>511.33333333333337</ele><time>2026-05-03T07:08:18.23Z</time></trkpt><trkpt lat="41.9141496" lon="2.0867174"><ele>511.66666666666663</ele><time>2026-05-03T07:08:19.231Z</time></trkpt><trkpt lat="41.9143451" lon="2.0867018"><ele>512.0</ele><time>2026-05-03T07:08:20.231Z</time></trkpt><trkpt lat="41.9145232" lon="2.0866293"><ele>514.6666666666666</ele><time>2026-05-03T07:08:21.23Z</time></trkpt><trkpt lat="41.914671" lon="2.0864869"><ele>517.3333333333334</ele><time>2026-05-03T07:08:22.23Z</time></trkpt><trkpt lat="41.9147982" lon="2.0862786"><ele>520.0</ele><time>2026-05-03T07:08:23.23Z</time></trkpt><trkpt lat="41.9148821" lon="2.0860453"><ele>520.0</ele><time>2026-05-03T07:08:24.232Z</time></trkpt><trkpt lat="41.9149173" lon="2.0857876"><ele>520.0</ele><time>2026-05-03T07:08:25.23Z</time></trkpt><trkpt lat="41.9149011" lon="2.0854973"><ele>520.0</ele><time>2026-05-03T07:08:26.23Z</time></trkpt><trkpt lat="41.9148357" lon="2.0851728"><ele>521.5</ele><time>2026-05-03T07:08:27.231Z</time></trkpt><trkpt lat="41.9147257" lon="2.0848161"><ele>523.0</ele><time>2026-05-03T07:08:28.231Z</time></trkpt><trkpt lat="41.9145843" lon="2.0844342"><ele>527.5</ele><time>2026-05-03T07:08:29.23Z</time></trkpt><trkpt lat="41.9144329" lon="2.0840332"><ele>532.0</ele><time>2026-05-03T07:08:30.232Z</time></trkpt><trkpt lat="41.9142797" lon="2.0836179"><ele>527.5</ele><time>2026-05-03T07:08:31.232Z</time></trkpt><trkpt lat="41.9141463" lon="2.0832066"><ele>523.0</ele><time>2026-05-03T07:08:32.231Z</time></trkpt><trkpt lat="41.9140366" lon="2.0828285"><ele>523.0</ele><time>2026-05-03T07:08:33.232Z</time></trkpt><trkpt lat="41.9139533" lon="2.0824802"><ele>523.0</ele><time>2026-05-03T07:08:34.231Z</time></trkpt><trkpt lat="41.9139096" lon="2.0821543"><ele>524.0</ele><time>2026-05-03T07:08:35.231Z</time></trkpt><trkpt lat="41.9139094" lon="2.0818348"><ele>525.0</ele><time>2026-05-03T07:08:36.23Z</time></trkpt><trkpt lat="41.9139611" lon="2.081528"><ele>531.0</ele><time>2026-05-03T07:08:37.231Z</time></trkpt><trkpt lat="41.9140607" lon="2.0812396"><ele>537.0</ele><time>2026-05-03T07:08:38.232Z</time></trkpt><trkpt lat="41.9141994" lon="2.0809868"><ele>538.5</ele><time>2026-05-03T07:08:39.231Z</time></trkpt><trkpt lat="41.9143688" lon="2.080782"><ele>540.0</ele><time>2026-05-03T07:08:40.23Z</time></trkpt><trkpt lat="41.9145671" lon="2.0806308"><ele>547.5</ele><time>2026-05-03T07:08:41.23Z</time></trkpt><trkpt lat="41.9147958" lon="2.0805316"><ele>555.0</ele><time>2026-05-03T07:08:42.231Z</time></trkpt><trkpt lat="41.9150521" lon="2.0804862"><ele>555.5</ele><time>2026-05-03T07:08:43.23Z</time></trkpt><trkpt lat="41.9153395" lon="2.0804781"><ele>556.0</ele><time>2026-05-03T07:08:44.231Z</time></trkpt><trkpt lat="41.9156449" lon="2.0804809"><ele>558.5</ele><time>2026-05-03T07:08:45.231Z</time></trkpt><trkpt lat="41.9159701" lon="2.0804563"><ele>561.0</ele><time>2026-05-03T07:08:46.231Z</time></trkpt><trkpt lat="41.9163063" lon="2.0804079"><ele>561.0</ele><time>2026-05-03T07:08:47.23Z</time></trkpt><trkpt lat="41.9166536" lon="2.0803392"><ele>561.0</ele><time>2026-05-03T07:08:48.23Z</time></trkpt><trkpt lat="41.9169856" lon="2.0802539"><ele>561.5</ele><time>2026-05-03T07:08:49.232Z</time></trkpt><trkpt lat="41.9172806" lon="2.0801654"><ele>562.0</ele><time>2026-05-03T07:08:50.231Z</time></trkpt><trkpt lat="41.917548" lon="2.0800703"><ele>562.5</ele><time>2026-05-03T07:08:51.231Z</time></trkpt><trkpt lat="41.9177922" lon="2.0799478"><ele>563.0</ele><time>2026-05-03T07:08:52.231Z</time></trkpt><trkpt lat="41.918033" lon="2.0797872"><ele>561.5</ele><time>2026-05-03T07:08:53.23Z</time></trkpt><trkpt lat="41.9182783" lon="2.0795818"><ele>560.0</ele><time>2026-05-03T07:08:54.23Z</time></trkpt><trkpt lat="41.9185209" lon="2.0793736"><ele>560.0</ele><time>2026-05-03T07:08:55.23Z</time></trkpt><trkpt lat="41.918746" lon="2.079198"><ele>560.0</ele><time>2026-05-03T07:08:56.231Z</time></trkpt><trkpt lat="41.9189698" lon="2.0790652"><ele>555.0</ele><time>2026-05-03T07:08:57.231Z</time></trkpt><trkpt lat="41.9192119" lon="2.0789798"><ele>550.0</ele><time>2026-05-03T07:08:58.232Z</time></trkpt><trkpt lat="41.9194816" lon="2.0789316"><ele>550.0</ele><time>2026-05-03T07:08:59.231Z</time></trkpt><trkpt lat="41.9197271" lon="2.078905"><ele>550.0</ele><time>2026-05-03T07:09:00.23Z</time></trkpt><trkpt lat="41.919945" lon="2.0788705"><ele>551.0</ele><time>2026-05-03T07:09:01.231Z</time></trkpt><trkpt lat="41.9201438" lon="2.0787833"><ele>552.0</ele><time>2026-05-03T07:09:02.231Z</time></trkpt><trkpt lat="41.9203214" lon="2.0786411"><ele>553.0</ele><time>2026-05-03T07:09:03.231Z</time></trkpt><trkpt lat="41.9204693" lon="2.0784494"><ele>547.3333333333334</ele><time>2026-05-03T07:09:04.232Z</time></trkpt><trkpt lat="41.9205753" lon="2.0782157"><ele>541.6666666666666</ele><time>2026-05-03T07:09:05.231Z</time></trkpt><trkpt lat="41.9206319" lon="2.0779686"><ele>536.0</ele><time>2026-05-03T07:09:06.231Z</time></trkpt><trkpt lat="41.9206431" lon="2.0776845"><ele>530.0</ele><time>2026-05-03T07:09:07.231Z</time></trkpt><trkpt lat="41.9206007" lon="2.0773903"><ele>524.0</ele><time>2026-05-03T07:09:08.231Z</time></trkpt><trkpt lat="41.9205176" lon="2.0770945"><ele>524.0</ele><time>2026-05-03T07:09:09.232Z</time></trkpt><trkpt lat="41.9204444" lon="2.0768298"><ele>524.0</ele><time>2026-05-03T07:09:10.232Z</time></trkpt><trkpt lat="41.9204026" lon="2.0765569"><ele>524.0</ele><time>2026-05-03T07:09:11.232Z</time></trkpt><trkpt lat="41.9204158" lon="2.0762709"><ele>527.5</ele><time>2026-05-03T07:09:12.231Z</time></trkpt><trkpt lat="41.920484" lon="2.0759758"><ele>531.0</ele><time>2026-05-03T07:09:13.232Z</time></trkpt><trkpt lat="41.9206089" lon="2.0756766"><ele>536.5</ele><time>2026-05-03T07:09:14.232Z</time></trkpt><trkpt lat="41.9207722" lon="2.0753612"><ele>542.0</ele><time>2026-05-03T07:09:15.231Z</time></trkpt><trkpt lat="41.9209637" lon="2.0750309"><ele>545.0</ele><time>2026-05-03T07:09:16.231Z</time></trkpt><trkpt lat="41.9211738" lon="2.074686"><ele>548.0</ele><time>2026-05-03T07:09:17.231Z</time></trkpt><trkpt lat="41.9214051" lon="2.0743338"><ele>552.0</ele><time>2026-05-03T07:09:18.232Z</time></trkpt><trkpt lat="41.9216464" lon="2.0739789"><ele>556.0</ele><time>2026-05-03T07:09:19.232Z</time></trkpt><trkpt lat="41.9218693" lon="2.0736655"><ele>556.0</ele><time>2026-05-03T07:09:20.231Z</time></trkpt><trkpt lat="41.922068" lon="2.073396"><ele>556.0</ele><time>2026-05-03T07:09:21.232Z</time></trkpt><trkpt lat="41.922241" lon="2.073161"><ele>559.6666666666667</ele><time>2026-05-03T07:09:22.23Z</time></trkpt><trkpt lat="41.922411" lon="2.0729707"><ele>563.3333333333334</ele><time>2026-05-03T07:09:23.231Z</time></trkpt><trkpt lat="41.9226056" lon="2.0728391"><ele>567.0</ele><time>2026-05-03T07:09:24.23Z</time></trkpt><trkpt lat="41.9228047" lon="2.0727617"><ele>569.3333333333334</ele><time>2026-05-03T07:09:25.231Z</time></trkpt><trkpt lat="41.9230165" lon="2.0727501"><ele>571.6666666666667</ele><time>2026-05-03T07:09:26.23Z</time></trkpt><trkpt lat="41.9232493" lon="2.072798"><ele>574.0</ele><time>2026-05-03T07:09:27.23Z</time></trkpt><trkpt lat="41.9234842" lon="2.0728674"><ele>577.0</ele><time>2026-05-03T07:09:28.231Z</time></trkpt><trkpt lat="41.9237295" lon="2.0729"><ele>580.0</ele><time>2026-05-03T07:09:29.23Z</time></trkpt><trkpt lat="41.9239877" lon="2.0728643"><ele>584.5</ele><time>2026-05-03T07:09:30.232Z</time></trkpt><trkpt lat="41.924269" lon="2.0727958"><ele>589.0</ele><time>2026-05-03T07:09:31.231Z</time></trkpt><trkpt lat="41.9245736" lon="2.0727151"><ele>589.0</ele><time>2026-05-03T07:09:32.231Z</time></trkpt><trkpt lat="41.9248505" lon="2.0726279"><ele>589.0</ele><time>2026-05-03T07:09:33.231Z</time></trkpt><trkpt lat="41.9250968" lon="2.0725249"><ele>589.5</ele><time>2026-05-03T07:09:34.231Z</time></trkpt><trkpt lat="41.9253125" lon="2.0723885"><ele>590.0</ele><time>2026-05-03T07:09:35.231Z</time></trkpt><trkpt lat="41.9255066" lon="2.0722135"><ele>590.0</ele><time>2026-05-03T07:09:36.23Z</time></trkpt><trkpt lat="41.9256785" lon="2.0720051"><ele>590.0</ele><time>2026-05-03T07:09:37.231Z</time></trkpt><trkpt lat="41.9258293" lon="2.0717593"><ele>587.0</ele><time>2026-05-03T07:09:38.231Z</time></trkpt><trkpt lat="41.9259584" lon="2.0714845"><ele>584.0</ele><time>2026-05-03T07:09:39.231Z</time></trkpt><trkpt lat="41.9260537" lon="2.0711803"><ele>584.0</ele><time>2026-05-03T07:09:40.231Z</time></trkpt><trkpt lat="41.9261139" lon="2.0708568"><ele>584.0</ele><time>2026-05-03T07:09:41.231Z</time></trkpt><trkpt lat="41.9261362" lon="2.0705196"><ele>581.0</ele><time>2026-05-03T07:09:42.231Z</time></trkpt><trkpt lat="41.9261206" lon="2.0701513"><ele>578.0</ele><time>2026-05-03T07:09:43.23Z</time></trkpt><trkpt lat="41.9260694" lon="2.0697502"><ele>575.5</ele><time>2026-05-03T07:09:44.231Z</time></trkpt><trkpt lat="41.9259937" lon="2.0693196"><ele>573.0</ele><time>2026-05-03T07:09:45.231Z</time></trkpt><trkpt lat="41.9259009" lon="2.0688732"><ele>573.5</ele><time>2026-05-03T07:09:46.23Z</time></trkpt><trkpt lat="41.9257965" lon="2.0684563"><ele>574.0</ele><time>2026-05-03T07:09:47.23Z</time></trkpt><trkpt lat="41.9256963" lon="2.0680781"><ele>571.5</ele><time>2026-05-03T07:09:48.231Z</time></trkpt><trkpt lat="41.9256008" lon="2.067742"><ele>569.0</ele><time>2026-05-03T07:09:49.231Z</time></trkpt><trkpt lat="41.9255226" lon="2.0674435"><ele>566.3333333333333</ele><time>2026-05-03T07:09:50.231Z</time></trkpt><trkpt lat="41.9254729" lon="2.0671525"><ele>563.6666666666666</ele><time>2026-05-03T07:09:51.23Z</time></trkpt><trkpt lat="41.9254674" lon="2.0668719"><ele>561.0</ele><time>2026-05-03T07:09:52.231Z</time></trkpt><trkpt lat="41.9255036" lon="2.0666189"><ele>557.3333333333334</ele><time>2026-05-03T07:09:53.23Z</time></trkpt><trkpt lat="41.9255926" lon="2.0664205"><ele>553.6666666666667</ele><time>2026-05-03T07:09:54.231Z</time></trkpt><trkpt lat="41.9257205" lon="2.0662695"><ele>550.0</ele><time>2026-05-03T07:09:55.231Z</time></trkpt><trkpt lat="41.9258963" lon="2.0661718"><ele>550.0</ele><time>2026-05-03T07:09:56.232Z</time></trkpt><trkpt lat="41.9260886" lon="2.0661361"><ele>550.0</ele><time>2026-05-03T07:09:57.232Z</time></trkpt><trkpt lat="41.9262607" lon="2.0661"><ele>550.0</ele><time>2026-05-03T07:09:58.231Z</time></trkpt><trkpt lat="41.9264131" lon="2.0660024"><ele>550.0</ele><time>2026-05-03T07:09:59.232Z</time></trkpt><trkpt lat="41.9265357" lon="2.0658489"><ele>550.0</ele><time>2026-05-03T07:10:00.231Z</time></trkpt><trkpt lat="41.9266236" lon="2.0656228"><ele>550.0</ele><time>2026-05-03T07:10:01.23Z</time></trkpt><trkpt lat="41.926727" lon="2.0653735"><ele>549.0</ele><time>2026-05-03T07:10:02.231Z</time></trkpt><trkpt lat="41.9267795" lon="2.0650098"><ele>548.0</ele><time>2026-05-03T07:10:03.231Z</time></trkpt><trkpt lat="41.9268792" lon="2.0646902"><ele>544.5</ele><time>2026-05-03T07:10:04.231Z</time></trkpt><trkpt lat="41.9270088" lon="2.0643913"><ele>541.0</ele><time>2026-05-03T07:10:05.231Z</time></trkpt><trkpt lat="41.9271521" lon="2.0641285"><ele>537.6666666666667</ele><time>2026-05-03T07:10:06.232Z</time></trkpt><trkpt lat="41.927293" lon="2.0638932"><ele>534.3333333333334</ele><time>2026-05-03T07:10:07.232Z</time></trkpt><trkpt lat="41.9274191" lon="2.0636453"><ele>531.0</ele><time>2026-05-03T07:10:08.232Z</time></trkpt><trkpt lat="41.9275226" lon="2.0633948"><ele>532.3333333333334</ele><time>2026-05-03T07:10:09.231Z</time></trkpt><trkpt lat="41.9275925" lon="2.0631466"><ele>533.6666666666667</ele><time>2026-05-03T07:10:10.232Z</time></trkpt><trkpt lat="41.9276319" lon="2.0628988"><ele>535.0</ele><time>2026-05-03T07:10:11.232Z</time></trkpt><trkpt lat="41.9276503" lon="2.0626534"><ele>530.0</ele><time>2026-05-03T07:10:12.231Z</time></trkpt><trkpt lat="41.9276424" lon="2.062368"><ele>525.0</ele><time>2026-05-03T07:10:13.231Z</time></trkpt><trkpt lat="41.9276341" lon="2.0620335"><ele>525.0</ele><time>2026-05-03T07:10:14.231Z</time></trkpt><trkpt lat="41.9276327" lon="2.0616617"><ele>525.0</ele><time>2026-05-03T07:10:15.23Z</time></trkpt><trkpt lat="41.9276215" lon="2.06125"><ele>523.5</ele><time>2026-05-03T07:10:16.231Z</time></trkpt><trkpt lat="41.927592" lon="2.0608363"><ele>522.0</ele><time>2026-05-03T07:10:17.231Z</time></trkpt><trkpt lat="41.9275583" lon="2.0604815"><ele>514.3333333333334</ele><time>2026-05-03T07:10:18.23Z</time></trkpt><trkpt lat="41.9275285" lon="2.0601808"><ele>506.6666666666667</ele><time>2026-05-03T07:10:19.231Z</time></trkpt><trkpt lat="41.9275198" lon="2.0599207"><ele>499.0</ele><time>2026-05-03T07:10:20.23Z</time></trkpt><trkpt lat="41.927564" lon="2.0596784"><ele>496.6666666666667</ele><time>2026-05-03T07:10:21.231Z</time></trkpt><trkpt lat="41.9276371" lon="2.0594376"><ele>494.33333333333337</ele><time>2026-05-03T07:10:22.232Z</time></trkpt><trkpt lat="41.9277926" lon="2.0592657"><ele>492.0</ele><time>2026-05-03T07:10:23.23Z</time></trkpt><trkpt lat="41.9279494" lon="2.0591407"><ele>492.66666666666663</ele><time>2026-05-03T07:10:24.231Z</time></trkpt><trkpt lat="41.9281312" lon="2.0590788"><ele>493.3333333333333</ele><time>2026-05-03T07:10:25.232Z</time></trkpt><trkpt lat="41.9283317" lon="2.0590872"><ele>494.0</ele><time>2026-05-03T07:10:26.232Z</time></trkpt><trkpt lat="41.9285158" lon="2.059132"><ele>494.0</ele><time>2026-05-03T07:10:27.231Z</time></trkpt><trkpt lat="41.9286856" lon="2.0591269"><ele>494.0</ele><time>2026-05-03T07:10:28.231Z</time></trkpt><trkpt lat="41.9288456" lon="2.0590571"><ele>494.0</ele><time>2026-05-03T07:10:29.232Z</time></trkpt><trkpt lat="41.9289779" lon="2.0589278"><ele>489.66666666666663</ele><time>2026-05-03T07:10:30.232Z</time></trkpt><trkpt lat="41.9290598" lon="2.0587557"><ele>485.33333333333337</ele><time>2026-05-03T07:10:31.232Z</time></trkpt><trkpt lat="41.9290912" lon="2.058549"><ele>481.0</ele><time>2026-05-03T07:10:32.231Z</time></trkpt><trkpt lat="41.9290673" lon="2.058335"><ele>478.6666666666667</ele><time>2026-05-03T07:10:33.231Z</time></trkpt><trkpt lat="41.9289908" lon="2.0581435"><ele>476.33333333333337</ele><time>2026-05-03T07:10:34.231Z</time></trkpt><trkpt lat="41.9288688" lon="2.0579627"><ele>474.0</ele><time>2026-05-03T07:10:35.231Z</time></trkpt><trkpt lat="41.9287683" lon="2.0577872"><ele>474.0</ele><time>2026-05-03T07:10:36.23Z</time></trkpt><trkpt lat="41.9287146" lon="2.0575844"><ele>474.0</ele><time>2026-05-03T07:10:37.231Z</time></trkpt><trkpt lat="41.9287196" lon="2.0573754"><ele>474.0</ele><time>2026-05-03T07:10:38.231Z</time></trkpt><trkpt lat="41.9287811" lon="2.0571724"><ele>468.66666666666663</ele><time>2026-05-03T07:10:39.231Z</time></trkpt><trkpt lat="41.9288927" lon="2.0570189"><ele>463.3333333333333</ele><time>2026-05-03T07:10:40.23Z</time></trkpt><trkpt lat="41.92905" lon="2.0569168"><ele>458.0</ele><time>2026-05-03T07:10:41.231Z</time></trkpt><trkpt lat="41.9292656" lon="2.0568509"><ele>457.0</ele><time>2026-05-03T07:10:42.231Z</time></trkpt><trkpt lat="41.9295265" lon="2.0568268"><ele>456.0</ele><time>2026-05-03T07:10:43.231Z</time></trkpt><trkpt lat="41.9298228" lon="2.056846"><ele>454.0</ele><time>2026-05-03T07:10:44.232Z</time></trkpt><trkpt lat="41.9301342" lon="2.0568906"><ele>452.0</ele><time>2026-05-03T07:10:45.23Z</time></trkpt><trkpt lat="41.9304164" lon="2.0569419"><ele>452.0</ele><time>2026-05-03T07:10:46.231Z</time></trkpt><trkpt lat="41.9306864" lon="2.0570053"><ele>452.0</ele><time>2026-05-03T07:10:47.231Z</time></trkpt><trkpt lat="41.9309419" lon="2.0570972"><ele>450.5</ele><time>2026-05-03T07:10:48.23Z</time></trkpt><trkpt lat="41.9311747" lon="2.0572317"><ele>449.0</ele><time>2026-05-03T07:10:49.231Z</time></trkpt><trkpt lat="41.9313759" lon="2.0573855"><ele>450.3333333333333</ele><time>2026-05-03T07:10:50.23Z</time></trkpt><trkpt lat="41.9315585" lon="2.0575341"><ele>451.66666666666663</ele><time>2026-05-03T07:10:51.23Z</time></trkpt><trkpt lat="41.9317277" lon="2.0576677"><ele>453.0</ele><time>2026-05-03T07:10:52.231Z</time></trkpt><trkpt lat="41.9318823" lon="2.0577881"><ele>453.33333333333337</ele><time>2026-05-03T07:10:53.232Z</time></trkpt><trkpt lat="41.9320227" lon="2.0579017"><ele>453.6666666666667</ele><time>2026-05-03T07:10:54.23Z</time></trkpt><trkpt lat="41.9321542" lon="2.0580092"><ele>454.0</ele><time>2026-05-03T07:10:55.231Z</time></trkpt><trkpt lat="41.9322736" lon="2.0581111"><ele>454.0</ele><time>2026-05-03T07:10:56.231Z</time></trkpt><trkpt lat="41.9323763" lon="2.0581971"><ele>454.0</ele><time>2026-05-03T07:10:57.232Z</time></trkpt><trkpt lat="41.9324641" lon="2.0582605"><ele>454.0</ele><time>2026-05-03T07:10:58.231Z</time></trkpt><trkpt lat="41.9325326" lon="2.0583125"><ele>454.0</ele><time>2026-05-03T07:10:59.231Z</time></trkpt><trkpt lat="41.9325843" lon="2.0583691"><ele>454.0</ele><time>2026-05-03T07:11:00.231Z</time></trkpt><trkpt lat="41.9326487" lon="2.0585047"><ele>454.50000000000006</ele><time>2026-05-03T07:11:02.231Z</time></trkpt><trkpt lat="41.9327402" lon="2.0585816"><ele>455.0</ele><time>2026-05-03T07:11:04.23Z</time></trkpt><trkpt lat="41.9328305" lon="2.0586019"><ele>455.5</ele><time>2026-05-03T07:11:06.231Z</time></trkpt><trkpt lat="41.9328931" lon="2.0586335"><ele>456.0</ele><time>2026-05-03T07:11:08.232Z</time></trkpt><trkpt lat="41.9329449" lon="2.0586849"><ele>456.50000000000006</ele><time>2026-05-03T07:11:11.231Z</time></trkpt><trkpt lat="41.933013" lon="2.0587396"><ele>457.0</ele><time>2026-05-03T07:11:18.232Z</time></trkpt><trkpt lat="41.9330688" lon="2.0587831"><ele>457.0</ele><time>2026-05-03T07:11:19.231Z</time></trkpt><trkpt lat="41.9331355" lon="2.0588364"><ele>457.00000000000006</ele><time>2026-05-03T07:11:20.231Z</time></trkpt><trkpt lat="41.9332143" lon="2.0589061"><ele>457.00000000000006</ele><time>2026-05-03T07:11:21.231Z</time></trkpt><trkpt lat="41.9333059" lon="2.058975"><ele>457.0</ele><time>2026-05-03T07:11:22.232Z</time></trkpt><trkpt lat="41.9334043" lon="2.0590357"><ele>457.0</ele><time>2026-05-03T07:11:23.231Z</time></trkpt><trkpt lat="41.9335084" lon="2.0590937"><ele>458.75</ele><time>2026-05-03T07:11:24.231Z</time></trkpt><trkpt lat="41.9336226" lon="2.0591549"><ele>460.5</ele><time>2026-05-03T07:11:25.231Z</time></trkpt><trkpt lat="41.933741" lon="2.0592162"><ele>462.25</ele><time>2026-05-03T07:11:26.232Z</time></trkpt><trkpt lat="41.9338639" lon="2.059279"><ele>464.0</ele><time>2026-05-03T07:11:27.23Z</time></trkpt><trkpt lat="41.9339914" lon="2.0593433"><ele>464.0</ele><time>2026-05-03T07:11:28.231Z</time></trkpt><trkpt lat="41.9341269" lon="2.0594118"><ele>464.0</ele><time>2026-05-03T07:11:29.23Z</time></trkpt><trkpt lat="41.9342675" lon="2.0594849"><ele>464.0</ele><time>2026-05-03T07:11:30.231Z</time></trkpt><trkpt lat="41.9344063" lon="2.0595748"><ele>463.5</ele><time>2026-05-03T07:11:31.23Z</time></trkpt><trkpt lat="41.9345286" lon="2.0596812"><ele>463.0</ele><time>2026-05-03T07:11:32.232Z</time></trkpt><trkpt lat="41.9346149" lon="2.0598092"><ele>462.5</ele><time>2026-05-03T07:11:33.231Z</time></trkpt><trkpt lat="41.9346611" lon="2.0599582"><ele>462.0</ele><time>2026-05-03T07:11:34.232Z</time></trkpt><trkpt lat="41.9346648" lon="2.0601232"><ele>465.66666666666663</ele><time>2026-05-03T07:11:35.23Z</time></trkpt><trkpt lat="41.9346239" lon="2.0603032"><ele>469.3333333333333</ele><time>2026-05-03T07:11:36.231Z</time></trkpt><trkpt lat="41.9345473" lon="2.0604818"><ele>473.0</ele><time>2026-05-03T07:11:37.231Z</time></trkpt><trkpt lat="41.9344402" lon="2.0606711"><ele>474.3333333333333</ele><time>2026-05-03T07:11:38.232Z</time></trkpt><trkpt lat="41.9343077" lon="2.0608848"><ele>475.66666666666663</ele><time>2026-05-03T07:11:39.231Z</time></trkpt><trkpt lat="41.9341628" lon="2.0611205"><ele>477.0</ele><time>2026-05-03T07:11:40.23Z</time></trkpt><trkpt lat="41.9340067" lon="2.0613848"><ele>480.66666666666663</ele><time>2026-05-03T07:11:41.232Z</time></trkpt><trkpt lat="41.9338605" lon="2.0616318"><ele>484.3333333333333</ele><time>2026-05-03T07:11:42.231Z</time></trkpt><trkpt lat="41.9337365" lon="2.0618649"><ele>488.0</ele><time>2026-05-03T07:11:43.232Z</time></trkpt><trkpt lat="41.9336324" lon="2.0621011"><ele>488.0</ele><time>2026-05-03T07:11:44.232Z</time></trkpt><trkpt lat="41.9335531" lon="2.0623306"><ele>488.0</ele><time>2026-05-03T07:11:45.232Z</time></trkpt><trkpt lat="41.9334943" lon="2.0625505"><ele>488.0</ele><time>2026-05-03T07:11:46.23Z</time></trkpt><trkpt lat="41.9334784" lon="2.0627636"><ele>491.66666666666663</ele><time>2026-05-03T07:11:47.231Z</time></trkpt><trkpt lat="41.933502" lon="2.0630006"><ele>495.33333333333337</ele><time>2026-05-03T07:11:48.23Z</time></trkpt><trkpt lat="41.9335699" lon="2.0632601"><ele>499.0</ele><time>2026-05-03T07:11:49.232Z</time></trkpt><trkpt lat="41.9336766" lon="2.0635475"><ele>499.0</ele><time>2026-05-03T07:11:50.23Z</time></trkpt><trkpt lat="41.9337988" lon="2.063855"><ele>499.0</ele><time>2026-05-03T07:11:51.232Z</time></trkpt><trkpt lat="41.933929" lon="2.0642087"><ele>499.0</ele><time>2026-05-03T07:11:52.231Z</time></trkpt><trkpt lat="41.934053" lon="2.0645834"><ele>499.0</ele><time>2026-05-03T07:11:53.23Z</time></trkpt><trkpt lat="41.9341863" lon="2.064944"><ele>496.0</ele><time>2026-05-03T07:11:54.231Z</time></trkpt><trkpt lat="41.9343201" lon="2.0652621"><ele>493.0</ele><time>2026-05-03T07:11:55.231Z</time></trkpt><trkpt lat="41.9344575" lon="2.065543"><ele>498.0</ele><time>2026-05-03T07:11:56.23Z</time></trkpt><trkpt lat="41.9345715" lon="2.0657997"><ele>503.0</ele><time>2026-05-03T07:11:57.231Z</time></trkpt><trkpt lat="41.9346347" lon="2.0660524"><ele>508.0</ele><time>2026-05-03T07:11:58.233Z</time></trkpt><trkpt lat="41.9346795" lon="2.0662873"><ele>508.0</ele><time>2026-05-03T07:11:59.232Z</time></trkpt><trkpt lat="41.9347682" lon="2.0665069"><ele>508.0</ele><time>2026-05-03T07:12:00.231Z</time></trkpt><trkpt lat="41.9348867" lon="2.0666734"><ele>508.0</ele><time>2026-05-03T07:12:01.232Z</time></trkpt><trkpt lat="41.9350487" lon="2.0668178"><ele>508.6666666666667</ele><time>2026-05-03T07:12:02.232Z</time></trkpt><trkpt lat="41.9352388" lon="2.0669645"><ele>509.33333333333337</ele><time>2026-05-03T07:12:03.233Z</time></trkpt><trkpt lat="41.935395" lon="2.0671636"><ele>510.0</ele><time>2026-05-03T07:12:04.232Z</time></trkpt><trkpt lat="41.9355124" lon="2.0673574"><ele>512.3333333333334</ele><time>2026-05-03T07:12:05.232Z</time></trkpt><trkpt lat="41.9355778" lon="2.0675721"><ele>514.6666666666667</ele><time>2026-05-03T07:12:06.233Z</time></trkpt><trkpt lat="41.9356072" lon="2.0678141"><ele>517.0</ele><time>2026-05-03T07:12:07.231Z</time></trkpt><trkpt lat="41.9356092" lon="2.0680891"><ele>519.0</ele><time>2026-05-03T07:12:08.232Z</time></trkpt><trkpt lat="41.9355408" lon="2.0683642"><ele>521.0</ele><time>2026-05-03T07:12:09.232Z</time></trkpt><trkpt lat="41.9355469" lon="2.0685957"><ele>523.0</ele><time>2026-05-03T07:12:10.231Z</time></trkpt><trkpt lat="41.9355869" lon="2.068808"><ele>523.0</ele><time>2026-05-03T07:12:11.233Z</time></trkpt><trkpt lat="41.9356897" lon="2.0690385"><ele>523.0</ele><time>2026-05-03T07:12:12.232Z</time></trkpt><trkpt lat="41.9358301" lon="2.0692812"><ele>523.0</ele><time>2026-05-03T07:12:13.231Z</time></trkpt><trkpt lat="41.9359824" lon="2.0695087"><ele>528.5</ele><time>2026-05-03T07:12:14.232Z</time></trkpt><trkpt lat="41.9361637" lon="2.0697062"><ele>534.0</ele><time>2026-05-03T07:12:15.232Z</time></trkpt><trkpt lat="41.9364039" lon="2.0698593"><ele>531.6666666666666</ele><time>2026-05-03T07:12:16.231Z</time></trkpt><trkpt lat="41.9365991" lon="2.0699978"><ele>529.3333333333333</ele><time>2026-05-03T07:12:17.231Z</time></trkpt><trkpt lat="41.9367625" lon="2.0701422"><ele>527.0</ele><time>2026-05-03T07:12:18.231Z</time></trkpt><trkpt lat="41.9368877" lon="2.0703384"><ele>525.6666666666666</ele><time>2026-05-03T07:12:19.232Z</time></trkpt><trkpt lat="41.9369777" lon="2.0705937"><ele>524.3333333333334</ele><time>2026-05-03T07:12:20.233Z</time></trkpt><trkpt lat="41.9370796" lon="2.070854"><ele>523.0</ele><time>2026-05-03T07:12:21.231Z</time></trkpt><trkpt lat="41.9370807" lon="2.0712206"><ele>525.3333333333334</ele><time>2026-05-03T07:12:22.231Z</time></trkpt><trkpt lat="41.9371293" lon="2.0715216"><ele>527.6666666666666</ele><time>2026-05-03T07:12:23.232Z</time></trkpt><trkpt lat="41.9371698" lon="2.0717802"><ele>530.0</ele><time>2026-05-03T07:12:24.231Z</time></trkpt><trkpt lat="41.9371665" lon="2.0720218"><ele>530.0</ele><time>2026-05-03T07:12:25.232Z</time></trkpt><trkpt lat="41.937116" lon="2.0722471"><ele>530.0</ele><time>2026-05-03T07:12:26.233Z</time></trkpt><trkpt lat="41.9369781" lon="2.0724832"><ele>530.0</ele><time>2026-05-03T07:12:27.232Z</time></trkpt><trkpt lat="41.9368115" lon="2.0727058"><ele>529.5</ele><time>2026-05-03T07:12:28.231Z</time></trkpt><trkpt lat="41.9365947" lon="2.0728914"><ele>529.0</ele><time>2026-05-03T07:12:29.231Z</time></trkpt><trkpt lat="41.9363566" lon="2.0730625"><ele>529.0</ele><time>2026-05-03T07:12:30.232Z</time></trkpt><trkpt lat="41.9361645" lon="2.0732205"><ele>529.0</ele><time>2026-05-03T07:12:31.232Z</time></trkpt><trkpt lat="41.9360137" lon="2.0733706"><ele>529.0</ele><time>2026-05-03T07:12:32.232Z</time></trkpt><trkpt lat="41.9359176" lon="2.0735559"><ele>531.6666666666667</ele><time>2026-05-03T07:12:33.232Z</time></trkpt><trkpt lat="41.935875" lon="2.0737735"><ele>534.3333333333334</ele><time>2026-05-03T07:12:34.233Z</time></trkpt><trkpt lat="41.9358344" lon="2.0740471"><ele>537.0</ele><time>2026-05-03T07:12:35.231Z</time></trkpt><trkpt lat="41.9357647" lon="2.0743627"><ele>543.5</ele><time>2026-05-03T07:12:36.231Z</time></trkpt><trkpt lat="41.9356797" lon="2.074715"><ele>550.0</ele><time>2026-05-03T07:12:37.233Z</time></trkpt><trkpt lat="41.935606" lon="2.0750508"><ele>553.6666666666667</ele><time>2026-05-03T07:12:38.231Z</time></trkpt><trkpt lat="41.9355396" lon="2.0753248"><ele>557.3333333333334</ele><time>2026-05-03T07:12:39.233Z</time></trkpt><trkpt lat="41.935457" lon="2.0755457"><ele>561.0</ele><time>2026-05-03T07:12:40.232Z</time></trkpt><trkpt lat="41.9353299" lon="2.075704"><ele>564.25</ele><time>2026-05-03T07:12:41.233Z</time></trkpt><trkpt lat="41.9352117" lon="2.0758252"><ele>567.5</ele><time>2026-05-03T07:12:42.232Z</time></trkpt><trkpt lat="41.9351421" lon="2.0759702"><ele>570.75</ele><time>2026-05-03T07:12:43.232Z</time></trkpt><trkpt lat="41.9351222" lon="2.0761316"><ele>574.0</ele><time>2026-05-03T07:12:44.231Z</time></trkpt><trkpt lat="41.9351629" lon="2.0763009"><ele>574.0</ele><time>2026-05-03T07:12:45.232Z</time></trkpt><trkpt lat="41.9352566" lon="2.0764929"><ele>574.0</ele><time>2026-05-03T07:12:46.232Z</time></trkpt><trkpt lat="41.9353646" lon="2.0766961"><ele>574.0</ele><time>2026-05-03T07:12:47.232Z</time></trkpt><trkpt lat="41.9354173" lon="2.0768626"><ele>575.75</ele><time>2026-05-03T07:12:48.232Z</time></trkpt><trkpt lat="41.9354171" lon="2.077031"><ele>577.5</ele><time>2026-05-03T07:12:49.231Z</time></trkpt><trkpt lat="41.9354151" lon="2.0771975"><ele>579.25</ele><time>2026-05-03T07:12:50.233Z</time></trkpt><trkpt lat="41.9353887" lon="2.0773874"><ele>581.0</ele><time>2026-05-03T07:12:51.232Z</time></trkpt><trkpt lat="41.935218" lon="2.0775884"><ele>581.0</ele><time>2026-05-03T07:12:52.233Z</time></trkpt><trkpt lat="41.9351911" lon="2.0778086"><ele>581.0</ele><time>2026-05-03T07:12:53.232Z</time></trkpt><trkpt lat="41.9351945" lon="2.0780435"><ele>581.0</ele><time>2026-05-03T07:12:54.232Z</time></trkpt><trkpt lat="41.9352028" lon="2.0782606"><ele>583.6666666666666</ele><time>2026-05-03T07:12:55.232Z</time></trkpt><trkpt lat="41.9351565" lon="2.0784433"><ele>586.3333333333334</ele><time>2026-05-03T07:12:56.232Z</time></trkpt><trkpt lat="41.93507" lon="2.0786293"><ele>589.0</ele><time>2026-05-03T07:12:57.232Z</time></trkpt><trkpt lat="41.9350347" lon="2.0788198"><ele>590.6666666666667</ele><time>2026-05-03T07:12:58.233Z</time></trkpt><trkpt lat="41.935044" lon="2.0790284"><ele>592.3333333333334</ele><time>2026-05-03T07:12:59.232Z</time></trkpt><trkpt lat="41.9351048" lon="2.0792518"><ele>594.0</ele><time>2026-05-03T07:13:00.231Z</time></trkpt><trkpt lat="41.9351891" lon="2.079438"><ele>594.0</ele><time>2026-05-03T07:13:01.232Z</time></trkpt><trkpt lat="41.9353145" lon="2.0795714"><ele>594.0</ele><time>2026-05-03T07:13:02.232Z</time></trkpt><trkpt lat="41.9354518" lon="2.0796783"><ele>594.0</ele><time>2026-05-03T07:13:03.232Z</time></trkpt><trkpt lat="41.9355442" lon="2.0797975"><ele>594.0</ele><time>2026-05-03T07:13:04.232Z</time></trkpt><trkpt lat="41.9355942" lon="2.0799555"><ele>593.75</ele><time>2026-05-03T07:13:05.231Z</time></trkpt><trkpt lat="41.9355979" lon="2.0801281"><ele>593.5</ele><time>2026-05-03T07:13:06.232Z</time></trkpt><trkpt lat="41.9355085" lon="2.0803103"><ele>593.25</ele><time>2026-05-03T07:13:07.231Z</time></trkpt><trkpt lat="41.9354891" lon="2.0804796"><ele>593.0</ele><time>2026-05-03T07:13:08.232Z</time></trkpt><trkpt lat="41.9355178" lon="2.0806639"><ele>593.6666666666666</ele><time>2026-05-03T07:13:09.232Z</time></trkpt><trkpt lat="41.9355983" lon="2.0808628"><ele>594.3333333333334</ele><time>2026-05-03T07:13:10.233Z</time></trkpt><trkpt lat="41.9357205" lon="2.0810697"><ele>595.0</ele><time>2026-05-03T07:13:11.231Z</time></trkpt><trkpt lat="41.9358819" lon="2.0812853"><ele>598.6666666666667</ele><time>2026-05-03T07:13:12.232Z</time></trkpt><trkpt lat="41.9359982" lon="2.0814588"><ele>602.3333333333334</ele><time>2026-05-03T07:13:13.233Z</time></trkpt><trkpt lat="41.9360686" lon="2.0816421"><ele>606.0</ele><time>2026-05-03T07:13:14.231Z</time></trkpt><trkpt lat="41.9360832" lon="2.0818562"><ele>607.3333333333334</ele><time>2026-05-03T07:13:15.231Z</time></trkpt><trkpt lat="41.936091" lon="2.082076"><ele>608.6666666666667</ele><time>2026-05-03T07:13:16.233Z</time></trkpt><trkpt lat="41.9361499" lon="2.0823056"><ele>610.0</ele><time>2026-05-03T07:13:17.231Z</time></trkpt><trkpt lat="41.9362415" lon="2.0825741"><ele>612.5</ele><time>2026-05-03T07:13:18.233Z</time></trkpt><trkpt lat="41.9363439" lon="2.0828821"><ele>615.0</ele><time>2026-05-03T07:13:19.233Z</time></trkpt><trkpt lat="41.9364336" lon="2.0832007"><ele>615.6666666666666</ele><time>2026-05-03T07:13:20.232Z</time></trkpt><trkpt lat="41.9364782" lon="2.0834777"><ele>616.3333333333333</ele><time>2026-05-03T07:13:21.231Z</time></trkpt><trkpt lat="41.9365182" lon="2.0837336"><ele>617.0</ele><time>2026-05-03T07:13:22.231Z</time></trkpt><trkpt lat="41.9364776" lon="2.0839836"><ele>617.3333333333333</ele><time>2026-05-03T07:13:23.232Z</time></trkpt><trkpt lat="41.9364507" lon="2.0842578"><ele>617.6666666666666</ele><time>2026-05-03T07:13:24.231Z</time></trkpt><trkpt lat="41.9363367" lon="2.0845102"><ele>618.0</ele><time>2026-05-03T07:13:25.232Z</time></trkpt><trkpt lat="41.9362625" lon="2.0847121"><ele>618.0</ele><time>2026-05-03T07:13:26.232Z</time></trkpt><trkpt lat="41.9361557" lon="2.0848449"><ele>618.0</ele><time>2026-05-03T07:13:27.232Z</time></trkpt><trkpt lat="41.9360095" lon="2.0849183"><ele>618.0</ele><time>2026-05-03T07:13:28.233Z</time></trkpt><trkpt lat="41.9358373" lon="2.0849227"><ele>616.3333333333334</ele><time>2026-05-03T07:13:29.232Z</time></trkpt><trkpt lat="41.9356596" lon="2.0848626"><ele>614.6666666666667</ele><time>2026-05-03T07:13:30.232Z</time></trkpt><trkpt lat="41.9354882" lon="2.0847902"><ele>613.0</ele><time>2026-05-03T07:13:31.231Z</time></trkpt><trkpt lat="41.9353158" lon="2.0847881"><ele>613.0</ele><time>2026-05-03T07:13:32.232Z</time></trkpt><trkpt lat="41.9351258" lon="2.0848546"><ele>613.0</ele><time>2026-05-03T07:13:33.232Z</time></trkpt><trkpt lat="41.9349533" lon="2.084957"><ele>613.0</ele><time>2026-05-03T07:13:34.232Z</time></trkpt><trkpt lat="41.9348103" lon="2.0850853"><ele>616.3333333333334</ele><time>2026-05-03T07:13:35.232Z</time></trkpt><trkpt lat="41.9346925" lon="2.0852695"><ele>619.6666666666666</ele><time>2026-05-03T07:13:36.232Z</time></trkpt><trkpt lat="41.9345961" lon="2.0854902"><ele>623.0</ele><time>2026-05-03T07:13:37.231Z</time></trkpt><trkpt lat="41.9345375" lon="2.0857187"><ele>625.3333333333333</ele><time>2026-05-03T07:13:38.232Z</time></trkpt><trkpt lat="41.9345181" lon="2.0859548"><ele>627.6666666666666</ele><time>2026-05-03T07:13:39.232Z</time></trkpt><trkpt lat="41.9345306" lon="2.0862047"><ele>630.0</ele><time>2026-05-03T07:13:40.231Z</time></trkpt><trkpt lat="41.9345529" lon="2.086472"><ele>631.0</ele><time>2026-05-03T07:13:41.231Z</time></trkpt><trkpt lat="41.9345688" lon="2.0867181"><ele>632.0</ele><time>2026-05-03T07:13:42.232Z</time></trkpt><trkpt lat="41.9346089" lon="2.0869482"><ele>633.0</ele><time>2026-05-03T07:13:43.232Z</time></trkpt><trkpt lat="41.9346808" lon="2.0871583"><ele>633.0</ele><time>2026-05-03T07:13:44.233Z</time></trkpt><trkpt lat="41.9347788" lon="2.0873579"><ele>633.0</ele><time>2026-05-03T07:13:45.232Z</time></trkpt><trkpt lat="41.9348904" lon="2.0875558"><ele>633.0</ele><time>2026-05-03T07:13:46.231Z</time></trkpt><trkpt lat="41.9350032" lon="2.087764"><ele>633.6666666666666</ele><time>2026-05-03T07:13:47.231Z</time></trkpt><trkpt lat="41.9351184" lon="2.087979"><ele>634.3333333333333</ele><time>2026-05-03T07:13:48.232Z</time></trkpt><trkpt lat="41.9352368" lon="2.0881969"><ele>635.0</ele><time>2026-05-03T07:13:49.232Z</time></trkpt><trkpt lat="41.9353575" lon="2.0884188"><ele>635.3333333333333</ele><time>2026-05-03T07:13:50.231Z</time></trkpt><trkpt lat="41.9354771" lon="2.088645"><ele>635.6666666666666</ele><time>2026-05-03T07:13:51.231Z</time></trkpt><trkpt lat="41.935597" lon="2.0888718"><ele>636.0</ele><time>2026-05-03T07:13:52.232Z</time></trkpt><trkpt lat="41.9357176" lon="2.0891002"><ele>637.3333333333334</ele><time>2026-05-03T07:13:53.233Z</time></trkpt><trkpt lat="41.9358396" lon="2.0893258"><ele>638.6666666666667</ele><time>2026-05-03T07:13:54.232Z</time></trkpt><trkpt lat="41.9359619" lon="2.0895486"><ele>640.0</ele><time>2026-05-03T07:13:55.232Z</time></trkpt><trkpt lat="41.9360845" lon="2.089775"><ele>644.0</ele><time>2026-05-03T07:13:56.232Z</time></trkpt><trkpt lat="41.9362077" lon="2.0900066"><ele>648.0</ele><time>2026-05-03T07:13:57.231Z</time></trkpt><trkpt lat="41.9363337" lon="2.0902367"><ele>652.0</ele><time>2026-05-03T07:13:58.232Z</time></trkpt><trkpt lat="41.9364588" lon="2.0904684"><ele>652.0</ele><time>2026-05-03T07:13:59.231Z</time></trkpt><trkpt lat="41.9365834" lon="2.0907043"><ele>652.0</ele><time>2026-05-03T07:14:00.232Z</time></trkpt><trkpt lat="41.9367118" lon="2.0909464"><ele>652.0</ele><time>2026-05-03T07:14:01.231Z</time></trkpt><trkpt lat="41.9368366" lon="2.091188"><ele>655.6666666666667</ele><time>2026-05-03T07:14:02.232Z</time></trkpt><trkpt lat="41.9369511" lon="2.0913999"><ele>659.3333333333334</ele><time>2026-05-03T07:14:03.233Z</time></trkpt><trkpt lat="41.9370702" lon="2.0915775"><ele>663.0</ele><time>2026-05-03T07:14:04.232Z</time></trkpt><trkpt lat="41.937194" lon="2.0917183"><ele>662.3333333333334</ele><time>2026-05-03T07:14:05.232Z</time></trkpt><trkpt lat="41.9373732" lon="2.0917843"><ele>661.6666666666667</ele><time>2026-05-03T07:14:06.232Z</time></trkpt><trkpt lat="41.9375851" lon="2.0918522"><ele>661.0</ele><time>2026-05-03T07:14:07.232Z</time></trkpt><trkpt lat="41.9377821" lon="2.091985"><ele>661.0</ele><time>2026-05-03T07:14:08.231Z</time></trkpt><trkpt lat="41.9379717" lon="2.0921179"><ele>661.0</ele><time>2026-05-03T07:14:09.232Z</time></trkpt><trkpt lat="41.9381305" lon="2.0922341"><ele>661.0</ele><time>2026-05-03T07:14:10.232Z</time></trkpt><trkpt lat="41.9382456" lon="2.0923799"><ele>663.0</ele><time>2026-05-03T07:14:11.232Z</time></trkpt><trkpt lat="41.9383233" lon="2.0925711"><ele>665.0</ele><time>2026-05-03T07:14:12.232Z</time></trkpt><trkpt lat="41.9383799" lon="2.0928006"><ele>667.0</ele><time>2026-05-03T07:14:13.231Z</time></trkpt><trkpt lat="41.9384555" lon="2.0930383"><ele>670.3333333333334</ele><time>2026-05-03T07:14:14.231Z</time></trkpt><trkpt lat="41.9385776" lon="2.0932591"><ele>673.6666666666666</ele><time>2026-05-03T07:14:15.231Z</time></trkpt><trkpt lat="41.9387385" lon="2.0934819"><ele>677.0</ele><time>2026-05-03T07:14:16.232Z</time></trkpt><trkpt lat="41.9388853" lon="2.0936772"><ele>677.0</ele><time>2026-05-03T07:14:17.232Z</time></trkpt><trkpt lat="41.9390248" lon="2.0938473"><ele>677.0</ele><time>2026-05-03T07:14:18.232Z</time></trkpt><trkpt lat="41.9391723" lon="2.0939518"><ele>677.0</ele><time>2026-05-03T07:14:19.232Z</time></trkpt><trkpt lat="41.9393461" lon="2.0939865"><ele>675.3333333333333</ele><time>2026-05-03T07:14:20.232Z</time></trkpt><trkpt lat="41.9395331" lon="2.0940028"><ele>673.6666666666666</ele><time>2026-05-03T07:14:21.233Z</time></trkpt><trkpt lat="41.9396811" lon="2.0940771"><ele>672.0</ele><time>2026-05-03T07:14:22.232Z</time></trkpt><trkpt lat="41.9398177" lon="2.0942227"><ele>672.0</ele><time>2026-05-03T07:14:23.232Z</time></trkpt><trkpt lat="41.9399699" lon="2.0943797"><ele>672.0</ele><time>2026-05-03T07:14:24.232Z</time></trkpt><trkpt lat="41.9401131" lon="2.0946595"><ele>672.0</ele><time>2026-05-03T07:14:25.232Z</time></trkpt><trkpt lat="41.9403027" lon="2.0948794"><ele>673.0</ele><time>2026-05-03T07:14:26.232Z</time></trkpt><trkpt lat="41.9405207" lon="2.0950879"><ele>674.0</ele><time>2026-05-03T07:14:27.232Z</time></trkpt><trkpt lat="41.9407366" lon="2.0953236"><ele>673.5</ele><time>2026-05-03T07:14:28.231Z</time></trkpt><trkpt lat="41.9409329" lon="2.0955987"><ele>673.0</ele><time>2026-05-03T07:14:29.232Z</time></trkpt><trkpt lat="41.9411033" lon="2.0958628"><ele>677.0</ele><time>2026-05-03T07:14:30.231Z</time></trkpt><trkpt lat="41.9412543" lon="2.096122"><ele>681.0</ele><time>2026-05-03T07:14:31.232Z</time></trkpt><trkpt lat="41.9413733" lon="2.0964035"><ele>681.6666666666666</ele><time>2026-05-03T07:14:32.232Z</time></trkpt><trkpt lat="41.9414375" lon="2.0966796"><ele>682.3333333333333</ele><time>2026-05-03T07:14:33.232Z</time></trkpt><trkpt lat="41.9414943" lon="2.0969363"><ele>683.0</ele><time>2026-05-03T07:14:34.232Z</time></trkpt><trkpt lat="41.9415807" lon="2.0971641"><ele>683.3333333333333</ele><time>2026-05-03T07:14:35.232Z</time></trkpt><trkpt lat="41.9417173" lon="2.0973855"><ele>683.6666666666666</ele><time>2026-05-03T07:14:36.232Z</time></trkpt><trkpt lat="41.941878" lon="2.097603"><ele>684.0</ele><time>2026-05-03T07:14:37.232Z</time></trkpt><trkpt lat="41.9420498" lon="2.0978257"><ele>684.0</ele><time>2026-05-03T07:14:38.231Z</time></trkpt><trkpt lat="41.9422361" lon="2.0980461"><ele>684.0</ele><time>2026-05-03T07:14:39.232Z</time></trkpt><trkpt lat="41.9424278" lon="2.0982452"><ele>683.5</ele><time>2026-05-03T07:14:40.231Z</time></trkpt><trkpt lat="41.9426217" lon="2.0984077"><ele>683.0</ele><time>2026-05-03T07:14:41.232Z</time></trkpt><trkpt lat="41.9428323" lon="2.0985333"><ele>683.0</ele><time>2026-05-03T07:14:42.232Z</time></trkpt><trkpt lat="41.9430608" lon="2.0986151"><ele>683.0</ele><time>2026-05-03T07:14:43.232Z</time></trkpt><trkpt lat="41.9433114" lon="2.0986556"><ele>683.5</ele><time>2026-05-03T07:14:44.233Z</time></trkpt><trkpt lat="41.9435658" lon="2.0986969"><ele>684.0</ele><time>2026-05-03T07:14:45.232Z</time></trkpt><trkpt lat="41.9438171" lon="2.0987705"><ele>684.0</ele><time>2026-05-03T07:14:46.232Z</time></trkpt><trkpt lat="41.9440617" lon="2.0988945"><ele>684.0</ele><time>2026-05-03T07:14:47.233Z</time></trkpt><trkpt lat="41.9442976" lon="2.0990407"><ele>685.3333333333334</ele><time>2026-05-03T07:14:48.232Z</time></trkpt><trkpt lat="41.94451" lon="2.0991727"><ele>686.6666666666667</ele><time>2026-05-03T07:14:49.232Z</time></trkpt><trkpt lat="41.944697" lon="2.0992987"><ele>688.0</ele><time>2026-05-03T07:14:50.232Z</time></trkpt><trkpt lat="41.9448439" lon="2.0994389"><ele>688.0</ele><time>2026-05-03T07:14:51.232Z</time></trkpt><trkpt lat="41.9449407" lon="2.0996205"><ele>688.0</ele><time>2026-05-03T07:14:52.232Z</time></trkpt><trkpt lat="41.9449965" lon="2.0998479"><ele>688.0</ele><time>2026-05-03T07:14:53.232Z</time></trkpt><trkpt lat="41.9450211" lon="2.1000931"><ele>688.0</ele><time>2026-05-03T07:14:54.231Z</time></trkpt><trkpt lat="41.9450597" lon="2.1002889"><ele>688.0</ele><time>2026-05-03T07:14:55.231Z</time></trkpt><trkpt lat="41.9451183" lon="2.100445"><ele>688.0</ele><time>2026-05-03T07:14:56.231Z</time></trkpt><trkpt lat="41.9452057" lon="2.1005468"><ele>688.0</ele><time>2026-05-03T07:14:57.231Z</time></trkpt><trkpt lat="41.9453212" lon="2.1005868"><ele>688.0</ele><time>2026-05-03T07:14:58.232Z</time></trkpt><trkpt lat="41.9454692" lon="2.1005654"><ele>688.0</ele><time>2026-05-03T07:14:59.232Z</time></trkpt><trkpt lat="41.94564" lon="2.100517"><ele>688.0</ele><time>2026-05-03T07:15:00.232Z</time></trkpt><trkpt lat="41.945842" lon="2.1005256"><ele>685.5</ele><time>2026-05-03T07:15:01.232Z</time></trkpt><trkpt lat="41.9460633" lon="2.1005643"><ele>683.0</ele><time>2026-05-03T07:15:02.232Z</time></trkpt><trkpt lat="41.9462969" lon="2.1006363"><ele>683.5</ele><time>2026-05-03T07:15:03.232Z</time></trkpt><trkpt lat="41.946534" lon="2.1007672"><ele>684.0</ele><time>2026-05-03T07:15:04.232Z</time></trkpt><trkpt lat="41.9467416" lon="2.1009185"><ele>684.0</ele><time>2026-05-03T07:15:05.232Z</time></trkpt><trkpt lat="41.9469156" lon="2.1010897"><ele>684.0</ele><time>2026-05-03T07:15:06.232Z</time></trkpt><trkpt lat="41.9470502" lon="2.1012868"><ele>684.0</ele><time>2026-05-03T07:15:07.231Z</time></trkpt><trkpt lat="41.9471434" lon="2.1015056"><ele>686.3333333333334</ele><time>2026-05-03T07:15:08.231Z</time></trkpt><trkpt lat="41.9471994" lon="2.1017515"><ele>688.6666666666667</ele><time>2026-05-03T07:15:09.231Z</time></trkpt><trkpt lat="41.9472122" lon="2.1020345"><ele>691.0</ele><time>2026-05-03T07:15:10.232Z</time></trkpt><trkpt lat="41.9472082" lon="2.1023502"><ele>692.6666666666667</ele><time>2026-05-03T07:15:11.232Z</time></trkpt><trkpt lat="41.9472145" lon="2.1026546"><ele>694.3333333333334</ele><time>2026-05-03T07:15:12.233Z</time></trkpt><trkpt lat="41.9472308" lon="2.1028881"><ele>696.0</ele><time>2026-05-03T07:15:13.233Z</time></trkpt><trkpt lat="41.9472697" lon="2.103075"><ele>696.0</ele><time>2026-05-03T07:15:14.231Z</time></trkpt><trkpt lat="41.9473484" lon="2.1032281"><ele>696.0</ele><time>2026-05-03T07:15:15.231Z</time></trkpt><trkpt lat="41.9474695" lon="2.1033417"><ele>696.0</ele><time>2026-05-03T07:15:16.232Z</time></trkpt><trkpt lat="41.9476388" lon="2.1034135"><ele>695.3333333333334</ele><time>2026-05-03T07:15:17.231Z</time></trkpt><trkpt lat="41.9478377" lon="2.1034804"><ele>694.6666666666667</ele><time>2026-05-03T07:15:18.231Z</time></trkpt><trkpt lat="41.9480466" lon="2.1035598"><ele>694.0</ele><time>2026-05-03T07:15:19.232Z</time></trkpt><trkpt lat="41.9482639" lon="2.1036446"><ele>690.0</ele><time>2026-05-03T07:15:20.231Z</time></trkpt><trkpt lat="41.9484882" lon="2.1037252"><ele>686.0</ele><time>2026-05-03T07:15:21.231Z</time></trkpt><trkpt lat="41.9487233" lon="2.1037943"><ele>686.0</ele><time>2026-05-03T07:15:22.231Z</time></trkpt><trkpt lat="41.9489657" lon="2.1038494"><ele>686.0</ele><time>2026-05-03T07:15:23.232Z</time></trkpt><trkpt lat="41.9492174" lon="2.1038874"><ele>682.5</ele><time>2026-05-03T07:15:24.233Z</time></trkpt><trkpt lat="41.9494728" lon="2.1039291"><ele>679.0</ele><time>2026-05-03T07:15:25.232Z</time></trkpt><trkpt lat="41.9497292" lon="2.1039942"><ele>681.5</ele><time>2026-05-03T07:15:26.232Z</time></trkpt><trkpt lat="41.949987" lon="2.1040843"><ele>684.0</ele><time>2026-05-03T07:15:27.232Z</time></trkpt><trkpt lat="41.9502446" lon="2.1041764"><ele>684.0</ele><time>2026-05-03T07:15:28.232Z</time></trkpt><trkpt lat="41.9505038" lon="2.1042725"><ele>684.0</ele><time>2026-05-03T07:15:29.232Z</time></trkpt><trkpt lat="41.9507515" lon="2.1043646"><ele>684.0</ele><time>2026-05-03T07:15:30.232Z</time></trkpt><trkpt lat="41.9509779" lon="2.1044475"><ele>684.0</ele><time>2026-05-03T07:15:31.231Z</time></trkpt><trkpt lat="41.9511813" lon="2.1045284"><ele>684.0</ele><time>2026-05-03T07:15:32.232Z</time></trkpt><trkpt lat="41.9513595" lon="2.1046158"><ele>684.0</ele><time>2026-05-03T07:15:33.232Z</time></trkpt><trkpt lat="41.9515049" lon="2.1047413"><ele>684.0</ele><time>2026-05-03T07:15:34.231Z</time></trkpt><trkpt lat="41.9516376" lon="2.1049079"><ele>684.0</ele><time>2026-05-03T07:15:35.232Z</time></trkpt><trkpt lat="41.9517531" lon="2.1051128"><ele>685.6666666666666</ele><time>2026-05-03T07:15:36.231Z</time></trkpt><trkpt lat="41.9518621" lon="2.1053481"><ele>687.3333333333333</ele><time>2026-05-03T07:15:37.233Z</time></trkpt><trkpt lat="41.9519686" lon="2.1056105"><ele>689.0</ele><time>2026-05-03T07:15:38.232Z</time></trkpt><trkpt lat="41.952059" lon="2.1058684"><ele>690.3333333333333</ele><time>2026-05-03T07:15:39.232Z</time></trkpt><trkpt lat="41.9521179" lon="2.1061326"><ele>691.6666666666666</ele><time>2026-05-03T07:15:40.232Z</time></trkpt><trkpt lat="41.952137" lon="2.1064267"><ele>693.0</ele><time>2026-05-03T07:15:41.233Z</time></trkpt><trkpt lat="41.9521359" lon="2.1067507"><ele>694.0</ele><time>2026-05-03T07:15:42.232Z</time></trkpt><trkpt lat="41.9521262" lon="2.1070856"><ele>695.0</ele><time>2026-05-03T07:15:43.231Z</time></trkpt><trkpt lat="41.952124" lon="2.1074282"><ele>698.0</ele><time>2026-05-03T07:15:44.232Z</time></trkpt><trkpt lat="41.952137" lon="2.1077404"><ele>701.0</ele><time>2026-05-03T07:15:45.231Z</time></trkpt><trkpt lat="41.9521834" lon="2.1080623"><ele>703.0</ele><time>2026-05-03T07:15:46.232Z</time></trkpt><trkpt lat="41.9522585" lon="2.1084038"><ele>705.0</ele><time>2026-05-03T07:15:47.232Z</time></trkpt><trkpt lat="41.9523512" lon="2.1087661"><ele>705.5</ele><time>2026-05-03T07:15:48.233Z</time></trkpt><trkpt lat="41.9524487" lon="2.1091407"><ele>706.0</ele><time>2026-05-03T07:15:49.232Z</time></trkpt><trkpt lat="41.9525489" lon="2.1095282"><ele>706.0</ele><time>2026-05-03T07:15:50.232Z</time></trkpt><trkpt lat="41.9526411" lon="2.1098821"><ele>706.0</ele><time>2026-05-03T07:15:51.232Z</time></trkpt><trkpt lat="41.9527193" lon="2.1101961"><ele>708.3333333333334</ele><time>2026-05-03T07:15:52.232Z</time></trkpt><trkpt lat="41.9527853" lon="2.1104707"><ele>710.6666666666666</ele><time>2026-05-03T07:15:53.232Z</time></trkpt><trkpt lat="41.952851" lon="2.1107008"><ele>713.0</ele><time>2026-05-03T07:15:54.231Z</time></trkpt><trkpt lat="41.9529501" lon="2.1108854"><ele>714.0</ele><time>2026-05-03T07:15:55.232Z</time></trkpt><trkpt lat="41.9530906" lon="2.1110346"><ele>715.0</ele><time>2026-05-03T07:15:56.231Z</time></trkpt><trkpt lat="41.9532688" lon="2.1111369"><ele>716.0</ele><time>2026-05-03T07:15:57.232Z</time></trkpt><trkpt lat="41.9534673" lon="2.111243"><ele>716.0</ele><time>2026-05-03T07:15:58.232Z</time></trkpt><trkpt lat="41.9536612" lon="2.1113982"><ele>716.0</ele><time>2026-05-03T07:15:59.231Z</time></trkpt><trkpt lat="41.9538631" lon="2.1115977"><ele>722.0</ele><time>2026-05-03T07:16:00.233Z</time></trkpt><trkpt lat="41.9540573" lon="2.1118037"><ele>728.0</ele><time>2026-05-03T07:16:01.233Z</time></trkpt><trkpt lat="41.9542277" lon="2.111977"><ele>728.0</ele><time>2026-05-03T07:16:02.232Z</time></trkpt><trkpt lat="41.9543625" lon="2.112137"><ele>728.0</ele><time>2026-05-03T07:16:03.232Z</time></trkpt><trkpt lat="41.9544508" lon="2.1123158"><ele>728.0</ele><time>2026-05-03T07:16:04.232Z</time></trkpt><trkpt lat="41.9544834" lon="2.1125317"><ele>727.6666666666666</ele><time>2026-05-03T07:16:05.231Z</time></trkpt><trkpt lat="41.954494" lon="2.1127915"><ele>727.3333333333334</ele><time>2026-05-03T07:16:06.232Z</time></trkpt><trkpt lat="41.954553" lon="2.1130643"><ele>727.0</ele><time>2026-05-03T07:16:07.231Z</time></trkpt><trkpt lat="41.954655" lon="2.1133612"><ele>728.5</ele><time>2026-05-03T07:16:08.232Z</time></trkpt><trkpt lat="41.954773" lon="2.1136692"><ele>730.0</ele><time>2026-05-03T07:16:09.231Z</time></trkpt><trkpt lat="41.954905" lon="2.1139925"><ele>731.5</ele><time>2026-05-03T07:16:10.231Z</time></trkpt><trkpt lat="41.9550396" lon="2.1143308"><ele>733.0</ele><time>2026-05-03T07:16:11.232Z</time></trkpt><trkpt lat="41.9551689" lon="2.1146559"><ele>736.5</ele><time>2026-05-03T07:16:12.232Z</time></trkpt><trkpt lat="41.9552814" lon="2.1149469"><ele>740.0</ele><time>2026-05-03T07:16:13.232Z</time></trkpt><trkpt lat="41.9553871" lon="2.1151924"><ele>740.0</ele><time>2026-05-03T07:16:14.232Z</time></trkpt><trkpt lat="41.9555072" lon="2.1153916"><ele>740.0</ele><time>2026-05-03T07:16:15.233Z</time></trkpt><trkpt lat="41.9556836" lon="2.1155464"><ele>740.0</ele><time>2026-05-03T07:16:16.231Z</time></trkpt><trkpt lat="41.9558921" lon="2.1156891"><ele>739.0</ele><time>2026-05-03T07:16:17.232Z</time></trkpt><trkpt lat="41.9561131" lon="2.1158437"><ele>738.0</ele><time>2026-05-03T07:16:18.232Z</time></trkpt><trkpt lat="41.9563523" lon="2.1160112"><ele>738.0</ele><time>2026-05-03T07:16:19.231Z</time></trkpt><trkpt lat="41.956603" lon="2.1161788"><ele>738.0</ele><time>2026-05-03T07:16:20.232Z</time></trkpt><trkpt lat="41.9568618" lon="2.1163464"><ele>738.5</ele><time>2026-05-03T07:16:21.231Z</time></trkpt><trkpt lat="41.9571263" lon="2.116523"><ele>739.0</ele><time>2026-05-03T07:16:22.232Z</time></trkpt><trkpt lat="41.9573851" lon="2.1167028"><ele>741.0</ele><time>2026-05-03T07:16:23.232Z</time></trkpt><trkpt lat="41.9576163" lon="2.1168609"><ele>743.0</ele><time>2026-05-03T07:16:24.232Z</time></trkpt><trkpt lat="41.9578295" lon="2.1170051"><ele>743.0</ele><time>2026-05-03T07:16:25.232Z</time></trkpt><trkpt lat="41.9580179" lon="2.1171419"><ele>743.0</ele><time>2026-05-03T07:16:26.231Z</time></trkpt><trkpt lat="41.9581742" lon="2.1172934"><ele>743.0</ele><time>2026-05-03T07:16:27.232Z</time></trkpt><trkpt lat="41.9582998" lon="2.1174833"><ele>742.6666666666666</ele><time>2026-05-03T07:16:28.232Z</time></trkpt><trkpt lat="41.9584143" lon="2.1176998"><ele>742.3333333333334</ele><time>2026-05-03T07:16:29.232Z</time></trkpt><trkpt lat="41.958534" lon="2.1179274"><ele>742.0</ele><time>2026-05-03T07:16:30.232Z</time></trkpt><trkpt lat="41.9586642" lon="2.1181822"><ele>744.5</ele><time>2026-05-03T07:16:31.232Z</time></trkpt><trkpt lat="41.9588058" lon="2.1184547"><ele>747.0</ele><time>2026-05-03T07:16:32.232Z</time></trkpt><trkpt lat="41.9589526" lon="2.1187469"><ele>747.0</ele><time>2026-05-03T07:16:33.232Z</time></trkpt><trkpt lat="41.9591087" lon="2.1190528"><ele>747.0</ele><time>2026-05-03T07:16:34.231Z</time></trkpt><trkpt lat="41.9592719" lon="2.1193735"><ele>745.5</ele><time>2026-05-03T07:16:35.233Z</time></trkpt><trkpt lat="41.9594414" lon="2.1197058"><ele>744.0</ele><time>2026-05-03T07:16:36.232Z</time></trkpt><trkpt lat="41.9596165" lon="2.120049"><ele>744.0</ele><time>2026-05-03T07:16:37.231Z</time></trkpt><trkpt lat="41.9597907" lon="2.1203928"><ele>744.0</ele><time>2026-05-03T07:16:38.231Z</time></trkpt><trkpt lat="41.9599501" lon="2.1207124"><ele>743.5</ele><time>2026-05-03T07:16:39.232Z</time></trkpt><trkpt lat="41.9600956" lon="2.1210127"><ele>743.0</ele><time>2026-05-03T07:16:40.232Z</time></trkpt><trkpt lat="41.9602256" lon="2.121299"><ele>746.0</ele><time>2026-05-03T07:16:41.232Z</time></trkpt><trkpt lat="41.9603355" lon="2.1215704"><ele>749.0</ele><time>2026-05-03T07:16:42.232Z</time></trkpt><trkpt lat="41.960429" lon="2.1218223"><ele>752.0</ele><time>2026-05-03T07:16:43.233Z</time></trkpt><trkpt lat="41.9605139" lon="2.1220451"><ele>752.0</ele><time>2026-05-03T07:16:44.232Z</time></trkpt><trkpt lat="41.9605795" lon="2.12225"><ele>752.0</ele><time>2026-05-03T07:16:45.232Z</time></trkpt><trkpt lat="41.9605934" lon="2.1224505"><ele>752.0</ele><time>2026-05-03T07:16:46.233Z</time></trkpt><trkpt lat="41.9605707" lon="2.1226321"><ele>752.5</ele><time>2026-05-03T07:16:47.233Z</time></trkpt><trkpt lat="41.9605638" lon="2.122808"><ele>753.0</ele><time>2026-05-03T07:16:48.232Z</time></trkpt><trkpt lat="41.9606115" lon="2.1229746"><ele>753.5</ele><time>2026-05-03T07:16:49.233Z</time></trkpt><trkpt lat="41.9607048" lon="2.1231238"><ele>754.0</ele><time>2026-05-03T07:16:50.232Z</time></trkpt><trkpt lat="41.9608393" lon="2.1232576"><ele>755.6666666666667</ele><time>2026-05-03T07:16:51.234Z</time></trkpt><trkpt lat="41.9610017" lon="2.1234098"><ele>757.3333333333334</ele><time>2026-05-03T07:16:52.233Z</time></trkpt><trkpt lat="41.9611578" lon="2.1236112"><ele>759.0</ele><time>2026-05-03T07:16:53.232Z</time></trkpt><trkpt lat="41.9613121" lon="2.1238319"><ele>759.0</ele><time>2026-05-03T07:16:54.233Z</time></trkpt><trkpt lat="41.9614575" lon="2.1239941"><ele>759.0</ele><time>2026-05-03T07:16:55.233Z</time></trkpt><trkpt lat="41.9616156" lon="2.1241326"><ele>759.0</ele><time>2026-05-03T07:16:56.233Z</time></trkpt><trkpt lat="41.9618125" lon="2.124206"><ele>755.0</ele><time>2026-05-03T07:16:57.232Z</time></trkpt><trkpt lat="41.9619563" lon="2.1243365"><ele>751.0</ele><time>2026-05-03T07:16:58.233Z</time></trkpt><trkpt lat="41.9620917" lon="2.1245308"><ele>747.0</ele><time>2026-05-03T07:16:59.234Z</time></trkpt><trkpt lat="41.9622353" lon="2.1247678"><ele>747.5</ele><time>2026-05-03T07:17:00.233Z</time></trkpt><trkpt lat="41.9623984" lon="2.1250363"><ele>748.0</ele><time>2026-05-03T07:17:01.234Z</time></trkpt><trkpt lat="41.962568" lon="2.1253319"><ele>746.5</ele><time>2026-05-03T07:17:02.234Z</time></trkpt><trkpt lat="41.9627294" lon="2.1256095"><ele>745.0</ele><time>2026-05-03T07:17:03.233Z</time></trkpt><trkpt lat="41.9628638" lon="2.1258591"><ele>747.0</ele><time>2026-05-03T07:17:04.232Z</time></trkpt><trkpt lat="41.9629654" lon="2.1260938"><ele>749.0</ele><time>2026-05-03T07:17:05.233Z</time></trkpt><trkpt lat="41.9630251" lon="2.1263251"><ele>751.0</ele><time>2026-05-03T07:17:06.233Z</time></trkpt><trkpt lat="41.9630582" lon="2.1265631"><ele>752.6666666666667</ele><time>2026-05-03T07:17:07.233Z</time></trkpt><trkpt lat="41.9630884" lon="2.1268014"><ele>754.3333333333334</ele><time>2026-05-03T07:17:08.234Z</time></trkpt><trkpt lat="41.9631147" lon="2.1270212"><ele>756.0</ele><time>2026-05-03T07:17:09.233Z</time></trkpt><trkpt lat="41.9631274" lon="2.1272094"><ele>756.0</ele><time>2026-05-03T07:17:10.233Z</time></trkpt><trkpt lat="41.9631159" lon="2.1273773"><ele>756.0</ele><time>2026-05-03T07:17:11.233Z</time></trkpt><trkpt lat="41.9630667" lon="2.1275227"><ele>756.0</ele><time>2026-05-03T07:17:12.234Z</time></trkpt><trkpt lat="41.9629837" lon="2.1276563"><ele>756.0</ele><time>2026-05-03T07:17:13.233Z</time></trkpt><trkpt lat="41.9628778" lon="2.1277798"><ele>756.0</ele><time>2026-05-03T07:17:14.233Z</time></trkpt><trkpt lat="41.962768" lon="2.1278939"><ele>756.0</ele><time>2026-05-03T07:17:15.233Z</time></trkpt><trkpt lat="41.9626454" lon="2.1279629"><ele>756.0</ele><time>2026-05-03T07:17:16.232Z</time></trkpt><trkpt lat="41.9624968" lon="2.1279946"><ele>756.0</ele><time>2026-05-03T07:17:17.233Z</time></trkpt><trkpt lat="41.9623479" lon="2.1280192"><ele>756.0</ele><time>2026-05-03T07:17:18.233Z</time></trkpt><trkpt lat="41.9622281" lon="2.1280712"><ele>756.0</ele><time>2026-05-03T07:17:19.233Z</time></trkpt><trkpt lat="41.962135" lon="2.12816"><ele>756.0</ele><time>2026-05-03T07:17:20.233Z</time></trkpt><trkpt lat="41.9620733" lon="2.128272"><ele>756.0</ele><time>2026-05-03T07:17:21.233Z</time></trkpt><trkpt lat="41.9620303" lon="2.128388"><ele>756.0</ele><time>2026-05-03T07:17:22.233Z</time></trkpt><trkpt lat="41.9620069" lon="2.1284962"><ele>756.0</ele><time>2026-05-03T07:17:23.233Z</time></trkpt><trkpt lat="41.9620283" lon="2.128631"><ele>756.0</ele><time>2026-05-03T07:17:25.233Z</time></trkpt><trkpt lat="41.962097" lon="2.1286994"><ele>756.0</ele><time>2026-05-03T07:17:27.233Z</time></trkpt><trkpt lat="41.9622325" lon="2.128707"><ele>756.0</ele><time>2026-05-03T07:17:29.234Z</time></trkpt><trkpt lat="41.9623245" lon="2.1286847"><ele>756.0</ele><time>2026-05-03T07:17:30.232Z</time></trkpt><trkpt lat="41.9624351" lon="2.1286624"><ele>755.75</ele><time>2026-05-03T07:17:31.233Z</time></trkpt><trkpt lat="41.9625609" lon="2.128643"><ele>755.5</ele><time>2026-05-03T07:17:32.234Z</time></trkpt><trkpt lat="41.9627007" lon="2.1286325"><ele>755.25</ele><time>2026-05-03T07:17:33.232Z</time></trkpt><trkpt lat="41.9628502" lon="2.1286346"><ele>755.0</ele><time>2026-05-03T07:17:34.233Z</time></trkpt><trkpt lat="41.9630128" lon="2.1286437"><ele>755.0</ele><time>2026-05-03T07:17:35.232Z</time></trkpt><trkpt lat="41.96318" lon="2.1286627"><ele>755.0</ele><time>2026-05-03T07:17:36.232Z</time></trkpt><trkpt lat="41.9633513" lon="2.1286987"><ele>755.0</ele><time>2026-05-03T07:17:37.233Z</time></trkpt><trkpt lat="41.9635307" lon="2.1287562"><ele>756.0</ele><time>2026-05-03T07:17:38.234Z</time></trkpt><trkpt lat="41.9637057" lon="2.1288303"><ele>757.0</ele><time>2026-05-03T07:17:39.233Z</time></trkpt><trkpt lat="41.9638841" lon="2.1289223"><ele>758.0</ele><time>2026-05-03T07:17:40.233Z</time></trkpt><trkpt lat="41.9640603" lon="2.1290268"><ele>753.6666666666666</ele><time>2026-05-03T07:17:41.233Z</time></trkpt><trkpt lat="41.9642368" lon="2.1291513"><ele>749.3333333333334</ele><time>2026-05-03T07:17:42.232Z</time></trkpt><trkpt lat="41.9644059" lon="2.1292982"><ele>745.0</ele><time>2026-05-03T07:17:43.232Z</time></trkpt><trkpt lat="41.9645699" lon="2.1294642"><ele>745.0</ele><time>2026-05-03T07:17:44.233Z</time></trkpt><trkpt lat="41.9647297" lon="2.129649"><ele>745.0</ele><time>2026-05-03T07:17:45.233Z</time></trkpt><trkpt lat="41.9648864" lon="2.1298436"><ele>745.0</ele><time>2026-05-03T07:17:46.233Z</time></trkpt><trkpt lat="41.9650413" lon="2.130046"><ele>743.6666666666667</ele><time>2026-05-03T07:17:47.233Z</time></trkpt><trkpt lat="41.9651989" lon="2.1302494"><ele>742.3333333333334</ele><time>2026-05-03T07:17:48.232Z</time></trkpt><trkpt lat="41.965365" lon="2.1304503"><ele>741.0</ele><time>2026-05-03T07:17:49.232Z</time></trkpt><trkpt lat="41.9655354" lon="2.1306486"><ele>741.5</ele><time>2026-05-03T07:17:50.233Z</time></trkpt><trkpt lat="41.9657114" lon="2.1308403"><ele>742.0</ele><time>2026-05-03T07:17:51.233Z</time></trkpt><trkpt lat="41.965895" lon="2.1310279"><ele>742.0</ele><time>2026-05-03T07:17:52.233Z</time></trkpt><trkpt lat="41.9660908" lon="2.1312042"><ele>742.0</ele><time>2026-05-03T07:17:53.233Z</time></trkpt><trkpt lat="41.9662971" lon="2.1313645"><ele>742.0</ele><time>2026-05-03T07:17:54.233Z</time></trkpt><trkpt lat="41.9665156" lon="2.1315008"><ele>742.0</ele><time>2026-05-03T07:17:55.234Z</time></trkpt><trkpt lat="41.9667419" lon="2.1316115"><ele>744.0</ele><time>2026-05-03T07:17:56.232Z</time></trkpt><trkpt lat="41.9669813" lon="2.1316945"><ele>746.0</ele><time>2026-05-03T07:17:57.233Z</time></trkpt><trkpt lat="41.9672241" lon="2.1317533"><ele>746.0</ele><time>2026-05-03T07:17:58.232Z</time></trkpt><trkpt lat="41.967467" lon="2.1317885"><ele>746.0</ele><time>2026-05-03T07:17:59.233Z</time></trkpt><trkpt lat="41.9677099" lon="2.1318017"><ele>742.6666666666666</ele><time>2026-05-03T07:18:00.233Z</time></trkpt><trkpt lat="41.9679401" lon="2.1317967"><ele>739.3333333333334</ele><time>2026-05-03T07:18:01.233Z</time></trkpt><trkpt lat="41.968156" lon="2.1317618"><ele>736.0</ele><time>2026-05-03T07:18:02.232Z</time></trkpt><trkpt lat="41.9683686" lon="2.1316951"><ele>730.0</ele><time>2026-05-03T07:18:03.234Z</time></trkpt><trkpt lat="41.9685752" lon="2.1315907"><ele>724.0</ele><time>2026-05-03T07:18:04.232Z</time></trkpt><trkpt lat="41.9687732" lon="2.1314535"><ele>718.0</ele><time>2026-05-03T07:18:05.232Z</time></trkpt><trkpt lat="41.9689662" lon="2.1312842"><ele>718.0</ele><time>2026-05-03T07:18:06.233Z</time></trkpt><trkpt lat="41.9691451" lon="2.1310749"><ele>718.0</ele><time>2026-05-03T07:18:07.233Z</time></trkpt><trkpt lat="41.9693043" lon="2.1308285"><ele>710.0</ele><time>2026-05-03T07:18:08.233Z</time></trkpt><trkpt lat="41.9694422" lon="2.130552"><ele>702.0</ele><time>2026-05-03T07:18:09.234Z</time></trkpt><trkpt lat="41.9695552" lon="2.1302509"><ele>702.0</ele><time>2026-05-03T07:18:10.232Z</time></trkpt><trkpt lat="41.9696467" lon="2.129928"><ele>702.0</ele><time>2026-05-03T07:18:11.232Z</time></trkpt><trkpt lat="41.9697303" lon="2.1296021"><ele>703.5</ele><time>2026-05-03T07:18:12.233Z</time></trkpt><trkpt lat="41.969821" lon="2.129302"><ele>705.0</ele><time>2026-05-03T07:18:13.233Z</time></trkpt><trkpt lat="41.9699373" lon="2.1290301"><ele>705.0</ele><time>2026-05-03T07:18:14.232Z</time></trkpt><trkpt lat="41.9700763" lon="2.1287908"><ele>705.0</ele><time>2026-05-03T07:18:15.233Z</time></trkpt><trkpt lat="41.9702458" lon="2.128588"><ele>705.0</ele><time>2026-05-03T07:18:16.233Z</time></trkpt><trkpt lat="41.9704474" lon="2.1284173"><ele>705.0</ele><time>2026-05-03T07:18:17.233Z</time></trkpt><trkpt lat="41.9706687" lon="2.1282668"><ele>699.5</ele><time>2026-05-03T07:18:18.233Z</time></trkpt><trkpt lat="41.9709081" lon="2.1281143"><ele>694.0</ele><time>2026-05-03T07:18:19.233Z</time></trkpt><trkpt lat="41.9711488" lon="2.1279455"><ele>694.0</ele><time>2026-05-03T07:18:20.233Z</time></trkpt><trkpt lat="41.9713728" lon="2.1277578"><ele>694.0</ele><time>2026-05-03T07:18:21.234Z</time></trkpt><trkpt lat="41.9715799" lon="2.1275366"><ele>696.0</ele><time>2026-05-03T07:18:22.232Z</time></trkpt><trkpt lat="41.9717651" lon="2.1272841"><ele>698.0</ele><time>2026-05-03T07:18:23.233Z</time></trkpt><trkpt lat="41.9719214" lon="2.1270004"><ele>698.0</ele><time>2026-05-03T07:18:24.233Z</time></trkpt><trkpt lat="41.9720476" lon="2.1266886"><ele>698.0</ele><time>2026-05-03T07:18:25.233Z</time></trkpt><trkpt lat="41.9721435" lon="2.1263484"><ele>695.5</ele><time>2026-05-03T07:18:26.234Z</time></trkpt><trkpt lat="41.9722134" lon="2.1259797"><ele>693.0</ele><time>2026-05-03T07:18:27.233Z</time></trkpt><trkpt lat="41.9722687" lon="2.1255976"><ele>690.5</ele><time>2026-05-03T07:18:28.233Z</time></trkpt><trkpt lat="41.9723172" lon="2.1252024"><ele>688.0</ele><time>2026-05-03T07:18:29.232Z</time></trkpt><trkpt lat="41.9723633" lon="2.1247973"><ele>687.0</ele><time>2026-05-03T07:18:30.234Z</time></trkpt><trkpt lat="41.9724177" lon="2.1243886"><ele>686.0</ele><time>2026-05-03T07:18:31.233Z</time></trkpt><trkpt lat="41.9724719" lon="2.1239715"><ele>686.0</ele><time>2026-05-03T07:18:32.233Z</time></trkpt><trkpt lat="41.9725237" lon="2.1235509"><ele>686.0</ele><time>2026-05-03T07:18:33.233Z</time></trkpt><trkpt lat="41.9725752" lon="2.1231278"><ele>681.5</ele><time>2026-05-03T07:18:34.234Z</time></trkpt><trkpt lat="41.972629" lon="2.1227023"><ele>677.0</ele><time>2026-05-03T07:18:35.232Z</time></trkpt><trkpt lat="41.9726802" lon="2.1222747"><ele>675.5</ele><time>2026-05-03T07:18:36.232Z</time></trkpt><trkpt lat="41.9727334" lon="2.1218477"><ele>674.0</ele><time>2026-05-03T07:18:37.233Z</time></trkpt><trkpt lat="41.9727871" lon="2.1214179"><ele>673.0</ele><time>2026-05-03T07:18:38.232Z</time></trkpt><trkpt lat="41.9728395" lon="2.1209969"><ele>672.0</ele><time>2026-05-03T07:18:39.233Z</time></trkpt><trkpt lat="41.9728892" lon="2.1205979"><ele>669.5</ele><time>2026-05-03T07:18:40.233Z</time></trkpt><trkpt lat="41.9729414" lon="2.120223"><ele>667.0</ele><time>2026-05-03T07:18:41.233Z</time></trkpt><trkpt lat="41.973002" lon="2.1198673"><ele>664.5</ele><time>2026-05-03T07:18:42.232Z</time></trkpt><trkpt lat="41.9730807" lon="2.1195249"><ele>662.0</ele><time>2026-05-03T07:18:43.233Z</time></trkpt><trkpt lat="41.9731878" lon="2.1191979"><ele>658.5</ele><time>2026-05-03T07:18:44.232Z</time></trkpt><trkpt lat="41.9733218" lon="2.1188872"><ele>655.0</ele><time>2026-05-03T07:18:45.234Z</time></trkpt><trkpt lat="41.9734781" lon="2.1185992"><ele>648.0</ele><time>2026-05-03T07:18:46.232Z</time></trkpt><trkpt lat="41.9736584" lon="2.1183359"><ele>641.0</ele><time>2026-05-03T07:18:47.233Z</time></trkpt><trkpt lat="41.9738594" lon="2.1181042"><ele>640.5</ele><time>2026-05-03T07:18:48.233Z</time></trkpt><trkpt lat="41.9740846" lon="2.1179029"><ele>640.0</ele><time>2026-05-03T07:18:49.233Z</time></trkpt><trkpt lat="41.9743331" lon="2.1177298"><ele>632.0</ele><time>2026-05-03T07:18:50.232Z</time></trkpt><trkpt lat="41.9745921" lon="2.1175748"><ele>624.0</ele><time>2026-05-03T07:18:51.233Z</time></trkpt><trkpt lat="41.9748476" lon="2.1174196"><ele>618.0</ele><time>2026-05-03T07:18:52.233Z</time></trkpt><trkpt lat="41.9750906" lon="2.1172493"><ele>612.0</ele><time>2026-05-03T07:18:53.233Z</time></trkpt><trkpt lat="41.9753184" lon="2.117059"><ele>612.0</ele><time>2026-05-03T07:18:54.233Z</time></trkpt><trkpt lat="41.9755321" lon="2.1168368"><ele>612.0</ele><time>2026-05-03T07:18:55.233Z</time></trkpt><trkpt lat="41.9757355" lon="2.1165875"><ele>612.0</ele><time>2026-05-03T07:18:56.234Z</time></trkpt><trkpt lat="41.9759272" lon="2.1163185"><ele>612.0</ele><time>2026-05-03T07:18:57.233Z</time></trkpt><trkpt lat="41.9760965" lon="2.1160394"><ele>612.0</ele><time>2026-05-03T07:18:58.232Z</time></trkpt><trkpt lat="41.9762327" lon="2.1157539"><ele>612.0</ele><time>2026-05-03T07:18:59.233Z</time></trkpt><trkpt lat="41.9763583" lon="2.1154653"><ele>611.5</ele><time>2026-05-03T07:19:00.233Z</time></trkpt><trkpt lat="41.9764592" lon="2.1151725"><ele>611.0</ele><time>2026-05-03T07:19:01.232Z</time></trkpt><trkpt lat="41.9765404" lon="2.1148741"><ele>608.5</ele><time>2026-05-03T07:19:02.233Z</time></trkpt><trkpt lat="41.9766043" lon="2.1145712"><ele>606.0</ele><time>2026-05-03T07:19:03.232Z</time></trkpt><trkpt lat="41.9766529" lon="2.1142641"><ele>606.5</ele><time>2026-05-03T07:19:04.233Z</time></trkpt><trkpt lat="41.9766831" lon="2.1139572"><ele>607.0</ele><time>2026-05-03T07:19:05.233Z</time></trkpt><trkpt lat="41.9766947" lon="2.1136502"><ele>606.0</ele><time>2026-05-03T07:19:06.233Z</time></trkpt><trkpt lat="41.9766906" lon="2.1133389"><ele>605.0</ele><time>2026-05-03T07:19:07.233Z</time></trkpt><trkpt lat="41.9766691" lon="2.1130351"><ele>605.0</ele><time>2026-05-03T07:19:08.233Z</time></trkpt><trkpt lat="41.9766317" lon="2.1127273"><ele>605.0</ele><time>2026-05-03T07:19:09.233Z</time></trkpt><trkpt lat="41.9765747" lon="2.1124242"><ele>604.5</ele><time>2026-05-03T07:19:10.233Z</time></trkpt><trkpt lat="41.9765034" lon="2.1121213"><ele>604.0</ele><time>2026-05-03T07:19:11.233Z</time></trkpt><trkpt lat="41.9764215" lon="2.1118214"><ele>604.0</ele><time>2026-05-03T07:19:12.232Z</time></trkpt><trkpt lat="41.9763341" lon="2.1115175"><ele>604.0</ele><time>2026-05-03T07:19:13.233Z</time></trkpt><trkpt lat="41.9762569" lon="2.1112079"><ele>604.0</ele><time>2026-05-03T07:19:14.233Z</time></trkpt><trkpt lat="41.9761913" lon="2.1108956"><ele>604.0</ele><time>2026-05-03T07:19:15.233Z</time></trkpt><trkpt lat="41.9761369" lon="2.1105839"><ele>602.5</ele><time>2026-05-03T07:19:16.232Z</time></trkpt><trkpt lat="41.9760981" lon="2.1102748"><ele>601.0</ele><time>2026-05-03T07:19:17.233Z</time></trkpt><trkpt lat="41.9760783" lon="2.1099696"><ele>598.3333333333334</ele><time>2026-05-03T07:19:18.233Z</time></trkpt><trkpt lat="41.9760735" lon="2.1096681"><ele>595.6666666666666</ele><time>2026-05-03T07:19:19.234Z</time></trkpt><trkpt lat="41.9760817" lon="2.1093659"><ele>593.0</ele><time>2026-05-03T07:19:20.234Z</time></trkpt><trkpt lat="41.9761043" lon="2.1090672"><ele>590.6666666666666</ele><time>2026-05-03T07:19:21.232Z</time></trkpt><trkpt lat="41.9761384" lon="2.108769"><ele>588.3333333333334</ele><time>2026-05-03T07:19:22.233Z</time></trkpt><trkpt lat="41.9761868" lon="2.1084736"><ele>586.0</ele><time>2026-05-03T07:19:23.232Z</time></trkpt><trkpt lat="41.9762489" lon="2.1081864"><ele>585.6666666666667</ele><time>2026-05-03T07:19:24.232Z</time></trkpt><trkpt lat="41.9763252" lon="2.1079084"><ele>585.3333333333334</ele><time>2026-05-03T07:19:25.232Z</time></trkpt><trkpt lat="41.976418" lon="2.1076397"><ele>585.0</ele><time>2026-05-03T07:19:26.234Z</time></trkpt><trkpt lat="41.9765203" lon="2.1073825"><ele>585.0</ele><time>2026-05-03T07:19:27.233Z</time></trkpt><trkpt lat="41.9766382" lon="2.1071371"><ele>585.0</ele><time>2026-05-03T07:19:28.233Z</time></trkpt><trkpt lat="41.9767669" lon="2.1069138"><ele>585.0</ele><time>2026-05-03T07:19:29.233Z</time></trkpt><trkpt lat="41.9769038" lon="2.1067057"><ele>582.6666666666666</ele><time>2026-05-03T07:19:30.233Z</time></trkpt><trkpt lat="41.9770409" lon="2.1065062"><ele>580.3333333333333</ele><time>2026-05-03T07:19:31.234Z</time></trkpt><trkpt lat="41.9771809" lon="2.1063081"><ele>578.0</ele><time>2026-05-03T07:19:32.233Z</time></trkpt><trkpt lat="41.9773262" lon="2.1061162"><ele>578.0</ele><time>2026-05-03T07:19:33.234Z</time></trkpt><trkpt lat="41.9774753" lon="2.1059335"><ele>578.0</ele><time>2026-05-03T07:19:34.233Z</time></trkpt><trkpt lat="41.9776297" lon="2.1057578"><ele>578.0</ele><time>2026-05-03T07:19:35.232Z</time></trkpt><trkpt lat="41.9777878" lon="2.1055919"><ele>576.6666666666666</ele><time>2026-05-03T07:19:36.233Z</time></trkpt><trkpt lat="41.9779494" lon="2.1054341"><ele>575.3333333333334</ele><time>2026-05-03T07:19:37.232Z</time></trkpt><trkpt lat="41.9781111" lon="2.1052866"><ele>574.0</ele><time>2026-05-03T07:19:38.233Z</time></trkpt><trkpt lat="41.9782742" lon="2.1051511"><ele>574.0</ele><time>2026-05-03T07:19:39.234Z</time></trkpt><trkpt lat="41.9784356" lon="2.1050247"><ele>574.0</ele><time>2026-05-03T07:19:40.233Z</time></trkpt><trkpt lat="41.9785904" lon="2.1049079"><ele>574.0</ele><time>2026-05-03T07:19:41.233Z</time></trkpt><trkpt lat="41.9787378" lon="2.1048067"><ele>574.0</ele><time>2026-05-03T07:19:42.233Z</time></trkpt><trkpt lat="41.9788782" lon="2.1047202"><ele>574.0</ele><time>2026-05-03T07:19:43.234Z</time></trkpt><trkpt lat="41.9790072" lon="2.1046468"><ele>574.0</ele><time>2026-05-03T07:19:44.232Z</time></trkpt><trkpt lat="41.97912" lon="2.1045874"><ele>574.0</ele><time>2026-05-03T07:19:45.232Z</time></trkpt><trkpt lat="41.9792129" lon="2.104541"><ele>576.1666666666667</ele><time>2026-05-03T07:19:46.233Z</time></trkpt><trkpt lat="41.9792864" lon="2.1044949"><ele>578.3333333333334</ele><time>2026-05-03T07:19:47.232Z</time></trkpt><trkpt lat="41.9793463" lon="2.104436"><ele>580.5</ele><time>2026-05-03T07:19:48.234Z</time></trkpt><trkpt lat="41.9793816" lon="2.1043576"><ele>582.6666666666666</ele><time>2026-05-03T07:19:49.233Z</time></trkpt><trkpt lat="41.9793842" lon="2.1042699"><ele>584.8333333333333</ele><time>2026-05-03T07:19:50.233Z</time></trkpt><trkpt lat="41.9793544" lon="2.1041785"><ele>587.0</ele><time>2026-05-03T07:19:51.232Z</time></trkpt><trkpt lat="41.9793067" lon="2.1040663"><ele>587.0</ele><time>2026-05-03T07:19:52.233Z</time></trkpt><trkpt lat="41.9792637" lon="2.1039143"><ele>587.0</ele><time>2026-05-03T07:19:53.233Z</time></trkpt><trkpt lat="41.9792289" lon="2.1037333"><ele>587.0</ele><time>2026-05-03T07:19:54.234Z</time></trkpt><trkpt lat="41.9791978" lon="2.1035197"><ele>587.0</ele><time>2026-05-03T07:19:55.233Z</time></trkpt><trkpt lat="41.979168" lon="2.1032736"><ele>580.0</ele><time>2026-05-03T07:19:56.233Z</time></trkpt><trkpt lat="41.9791343" lon="2.1030091"><ele>573.0</ele><time>2026-05-03T07:19:57.232Z</time></trkpt><trkpt lat="41.9790996" lon="2.102731"><ele>566.0</ele><time>2026-05-03T07:19:58.232Z</time></trkpt><trkpt lat="41.9790752" lon="2.1024779"><ele>565.3333333333333</ele><time>2026-05-03T07:19:59.233Z</time></trkpt><trkpt lat="41.9790804" lon="2.1022348"><ele>564.6666666666666</ele><time>2026-05-03T07:20:00.232Z</time></trkpt><trkpt lat="41.9791276" lon="2.101998"><ele>564.0</ele><time>2026-05-03T07:20:01.233Z</time></trkpt><trkpt lat="41.9792125" lon="2.1017587"><ele>566.3333333333334</ele><time>2026-05-03T07:20:02.233Z</time></trkpt><trkpt lat="41.9793177" lon="2.1015196"><ele>568.6666666666667</ele><time>2026-05-03T07:20:03.233Z</time></trkpt><trkpt lat="41.9794288" lon="2.1012643"><ele>571.0</ele><time>2026-05-03T07:20:04.233Z</time></trkpt><trkpt lat="41.9795411" lon="2.1009962"><ele>569.3333333333334</ele><time>2026-05-03T07:20:05.233Z</time></trkpt><trkpt lat="41.9796494" lon="2.1007417"><ele>567.6666666666666</ele><time>2026-05-03T07:20:06.233Z</time></trkpt><trkpt lat="41.9797535" lon="2.1005016"><ele>566.0</ele><time>2026-05-03T07:20:07.232Z</time></trkpt><trkpt lat="41.9798553" lon="2.1002638"><ele>566.0</ele><time>2026-05-03T07:20:08.233Z</time></trkpt><trkpt lat="41.9799595" lon="2.1000176"><ele>566.0</ele><time>2026-05-03T07:20:09.233Z</time></trkpt><trkpt lat="41.9800647" lon="2.0997652"><ele>566.0</ele><time>2026-05-03T07:20:10.234Z</time></trkpt><trkpt lat="41.9801715" lon="2.0995176"><ele>566.0</ele><time>2026-05-03T07:20:11.233Z</time></trkpt><trkpt lat="41.9802723" lon="2.0992845"><ele>566.0</ele><time>2026-05-03T07:20:12.233Z</time></trkpt><trkpt lat="41.9803669" lon="2.0990674"><ele>566.0</ele><time>2026-05-03T07:20:13.233Z</time></trkpt><trkpt lat="41.9804581" lon="2.0988669"><ele>561.6666666666666</ele><time>2026-05-03T07:20:14.232Z</time></trkpt><trkpt lat="41.98056" lon="2.0986861"><ele>557.3333333333334</ele><time>2026-05-03T07:20:15.232Z</time></trkpt><trkpt lat="41.9806846" lon="2.0985284"><ele>553.0</ele><time>2026-05-03T07:20:16.233Z</time></trkpt><trkpt lat="41.9808366" lon="2.0984048"><ele>553.3333333333334</ele><time>2026-05-03T07:20:17.234Z</time></trkpt><trkpt lat="41.9810162" lon="2.098319"><ele>553.6666666666666</ele><time>2026-05-03T07:20:18.233Z</time></trkpt><trkpt lat="41.9812193" lon="2.0982705"><ele>554.0</ele><time>2026-05-03T07:20:19.233Z</time></trkpt><trkpt lat="41.9814369" lon="2.0982311"><ele>551.3333333333333</ele><time>2026-05-03T07:20:20.233Z</time></trkpt><trkpt lat="41.9816603" lon="2.0981854"><ele>548.6666666666666</ele><time>2026-05-03T07:20:21.233Z</time></trkpt><trkpt lat="41.9818633" lon="2.0981467"><ele>546.0</ele><time>2026-05-03T07:20:22.233Z</time></trkpt><trkpt lat="41.982052" lon="2.0981134"><ele>546.0</ele><time>2026-05-03T07:20:23.232Z</time></trkpt><trkpt lat="41.9822269" lon="2.0980796"><ele>546.0</ele><time>2026-05-03T07:20:24.234Z</time></trkpt><trkpt lat="41.9823894" lon="2.0980474"><ele>546.0</ele><time>2026-05-03T07:20:25.233Z</time></trkpt><trkpt lat="41.982546" lon="2.0980389"><ele>546.0</ele><time>2026-05-03T07:20:26.233Z</time></trkpt><trkpt lat="41.9827024" lon="2.0980814"><ele>546.0</ele><time>2026-05-03T07:20:27.233Z</time></trkpt><trkpt lat="41.9828636" lon="2.0981596"><ele>546.0</ele><time>2026-05-03T07:20:28.233Z</time></trkpt><trkpt lat="41.983026" lon="2.0982356"><ele>545.6666666666666</ele><time>2026-05-03T07:20:29.233Z</time></trkpt><trkpt lat="41.983193" lon="2.0982732"><ele>545.3333333333333</ele><time>2026-05-03T07:20:30.234Z</time></trkpt><trkpt lat="41.9833654" lon="2.0982797"><ele>545.0</ele><time>2026-05-03T07:20:31.233Z</time></trkpt><trkpt lat="41.9835244" lon="2.098275"><ele>545.75</ele><time>2026-05-03T07:20:32.232Z</time></trkpt><trkpt lat="41.9836679" lon="2.0982741"><ele>546.5</ele><time>2026-05-03T07:20:33.233Z</time></trkpt><trkpt lat="41.983791" lon="2.0982692"><ele>547.25</ele><time>2026-05-03T07:20:34.233Z</time></trkpt><trkpt lat="41.9838957" lon="2.098263"><ele>548.0</ele><time>2026-05-03T07:20:35.232Z</time></trkpt><trkpt lat="41.9839932" lon="2.0982542"><ele>548.1999999999999</ele><time>2026-05-03T07:20:36.233Z</time></trkpt><trkpt lat="41.9840986" lon="2.0982469"><ele>548.4</ele><time>2026-05-03T07:20:37.233Z</time></trkpt><trkpt lat="41.9841961" lon="2.0982419"><ele>548.5999999999999</ele><time>2026-05-03T07:20:38.234Z</time></trkpt><trkpt lat="41.9842926" lon="2.0982362"><ele>548.8</ele><time>2026-05-03T07:20:39.234Z</time></trkpt><trkpt lat="41.9844069" lon="2.0982262"><ele>549.0</ele><time>2026-05-03T07:20:40.233Z</time></trkpt><trkpt lat="41.9845312" lon="2.0982162"><ele>551.25</ele><time>2026-05-03T07:20:41.233Z</time></trkpt><trkpt lat="41.9846622" lon="2.0982105"><ele>553.5</ele><time>2026-05-03T07:20:42.233Z</time></trkpt><trkpt lat="41.9847945" lon="2.0981952"><ele>555.75</ele><time>2026-05-03T07:20:43.233Z</time></trkpt><trkpt lat="41.9849163" lon="2.098159"><ele>558.0</ele><time>2026-05-03T07:20:44.233Z</time></trkpt><trkpt lat="41.9850158" lon="2.0980869"><ele>558.8</ele><time>2026-05-03T07:20:45.233Z</time></trkpt><trkpt lat="41.9850854" lon="2.0979842"><ele>559.5999999999999</ele><time>2026-05-03T07:20:46.232Z</time></trkpt><trkpt lat="41.9851287" lon="2.0978555"><ele>560.4000000000001</ele><time>2026-05-03T07:20:47.233Z</time></trkpt><trkpt lat="41.9851414" lon="2.0977127"><ele>561.2</ele><time>2026-05-03T07:20:48.233Z</time></trkpt><trkpt lat="41.9851258" lon="2.0975658"><ele>562.0</ele><time>2026-05-03T07:20:49.233Z</time></trkpt><trkpt lat="41.9850916" lon="2.0974174"><ele>562.2</ele><time>2026-05-03T07:20:50.234Z</time></trkpt><trkpt lat="41.9850582" lon="2.0972702"><ele>562.4000000000001</ele><time>2026-05-03T07:20:51.234Z</time></trkpt><trkpt lat="41.9850262" lon="2.0971326"><ele>562.5999999999999</ele><time>2026-05-03T07:20:52.233Z</time></trkpt><trkpt lat="41.9850006" lon="2.09701"><ele>562.8</ele><time>2026-05-03T07:20:53.234Z</time></trkpt><trkpt lat="41.9849831" lon="2.0969018"><ele>563.0</ele><time>2026-05-03T07:20:54.232Z</time></trkpt><trkpt lat="41.9849755" lon="2.0968052"><ele>564.0</ele><time>2026-05-03T07:20:55.233Z</time></trkpt><trkpt lat="41.9850194" lon="2.0966651"><ele>565.0</ele><time>2026-05-03T07:20:57.233Z</time></trkpt><trkpt lat="41.9851251" lon="2.0966154"><ele>566.0</ele><time>2026-05-03T07:20:59.233Z</time></trkpt><trkpt lat="41.9851921" lon="2.0966043"><ele>567.0</ele><time>2026-05-03T07:21:00.233Z</time></trkpt><trkpt lat="41.9852665" lon="2.0965958"><ele>568.0</ele><time>2026-05-03T07:21:01.233Z</time></trkpt><trkpt lat="41.9853475" lon="2.0965882"><ele>569.0</ele><time>2026-05-03T07:21:02.233Z</time></trkpt><trkpt lat="41.9854352" lon="2.0965824"><ele>569.8</ele><time>2026-05-03T07:21:03.233Z</time></trkpt><trkpt lat="41.9855278" lon="2.0965774"><ele>570.5999999999999</ele><time>2026-05-03T07:21:04.233Z</time></trkpt><trkpt lat="41.9856242" lon="2.0965671"><ele>571.4</ele><time>2026-05-03T07:21:05.233Z</time></trkpt><trkpt lat="41.9857209" lon="2.0965601"><ele>572.1999999999999</ele><time>2026-05-03T07:21:06.232Z</time></trkpt><trkpt lat="41.9858197" lon="2.0965538"><ele>573.0</ele><time>2026-05-03T07:21:07.233Z</time></trkpt><trkpt lat="41.9859079" lon="2.0965483"><ele>573.0</ele><time>2026-05-03T07:21:08.232Z</time></trkpt><trkpt lat="41.9859876" lon="2.0965422"><ele>573.0</ele><time>2026-05-03T07:21:09.233Z</time></trkpt><trkpt lat="41.9860639" lon="2.0965352"><ele>573.0</ele><time>2026-05-03T07:21:10.234Z</time></trkpt><trkpt lat="41.9861344" lon="2.0965323"><ele>573.0</ele><time>2026-05-03T07:21:11.234Z</time></trkpt><trkpt lat="41.9862454" lon="2.0965214"><ele>573.0</ele><time>2026-05-03T07:21:13.233Z</time></trkpt><trkpt lat="41.9862984" lon="2.0964462"><ele>573.0</ele><time>2026-05-03T07:21:17.234Z</time></trkpt><trkpt lat="41.9862997" lon="2.0963149"><ele>573.0</ele><time>2026-05-03T07:21:20.233Z</time></trkpt><trkpt lat="41.9862963" lon="2.0961874"><ele>573.0</ele><time>2026-05-03T07:21:22.233Z</time></trkpt><trkpt lat="41.9862718" lon="2.0961033"><ele>573.0</ele><time>2026-05-03T07:21:24.233Z</time></trkpt><trkpt lat="41.9862113" lon="2.0960185"><ele>573.0</ele><time>2026-05-03T07:21:27.233Z</time></trkpt><trkpt lat="41.9861565" lon="2.0959447"><ele>573.0</ele><time>2026-05-03T07:21:30.234Z</time></trkpt><trkpt lat="41.9860969" lon="2.0959004"><ele>573.0</ele><time>2026-05-03T07:21:32.234Z</time></trkpt><trkpt lat="41.9860322" lon="2.0958918"><ele>573.0</ele><time>2026-05-03T07:21:35.233Z</time></trkpt><trkpt lat="41.9860322" lon="2.0958918"><ele>573.0</ele><time>2026-05-03T07:21:35.233Z</time></trkpt><trkpt lat="41.9860322" lon="2.0958918"><ele>573.0</ele><time>2026-05-03T07:21:35.233Z</time></trkpt></trkseg></trk></gpx>